[[{"header":{"parameterUnit":"m.s-1","parameterCategory":1,"la1":31.0,"la2":29.5877,"lo1":-88.7671,"lo2":-86.6584,"dy":0.0162,"dx":0.0185,"nx":115,"ny":88,"refTime":"2023-09-14T18:00:00:Z","depth":0,"parameterNumber":2,"parameterNumberName":"U-component_of_WINDS"},"data":[0.0,0.0,0.0,0.0,0.0,0.0,0.0,0.0,0.0,0.0,0.0,0.0,0.0,0.0,0.0,0.0,0.0,0.0,0.0,0.0,0.0,0.0,0.0,0.0,0.0,0.0,0.0,0.0,0.0,0.0,0.0,0.0,0.0,0.0,0.0,0.0,0.0,0.0,0.0,0.0,0.0,0.0,0.0,0.0,0.0,0.0,0.0,0.0,0.0,0.0,0.0,0.0,0.0,0.0,0.0,0.0,0.0,0.0,0.0,0.0,0.0,0.0,0.0,0.0,0.0,0.0,0.0,0.0,0.0,0.0,0.0,0.0,0.0,0.0,0.0,0.0,0.0,0.0,0.0,0.0,0.0,0.0,0.0,0.0,0.0,0.0,0.0,0.0,0.0,0.0,0.0,0.0,0.0,0.0,0.0,0.0,0.0,0.0,0.0,0.0,0.0,0.0,0.0,0.0,0.0,0.0,0.0,0.0,0.0,0.0,0.0,0.0,0.0,0.0,0.0,0.0,0.0,0.0,0.0,0.0,0.0,0.0,0.0,0.0,0.0,0.0,0.0,0.0,0.0,0.0,0.0,0.0,0.0,0.0,0.0,0.0,0.0,0.0,0.0,0.0,0.0,0.0,0.0,0.0,0.0,0.0,0.0,0.0,0.0,0.0,0.0,0.0,0.0,0.0,0.0,0.0,0.0,0.0,0.0,0.0,0.0,0.0,0.0,0.0,0.0,0.0,0.0,0.0,0.0,0.0,0.0,0.0,0.0,0.0,0.0,0.0,0.0,0.0,0.0,0.0,0.0,0.0,0.0,0.0,0.0,0.0,0.0,0.0,0.0,0.0,0.0,0.0,0.0,0.0,0.0,0.0,0.0,0.0,0.0,0.0,0.0,0.0,0.0,0.0,0.0,0.0,0.0,0.0,0.0,0.0,0.0,0.0,0.0,0.0,0.0,0.0,0.0,0.0,0.0,0.0,0.0,0.0,0.0,0.0,0.0,0.0,0.0,0.0,0.0,0.0,0.0,0.0,0.0,0.0,0.0,0.0,0.0,0.0,0.0,0.0,0.0,0.0,0.0,0.0,0.0,0.0,0.0,0.0,0.0,0.0,0.0,0.0,0.0,0.0,0.0,0.0,0.0,0.0,0.0,0.0,0.0,0.0,0.0,0.0,0.0,0.0,0.0,0.0,0.0,0.0,0.0,0.0,0.0,0.0,0.0,0.0,0.0,0.0,0.0,0.0,0.0,0.0,0.0,0.0,0.0,0.0,0.0,0.0,0.0,0.0,0.0,0.0,0.0,0.0,0.0,0.0,0.0,0.0,0.0,0.0,0.0,0.0,0.0,0.0,0.0,0.0,0.0,0.0,0.0,0.0,0.0,0.0,0.0,0.0,0.0,0.0,0.0,0.0,0.0,0.0,0.0,0.0,0.0,0.0,0.0,0.0,0.0,0.0,0.0,0.0,0.0,0.0,0.0,0.0,0.0,0.0,0.0,0.0,0.0,0.0,0.0,0.0,0.0,0.0,0.0,0.0,0.0,0.0,0.0,0.0,0.0,0.0,0.0,0.0,0.0,0.0,0.0,0.0,0.0,0.0,0.0,0.0,0.0,0.0,0.0,0.0,0.0,0.0,0.0,0.0,0.0,0.0,0.0,0.0,0.0,0.0,0.0,0.0,0.0,0.0,0.0,0.0,0.0,0.0,0.0,0.0,0.0,0.0,0.0,0.0,0.0,0.0,0.0,0.0,0.0,0.0,0.0,0.0,0.0,0.0,0.0,0.0,0.0,0.0,0.0,0.0,0.0,0.0,0.0,0.0,0.0,0.0,0.0,0.0,0.0,0.0,0.0,0.0,0.0,0.0,0.0,0.0,0.0,0.0,0.0,0.0,0.0,0.0,0.0,0.0,0.0,0.0,0.0,0.0,0.0,0.0,0.0,0.0,0.0,0.0,0.0,0.0,0.0,0.0,0.0,0.0,0.0,0.0,0.0,0.0,0.0,0.0,0.0,0.0,0.0,0.0,0.0,0.0,0.0,0.0,0.0,0.0,0.0,0.0,0.0,0.0,0.0,0.0,0.0,0.0,0.0,0.0,0.0,0.0,0.0,0.0,0.0,0.0,0.0,0.0,0.0,0.0,0.0,0.0,0.0,0.0,0.0,0.0,0.0,0.0,0.0,0.0,0.0,0.0,0.0,0.0,0.0,0.0,0.0,0.0,0.0,0.0,0.0,0.0,0.0,0.0,0.0,0.0,0.0,0.0,0.0,0.0,0.0,0.0,0.0,0.0,0.0,0.0,0.0,0.0,0.0,0.0,0.0,0.0,0.0,0.0,0.0,0.0,0.0,0.0,0.0,0.0,0.0,0.0,0.0,0.0,0.0,0.0,0.0,0.0,0.0,0.0,0.0,0.0,0.0,0.0,0.0,0.0,0.0,0.0,0.0,0.0,0.0,0.0,0.0,0.0,0.0,0.0,0.0,0.0,0.0,0.0,0.0,0.0,0.0,0.0,0.0,0.0,0.0,0.0,0.0,0.0,0.0,0.0,0.0,0.0,0.0,0.0,0.0,0.0,0.0,0.0,0.0,0.0,0.0,0.0,0.0,0.0,0.0,0.0,0.0,0.0,0.0,0.0,0.0,0.0,0.0,0.0,0.0,0.0,0.0,0.0,0.0,0.0,0.0,0.0,0.0,0.0,0.0,0.0,0.0,0.0,0.0,0.0,0.0,0.0,0.0,0.0,0.0,0.0,0.0,0.0,0.0,0.0,0.0,0.0,0.0,0.0,0.0,0.0,0.0,0.0,0.0,0.0,0.0,0.0,0.0,0.0,0.0,0.0,0.0,0.0,0.0,0.0,0.0,0.0,0.0,0.0,0.0,0.0,0.0,0.0,0.0,0.0,0.0,0.0,0.0,0.0,0.0,0.0,0.0,0.0,0.0,0.0,0.0,0.0,0.0,0.0,0.0,0.0,0.0,0.0,0.0,0.0,0.0,0.0,0.0,0.0,0.0,0.0,0.0,0.0,0.0,0.0,0.0,0.0,0.0,0.0,0.0,0.0,0.0,0.0,0.0,0.0,0.0,0.0,0.0,0.0,0.0,0.0,0.0,0.0,0.0,0.0,0.0,0.0,0.0,0.0,0.0,0.0,0.0,0.0,0.0,0.0,0.0,0.0,0.0,0.0,0.0,0.0,0.0,0.0,0.0,0.0,0.0,0.0,0.0,0.0,0.0,0.0,0.0,0.0,0.0,0.0,0.0,0.0,0.0,0.0,0.0,0.0,0.0,0.0,0.0,0.0,0.0,0.0,0.0,0.0,0.0,0.0,0.0,0.0,0.0,0.0,0.0,0.0,0.0,0.0,0.0,0.0,0.0,0.0,0.0,0.0,0.0,0.0,0.0,0.0,0.0,0.0,0.0,0.0,0.0,0.0,0.0,0.0,0.0,0.0,0.0,0.0,0.0,0.0,0.0,0.0,0.0,0.0,0.0,0.0,0.0,0.0,0.0,0.0,0.0,0.0,0.0,0.0,0.0,0.0,0.0,0.0,0.0,0.0,0.0,0.0,0.0,0.0,0.0,0.0,0.0,0.0,0.0,0.0,0.0,0.0,0.0,0.0,0.0,0.0,0.0,0.0,0.0,0.0,0.0,0.0,0.0,0.0,0.0,0.0,0.0,0.0,0.0,0.0,0.0,0.0,0.0,0.0,0.0,0.0,0.0,0.0,0.0,0.0,0.0,0.0,0.0,0.0,0.0,0.0,0.0,0.0,0.0,0.0,0.0,0.0,0.0,0.0,0.0,0.0,0.0,0.0,0.0,0.0,0.0,0.0,0.0,0.0,0.0,0.0,0.0,0.0,0.0,0.0,0.0,0.0,0.0,0.0,0.0,0.0,0.0,0.0,0.0,0.0,0.0,0.0,0.0,0.0,0.0,0.0,0.0,0.0,0.0,0.0,0.0,0.0,0.0,0.0,0.0,0.0,0.0,0.0,0.0,0.0,0.0,0.0,0.0,0.0,0.0,0.0,0.0,0.0,0.0,0.0,0.0,0.0,0.0,0.0,0.0,0.0,0.0,0.0,0.0,0.0,0.0,0.0,0.0,0.0,0.0,0.0,0.0,0.0,0.0,0.0,0.0,0.0,0.0,0.0,0.0,0.0,0.0,0.0,0.0,0.0,0.0,0.0,0.0,0.0,0.0,0.0,0.0,0.0,0.0,0.0,0.0,0.0,0.0,0.0,0.0,0.0,0.0,0.0,0.0,0.0,0.0,0.0,0.0,0.0,0.7521,0.0,0.0,0.0,0.0,0.0,0.0,0.0,0.0,0.0,0.0,0.0,0.0,0.0,0.0,0.0,0.0,0.0,0.0,0.0,0.0,0.0,0.0,0.0,0.0,0.0,0.0,0.0,0.0,0.0,0.0,0.0,0.0,0.0,0.0,0.0,0.0,0.0,0.0,0.0,0.0,0.0,0.0,0.0,0.0,0.0,0.0,0.0,0.0,0.0,0.0,0.0,0.0,0.0,0.0,0.0,0.0,0.0,0.0,0.0,0.0,0.0,0.0,0.0,0.0,0.0,0.0,0.0,0.0,0.0,0.0,0.0,0.0,0.0,0.0,0.0,0.0,0.0,0.0,0.0,0.0,0.0,0.0,0.0,0.0,0.0,0.0,0.0,0.0,0.0,0.0,0.0,0.0,0.0,0.0,0.0,0.0,0.0,0.0,0.0,0.0,0.0,0.0,0.0,0.0,0.0,0.0,0.0,0.0,0.0,0.0,0.8978,0.8662,0.8556,0.8256,0.7763,0.0,0.0,0.0,0.0,0.0,0.0,0.0,0.0,0.0,0.0,0.0,0.0,0.0,0.0,0.0,0.0,0.0,0.0,0.0,0.0,0.0,0.0,0.0,0.0,0.0,0.0,0.0,0.0,0.0,0.0,0.0,0.0,0.0,0.0,0.0,0.0,0.0,0.0,0.0,0.0,0.0,0.0,0.0,0.0,0.0,0.0,0.0,0.0,0.0,0.0,0.0,0.0,0.0,0.0,0.0,0.0,0.0,0.0,0.0,0.0,0.0,0.0,0.0,0.0,0.0,0.0,0.0,0.0,0.0,0.0,0.0,0.0,0.0,0.0,0.0,0.0,0.0,0.0,0.0,0.0,0.0,0.0,0.0,0.0,0.0,0.0,0.0,0.0,0.0,0.0,0.0,0.0,0.0,0.0,0.0,0.0,0.0,0.0,0.0,0.0,0.0,0.0,0.0,0.0,0.0,0.0,0.0,0.0,0.0,0.0,0.0,0.0,0.8731,0.8288,0.7802,0.0,0.0,0.0,0.0,0.0,0.0,0.0,0.0,0.0,0.0,0.0,0.0,0.0,0.0,0.0,0.0,0.0,0.0,0.0,0.0,0.0,0.0,0.0,0.0,0.0,0.0,0.0,0.0,0.0,0.0,0.0,0.0,0.0,0.0,0.0,0.0,0.0,0.0,0.0,0.0,0.0,0.0,0.0,0.0,0.0,0.0,0.0,0.0,0.0,0.0,0.0,0.0,0.0,0.0,0.0,0.0,0.0,0.0,0.0,0.0,0.0,0.0,0.0,0.0,0.0,0.0,0.0,0.0,0.0,0.0,0.0,0.0,0.0,0.0,0.0,0.0,0.0,0.0,0.0,0.0,0.0,0.0,0.0,0.0,0.0,0.0,0.0,0.0,0.0,0.0,0.0,0.0,0.0,0.0,0.0,0.0,0.0,0.0,0.0,0.0,0.0,0.0,0.0,0.0,0.0,0.0,0.0,0.0,0.0,0.0,0.9304,0.9968,0.9299,0.0,0.7528,0.0,0.0,0.0,0.0,0.0,0.0,0.0,0.0,0.0,0.0,0.0,0.0,0.0,0.0,0.0,0.0,0.0,0.0,0.0,0.0,0.0,0.0,0.0,0.0,0.0,0.0,0.0,0.0,0.0,0.0,0.0,0.0,0.0,0.0,0.0,0.0,0.0,0.0,0.0,0.0,0.0,0.0,0.0,0.0,0.0,0.0,0.0,0.0,0.0,0.0,0.0,0.0,0.0,0.0,0.0,0.0,0.0,0.0,0.0,0.0,0.0,0.0,0.0,0.0,0.0,0.0,0.0,0.0,0.0,0.0,0.0,0.0,0.0,0.0,0.0,0.0,0.0,0.0,0.0,0.0,0.0,0.0,0.0,0.0,0.0,0.0,0.0,0.0,0.0,0.0,0.0,0.0,0.0,0.0,0.0,0.0,0.0,0.0,0.0,0.0,0.0,0.0,0.0,0.0,0.0,0.0,0.0,0.0,0.0,0.0,0.9809,1.0188,0.9574,0.8731,0.0,0.0,0.0,0.0,0.0,0.0,0.0,0.0,0.0,0.0,0.0,0.0,0.0,0.0,0.0,0.0,0.0,0.0,0.0,0.0,0.0,0.0,0.0,0.0,0.0,0.0,0.0,0.0,0.0,0.0,0.0,0.0,0.0,0.0,0.0,0.0,0.0,0.0,0.0,0.0,0.0,0.0,0.0,0.0,0.0,0.0,0.0,0.0,0.0,0.0,0.0,0.0,0.0,0.0,0.0,0.0,0.0,0.0,0.0,0.0,0.0,0.0,0.0,0.0,0.0,0.0,0.0,0.0,0.0,0.0,0.0,0.0,0.0,0.0,0.0,0.0,0.0,0.0,0.0,0.0,0.0,0.0,0.0,0.0,0.0,0.0,0.0,0.0,0.0,0.0,0.0,0.0,0.0,0.0,0.0,0.0,0.0,0.0,0.0,0.0,0.0,0.0,0.0,0.0,0.0,0.0,0.0,0.0,0.0,0.0,1.0007,1.0207,1.0367,0.9672,0.8853,0.798,0.0,0.0,0.0,0.0,0.0,0.0,0.0,0.0,0.0,0.0,0.0,0.0,0.0,0.0,0.0,0.0,0.0,0.0,0.0,0.0,0.0,0.0,0.0,0.0,0.0,0.0,0.0,0.0,0.0,0.0,0.0,0.0,0.0,0.0,0.0,0.0,0.0,0.0,0.0,0.0,0.0,0.0,0.0,0.0,0.0,0.0,0.0,0.0,0.0,0.0,0.0,0.0,0.0,0.0,0.0,0.0,0.0,0.0,0.0,0.0,0.0,0.0,0.0,0.0,0.0,0.0,0.0,0.0,0.0,0.0,0.0,0.0,0.0,0.0,0.0,0.0,0.0,0.0,0.0,0.0,0.0,0.0,0.0,0.0,0.0,0.0,0.0,0.0,0.0,0.0,0.0,0.0,0.0,0.0,0.0,0.0,0.0,0.0,0.0,0.0,0.0,0.0,0.0,0.0,0.0,0.0,0.0,0.0,1.0955,1.0578,1.0491,1.0623,0.9534,0.8785,0.0,0.0,0.0,0.0,0.0,0.0,0.0,0.0,0.0,0.0,0.0,0.0,0.0,0.0,0.0,0.0,0.0,0.0,0.0,0.0,0.0,0.0,0.0,0.0,0.0,0.0,0.0,0.0,0.0,0.0,0.0,0.0,0.0,0.0,0.0,0.0,0.0,0.0,0.0,0.0,0.0,0.0,0.0,0.0,0.0,0.0,0.0,0.0,0.0,0.0,0.0,0.0,0.0,0.0,0.0,0.0,0.0,0.0,0.0,0.0,0.0,0.0,0.0,0.0,0.0,0.0,0.0,0.0,0.0,0.0,0.0,0.0,0.0,0.0,0.0,0.0,0.0,0.0,0.0,0.0,0.0,0.0,0.0,0.0,0.0,0.0,0.0,0.0,0.0,0.0,0.0,0.0,0.0,0.0,0.0,0.0,0.0,0.0,0.0,0.0,0.0,0.0,0.0,0.0,0.0,0.0,0.0,0.0,0.0,1.0,0.9939,0.9764,0.9499,0.9211,0.8795,0.0,0.0,0.0,0.0,0.0,0.0,0.0,0.0,0.0,0.0,0.0,0.0,0.0,0.0,0.0,0.0,0.0,0.0,0.0,0.0,0.0,0.0,0.0,0.0,0.0,0.0,0.0,0.0,0.0,0.0,0.0,0.0,0.0,0.0,0.0,0.0,0.0,0.0,0.0,0.0,0.0,0.0,0.0,0.0,0.0,0.0,0.0,0.0,0.0,0.0,0.0,0.0,0.0,0.0,0.0,0.0,0.0,0.0,0.0,0.0,0.0,0.0,0.0,0.0,0.0,0.0,0.0,0.0,0.0,0.0,0.0,0.0,0.0,0.0,0.0,0.0,0.0,0.0,0.0,0.0,0.0,0.0,0.0,0.0,0.0,0.0,0.0,0.0,0.0,0.0,0.0,0.0,0.0,0.0,0.0,0.0,0.0,0.0,0.0,0.0,0.0,0.0,0.0,0.0,0.0,0.0,0.0,0.0,0.0,0.9643,0.0,0.9351,0.9125,0.9144,0.8847,0.0,0.0,0.0,0.0,0.0,0.0,0.0,0.0,0.0,0.0,0.0,0.0,0.0,0.0,0.0,0.0,0.0,0.0,0.0,0.0,0.0,0.0,0.0,0.0,0.0,0.0,0.0,0.0,0.0,0.0,0.0,0.0,0.0,0.0,0.0,0.0,0.0,0.0,0.0,0.0,0.0,0.0,0.0,0.0,0.0,0.0,0.0,0.0,0.0,0.0,0.0,0.0,0.0,0.0,0.0,0.0,0.0,0.0,0.0,0.0,0.0,0.0,0.0,0.0,0.0,0.0,0.0,0.0,0.0,0.0,0.0,0.0,0.0,0.0,0.0,0.0,0.0,0.0,0.0,0.0,0.0,0.0,0.0,0.0,0.0,0.0,0.0,0.0,0.0,0.0,0.0,0.0,0.0,0.0,0.0,0.0,0.0,0.0,0.0,0.0,0.0,0.0,0.0,0.0,0.0,0.0,0.0,0.0,1.004,1.002,0.9474,0.9283,0.9645,0.9305,0.896,0.0,0.0,0.0,0.0,0.0,0.0,0.0,0.0,0.0,0.0,0.0,0.0,0.0,0.0,0.0,0.0,0.0,0.0,0.0,0.0,0.0,0.0,0.0,0.0,0.0,0.0,0.0,0.0,0.0,0.0,0.0,0.0,0.0,0.0,0.0,0.0,0.0,0.0,0.0,0.0,0.0,0.0,0.0,0.0,0.0,0.0,0.0,0.0,0.0,0.0,0.0,0.0,0.0,0.0,0.0,0.0,0.0,0.0,0.0,0.0,0.0,0.0,0.0,0.0,0.0,0.0,0.0,0.0,0.0,0.0,0.0,0.0,0.0,0.0,0.0,0.0,0.0,0.0,0.0,0.0,0.0,0.0,0.0,0.0,0.0,0.0,0.0,0.0,0.0,0.0,0.0,0.0,0.0,0.0,0.0,0.0,0.0,0.0,0.0,0.0,0.0,0.0,0.0,0.0,0.0,0.0,0.0,0.0,0.0,0.8387,0.8428,0.8442,0.8479,0.845,0.8301,0.0,0.0,0.0,0.0,0.0,0.0,0.0,0.0,0.0,0.0,0.0,0.0,0.0,0.0,0.0,0.0,0.0,0.0,0.0,0.0,0.0,0.0,0.0,0.0,0.0,0.0,0.0,0.0,0.0,0.0,0.0,0.0,0.0,0.0,0.0,0.0,0.0,0.0,0.0,0.0,0.0,0.0,0.0,0.0,0.0,0.0,0.0,0.0,0.0,0.0,0.0,0.0,0.0,0.0,0.0,0.0,0.0,0.0,0.0,0.0,0.0,0.0,0.0,0.0,0.0,0.0,0.0,0.0,0.0,0.0,0.0,0.0,0.0,0.0,0.0,0.0,0.0,0.0,0.0,0.0,0.0,0.0,0.0,0.0,0.0,0.0,0.0,0.0,0.0,0.0,0.0,0.0,0.0,0.0,0.0,0.0,0.0,0.0,0.0,0.0,0.0,0.0,0.0,0.0,0.0,0.0,0.0,0.0,0.0,0.7577,0.7903,0.8025,0.7821,0.8072,0.8072,0.784,0.0,0.0,0.0,0.0,0.0,0.0,0.0,0.0,0.0,0.0,0.0,0.0,0.0,0.0,0.0,0.0,0.0,0.0,0.0,0.0,0.0,0.0,0.0,0.0,0.0,0.0,0.0,0.0,0.0,0.0,0.0,0.0,0.0,0.0,0.0,0.0,0.0,0.0,0.0,0.0,0.0,0.0,0.0,0.0,0.0,0.0,0.0,0.0,0.0,0.0,0.0,0.0,0.0,0.0,0.0,0.0,0.0,0.0,0.0,0.0,0.0,0.0,0.0,0.0,0.0,0.0,0.0,0.0,0.0,0.0,0.0,0.0,0.0,0.0,0.0,0.0,0.0,0.0,0.0,0.0,0.0,0.0,0.0,0.0,0.0,0.0,0.0,0.0,0.0,0.0,0.0,0.0,0.0,0.0,0.0,0.0,0.0,0.0,0.0,0.0,0.0,0.0,0.0,0.0,0.0,0.0,0.0,0.0,0.7433,0.784,0.7967,0.7695,0.8062,0.8166,0.0,0.0,0.0,0.0,0.0,0.0,0.0,0.0,0.0,0.0,0.0,0.0,0.0,0.0,0.0,0.0,0.0,0.0,0.0,0.0,0.0,0.0,0.0,0.0,0.0,0.0,0.0,0.0,0.0,0.0,0.0,0.0,0.0,0.0,0.0,0.0,0.0,0.0,0.0,0.0,0.0,0.0,0.0,0.0,0.0,0.0,0.0,0.0,0.0,0.0,0.0,0.0,0.0,0.0,0.0,0.0,0.0,0.0,0.0,0.0,0.0,0.0,0.0,0.0,0.0,0.0,0.0,0.0,0.0,0.0,0.0,0.0,0.0,0.0,0.0,0.0,0.0,0.0,0.0,0.0,0.0,0.0,0.0,0.0,0.0,0.0,0.0,0.0,0.0,0.0,0.0,0.0,0.0,0.0,0.0,0.0,0.0,0.0,0.0,0.0,0.0,0.0,0.0,0.0,0.0,0.0,0.0,0.0,0.0,0.7654,0.7734,0.7754,0.7695,0.7812,0.7918,0.0,0.0,0.0,0.0,0.0,0.0,0.0,0.0,0.0,0.0,0.0,0.0,0.0,0.0,0.0,0.0,0.0,0.0,0.0,0.0,0.0,0.0,0.0,0.0,0.0,0.0,0.0,0.0,0.0,0.0,0.0,0.0,0.0,0.0,0.0,0.0,0.0,0.0,0.0,0.0,0.0,0.0,0.0,0.0,0.0,0.0,0.0,0.0,0.0,0.0,0.0,0.0,0.0,0.0,0.0,0.0,0.0,0.0,0.0,0.0,0.0,0.0,0.0,0.0,0.0,0.0,0.0,0.0,0.0,0.0,0.0,0.0,0.0,0.0,0.0,0.0,0.0,0.0,0.0,0.0,0.0,0.0,0.0,0.0,0.0,0.0,0.0,0.0,0.0,0.0,0.0,0.0,0.0,0.0,0.0,0.0,0.0,0.0,0.0,0.0,0.0,0.0,0.0,0.0,0.0,0.0,0.0,0.0,0.8039,0.7705,0.7954,0.806,0.7938,0.7812,0.7862,0.0,0.0,0.0,0.0,0.0,0.0,0.0,0.0,0.0,0.0,0.0,0.0,0.0,0.0,0.0,0.0,0.0,0.0,0.0,0.0,0.0,0.0,0.0,0.0,0.0,0.0,0.0,0.0,0.0,0.0,0.0,0.0,0.0,0.0,0.0,0.0,0.0,0.0,0.0,0.0,0.0,0.0,0.0,0.0,0.0,0.0,0.0,0.0,0.0,0.0,0.0,0.0,0.0,0.0,0.0,0.0,0.0,0.0,0.0,0.0,0.0,0.0,0.0,0.0,0.0,0.0,0.0,0.0,0.0,0.0,0.0,0.0,0.0,0.0,0.0,0.0,0.0,0.0,0.0,0.0,0.0,0.0,0.0,0.0,0.0,0.0,0.0,0.0,0.0,0.0,0.0,0.0,0.0,0.0,0.0,0.0,0.0,0.0,0.0,0.0,0.0,0.0,0.0,0.0,0.0,0.0,0.0,0.0,0.8252,0.7821,0.8262,0.846,0.831,0.7959,0.793,0.0,0.0,0.0,0.0,0.0,0.0,0.0,0.0,0.0,0.0,0.0,0.0,0.0,0.0,0.0,0.0,0.0,0.0,0.0,0.0,0.0,0.0,0.0,0.0,0.0,0.0,0.0,0.0,0.0,0.0,0.0,0.0,0.0,0.0,0.0,0.0,0.0,0.0,0.0,0.0,0.0,0.0,0.0,0.0,0.0,0.0,0.0,0.0,0.0,0.0,0.0,0.0,0.0,0.0,0.0,0.0,0.0,0.0,0.0,0.0,0.0,0.0,0.0,0.0,0.0,0.0,0.0,0.0,0.0,0.0,0.0,0.0,0.0,0.0,0.0,0.0,0.0,0.0,0.0,0.0,0.0,0.0,0.0,0.0,0.0,0.0,0.0,0.0,0.0,0.0,0.0,0.0,0.0,0.0,0.0,0.0,0.0,0.0,0.0,0.0,0.0,0.0,0.0,0.0,0.0,0.0,0.0,0.0,0.8728,0.8422,0.8215,0.8229,0.8453,0.7931,0.7832,0.0,0.0,0.0,0.0,0.0,0.0,0.0,0.0,0.0,0.0,0.0,0.0,0.0,0.0,0.0,0.0,0.0,0.0,0.0,0.0,0.0,0.0,0.0,0.0,0.0,0.0,0.0,0.0,0.0,0.0,0.0,0.0,0.0,0.0,0.0,0.0,0.0,0.0,0.0,0.0,0.0,0.0,0.0,0.0,0.0,0.0,0.0,0.0,0.5348,0.0,0.0,0.0,0.0,0.0,0.0,0.0,0.0,0.0,0.0,0.0,0.0,0.0,0.0,0.0,0.0,0.0,0.0,0.0,0.0,0.0,0.0,0.0,0.0,0.0,0.0,0.0,0.0,0.0,0.0,0.0,0.0,0.0,0.0,0.0,0.0,0.0,0.0,0.0,0.0,0.0,0.0,0.0,0.0,0.0,0.0,0.0,0.0,0.0,0.0,0.0,0.0,0.0,0.0,0.0,0.0,0.0,0.0,0.0,0.8627,0.8558,0.8354,0.8345,0.8599,0.8031,0.792,0.0,0.0,0.0,0.0,0.0,0.0,0.0,0.0,0.0,0.0,0.0,0.0,0.0,0.0,0.0,0.0,0.0,0.0,0.0,0.0,0.0,0.0,0.0,0.0,0.0,0.0,0.0,0.0,0.0,0.0,0.0,0.0,0.0,0.0,0.0,0.0,0.0,0.0,0.0,0.0,0.0,0.0,0.0,0.0,0.0,0.0,0.0,0.0,0.0,0.0,0.0,0.0,0.0,0.0,0.0,0.0,0.0,0.0,0.0,0.0,0.0,0.0,0.0,0.0,0.0,0.0,0.0,0.0,0.0,0.0,0.0,0.0,0.0,0.0,0.0,0.0,0.0,0.0,0.0,0.0,0.0,0.0,0.0,0.0,0.0,0.0,0.0,0.0,0.0,0.0,0.0,0.0,0.0,0.0,0.0,0.0,0.0,0.0,0.0,0.0,0.0,0.0,0.0,0.0,0.0,0.0,0.0,0.8283,0.844,0.859,0.8535,0.8565,0.866,0.8115,0.794,0.8117,0.0,0.0,0.0,0.0,0.0,0.0,0.0,0.0,0.0,0.0,0.0,0.0,0.0,0.0,0.0,0.0,0.0,0.0,0.0,0.0,0.0,0.0,0.0,0.0,0.0,0.0,0.0,0.0,0.0,0.0,0.0,0.0,0.0,0.0,0.0,0.0,0.0,0.0,0.8554,0.8728,0.0,0.0,0.0,0.0,0.0,0.0,0.0,0.0,0.5458,0.0,0.0,0.0,0.0,0.0,0.0,0.0,0.0,0.0,0.0,0.0,0.0,0.0,0.0,0.0,0.0,0.0,0.0,0.0,0.0,0.0,0.0,0.0,0.0,0.0,0.0,0.0,0.0,0.0,0.0,0.0,0.0,0.0,0.0,0.0,0.0,0.0,0.0,0.0,0.0,0.0,0.0,0.0,0.0,0.0,0.0,0.0,0.0,0.0,0.0,0.0,0.0,0.0,0.0,0.0,0.0,0.9685,0.9318,0.9096,0.8986,0.8664,0.8332,0.7992,0.7757,0.7676,0.7714,0.0,0.0,0.0,0.0,0.0,0.0,0.0,0.0,0.0,0.0,0.0,0.0,0.0,0.0,0.0,0.0,0.0,0.0,0.0,0.0,0.0,0.0,0.0,0.0,0.0,0.0,0.0,0.0,0.0,0.0,0.0,0.0,0.0,0.0,0.0,0.0,0.0,0.0,0.0,0.8836,0.8881,0.0,0.0,0.0,0.0,0.0,0.0,0.0,0.0,0.5301,0.0,0.0,0.0,0.0,0.0,0.0,0.0,0.0,0.0,0.0,0.0,0.0,0.0,0.0,0.0,0.0,0.0,0.0,0.0,0.0,0.0,0.0,0.0,0.0,0.0,0.0,0.0,0.0,0.0,0.0,0.0,0.0,0.0,0.0,0.0,0.0,0.0,0.0,0.0,0.0,0.0,0.0,0.0,0.0,0.0,0.0,0.0,0.0,0.0,0.0,0.0,0.0,0.0,0.0,0.0,0.9639,0.905,0.8913,0.9373,0.8811,0.8406,0.8161,0.7613,0.7424,0.0,0.0,0.0,0.0,0.0,0.0,0.0,0.0,0.0,0.0,0.0,0.0,0.0,0.0,0.0,0.0,0.0,0.0,0.0,0.0,0.0,0.0,0.0,0.0,0.0,0.0,0.0,0.0,0.0,0.0,0.0,0.0,0.0,0.0,0.0,0.0,0.0,0.0,0.0,0.0,0.8958,0.8837,0.783,0.0,0.0,0.0,0.0,0.0,0.0,0.5837,0.5329,0.0,0.0,0.0,0.0,0.0,0.0,0.0,0.0,0.0,0.0,0.0,0.0,0.0,0.0,0.0,0.0,0.0,0.0,0.0,0.0,0.0,0.0,0.0,0.0,0.0,0.0,0.0,0.0,0.0,0.0,0.0,0.0,0.0,0.0,0.0,0.0,0.0,0.0,0.0,0.0,0.0,0.0,0.0,0.0,0.0,0.0,0.0,0.0,0.0,0.0,0.0,0.0,0.0,0.0,0.0,0.9459,0.8739,0.8703,0.9457,0.8901,0.8518,0.8374,0.7569,0.7402,0.0,0.0,0.0,0.0,0.0,0.0,0.0,0.0,0.0,0.0,0.0,0.0,0.0,0.0,0.0,0.0,0.0,0.0,0.0,0.0,0.0,0.0,0.0,0.0,0.0,0.0,0.0,0.0,0.0,0.0,0.0,0.0,0.0,0.0,0.0,0.0,0.0,0.0,0.0,0.0,0.0,0.858,0.7943,0.815,0.0,0.0,0.0,0.0,0.675,0.5946,0.0,0.0,0.0,0.0,0.0,0.0,0.0,0.0,0.0,0.0,0.0,0.0,0.0,0.0,0.0,0.0,0.0,0.0,0.0,0.0,0.0,0.0,0.0,0.0,0.0,0.0,0.0,0.0,0.0,0.0,0.0,0.0,0.0,0.0,0.0,0.0,0.0,0.0,0.0,0.0,0.0,0.0,0.0,0.0,0.0,0.0,0.0,0.0,0.0,0.0,0.0,0.0,0.0,0.0,0.0,0.0,0.9915,0.9366,0.9029,0.8882,0.8812,0.8502,0.799,0.7691,0.7754,0.0,0.0,0.0,0.0,0.0,0.0,0.0,0.0,0.0,0.0,0.0,0.0,0.0,0.0,0.0,0.0,0.0,0.0,0.0,0.0,0.0,0.0,0.0,0.0,0.0,0.0,0.0,0.0,0.0,0.0,0.0,0.0,0.0,0.0,0.0,0.0,0.0,0.0,0.0,0.0,0.0,0.8243,0.8315,0.8368,0.8374,0.0,0.0,0.723,0.7235,0.6164,0.0,0.0,0.0,0.0,0.0,0.0,0.0,0.0,0.0,0.0,0.0,0.0,0.0,0.0,0.0,0.0,0.0,0.0,0.0,0.0,0.0,0.0,0.0,0.0,0.0,0.0,0.0,0.0,0.0,0.0,0.0,0.0,0.0,0.0,0.0,0.0,0.0,0.0,0.0,0.0,0.0,0.0,0.0,0.0,0.0,0.0,0.0,0.0,0.0,0.0,0.0,0.0,0.0,0.0,0.0,0.9527,0.9972,0.9217,0.8908,0.9133,0.8913,0.8626,0.8249,0.7464,0.7483,0.0,0.0,0.0,0.0,0.0,0.0,0.0,0.0,0.0,0.0,0.0,0.0,0.0,0.0,0.0,0.0,0.0,0.0,0.0,0.0,0.0,0.0,0.0,0.0,0.0,0.0,0.0,0.0,0.0,0.0,0.0,0.0,0.0,0.0,0.0,0.0,0.0,0.0,0.0,0.0,0.0,0.0,0.8321,0.8533,0.0,0.0,0.0,0.7882,0.7359,0.0,0.0,0.0,0.0,0.0,0.0,0.0,0.0,0.0,0.0,0.0,0.0,0.0,0.0,0.0,0.0,0.0,0.0,0.0,0.0,0.0,0.0,0.0,0.0,0.0,0.0,0.0,0.0,0.0,0.0,0.0,0.0,0.0,0.0,0.0,0.0,0.0,0.0,0.0,0.0,0.0,0.0,0.0,0.0,0.0,0.0,0.0,0.0,0.0,0.0,0.0,0.0,0.0,0.0,0.0,0.0,0.0,0.9942,0.9012,0.8721,0.9146,0.8998,0.8796,0.8531,0.7579,0.0,0.0,0.0,0.0,0.0,0.0,0.0,0.0,0.0,0.0,0.0,0.0,0.0,0.0,0.0,0.0,0.0,0.0,0.0,0.0,0.0,0.0,0.0,0.0,0.0,0.0,0.0,1.0899,0.0,0.0,0.0,0.0,0.0,0.0,0.0,0.0,0.0,0.0,0.0,0.0,0.0,0.0,0.8721,0.8495,0.8697,0.8798,0.0,0.0,0.8282,0.7436,0.6941,0.6445,0.0,0.0,0.0,0.0,0.0,0.0,0.0,0.0,0.0,0.0,0.0,0.0,0.0,0.0,0.0,0.0,0.0,0.0,0.0,0.0,0.0,0.0,0.0,0.0,0.0,0.0,0.0,0.0,0.0,0.0,0.0,0.0,0.0,0.0,0.0,0.0,0.0,0.0,0.0,0.0,0.0,0.0,0.0,0.0,0.0,0.0,0.0,0.0,0.0,0.0,0.0,0.0,0.0,0.0,0.0,0.9933,0.9021,0.8526,0.8575,0.9031,0.9044,0.862,0.8529,0.8568,0.0,0.0,0.0,0.0,0.0,0.0,0.0,0.0,0.0,0.0,0.0,0.0,0.0,0.0,0.0,0.0,0.0,0.0,0.0,0.0,0.0,0.0,0.0,0.0,0.0,0.0,0.0,0.0,0.0,0.0,0.0,0.0,0.0,0.0,0.0,0.0,0.0,0.0,0.0,0.0,0.0,0.887,0.9079,0.8756,0.8639,0.0,0.0,0.8177,0.7376,0.6996,0.6459,0.5899,0.0,0.0,0.0,0.0,0.0,0.0,0.0,0.0,0.0,0.0,0.0,0.0,0.0,0.0,0.0,0.0,0.0,0.0,0.0,0.0,0.0,0.0,0.0,0.0,0.0,0.0,0.0,0.0,0.0,0.0,0.0,0.0,0.0,0.0,0.0,0.0,0.0,0.0,0.0,0.0,0.0,0.0,0.0,0.0,0.0,0.0,0.0,0.0,0.0,0.0,0.0,0.0,0.0,0.9772,1.0331,0.9142,0.8778,0.9317,0.9315,0.9232,0.9028,0.8753,0.8739,0.0,0.0,0.0,0.0,0.0,0.0,0.0,0.0,0.0,0.0,0.0,0.0,0.0,0.0,0.0,0.0,0.0,0.0,0.0,0.0,0.0,0.0,0.0,0.0,0.0,0.0,0.0,0.0,1.1211,1.0994,1.0976,0.0,0.0,0.0,0.0,0.0,0.0,0.0,0.0,0.0,0.0,0.9143,0.9442,0.9341,0.0,0.0,0.9485,0.9022,0.7739,0.7494,0.7057,0.5894,0.5576,0.0,0.0,0.0,0.0,0.0,0.0,0.0,0.0,0.0,0.0,0.0,0.0,0.0,0.0,0.0,0.0,0.0,0.0,0.0,0.0,0.0,0.0,0.0,0.0,0.0,0.0,0.0,0.0,0.0,0.0,0.0,0.0,0.0,0.0,0.0,0.0,0.0,0.0,0.0,0.0,0.0,0.0,0.0,0.0,0.0,0.0,0.0,0.0,0.0,0.0,0.0,0.0,1.0058,1.0628,0.9338,0.9021,0.9707,0.9591,0.9522,0.9516,0.9229,0.92,0.0,0.0,0.0,0.0,0.0,0.0,0.0,0.0,0.0,0.0,0.0,0.0,0.0,0.0,0.0,0.0,0.0,0.0,0.0,0.0,0.0,0.0,0.0,0.0,0.0,0.0,0.0,0.0,1.1547,1.1177,1.0967,0.0,0.0,0.0,0.0,0.0,0.0,0.0,0.0,0.0,0.0,0.9673,0.98,0.9813,0.9846,0.9927,0.9859,0.9361,0.8096,0.7833,0.7313,0.5987,0.0,0.0,0.0,0.0,0.0,0.0,0.0,0.0,0.0,0.0,0.0,0.0,0.0,0.0,0.0,0.0,0.0,0.0,0.0,0.0,0.0,0.0,0.0,0.0,0.0,0.0,0.0,0.0,0.0,0.0,1.4359,0.0,0.0,0.0,0.0,0.0,0.0,0.0,0.0,0.0,0.0,0.0,0.0,0.0,0.0,0.0,0.0,0.0,0.0,0.0,0.0,0.0,0.0,1.0618,1.0689,0.9618,0.9183,0.9369,0.9732,1.0012,1.007,1.0069,1.0231,1.0562,0.0,0.0,0.0,0.0,0.0,0.0,0.0,0.0,0.0,0.0,0.0,0.0,0.0,0.0,0.0,0.0,0.0,0.0,0.0,0.0,0.0,0.0,0.0,0.0,0.0,0.0,1.1826,1.1544,1.1322,0.0,0.0,0.0,0.0,0.0,0.0,0.0,0.0,0.0,0.0,0.9987,1.0428,1.0147,1.0114,1.0221,1.0488,0.9737,0.8942,0.8483,0.7742,0.6993,0.0,0.0,0.0,0.0,0.0,0.0,0.0,0.0,0.0,0.0,0.0,0.0,0.0,0.0,0.0,0.0,0.0,0.0,0.0,0.0,0.0,0.0,0.0,0.0,0.0,0.0,0.0,1.4987,1.5161,0.0,0.0,0.0,0.0,0.0,0.0,0.0,0.0,0.0,0.0,0.0,1.3628,1.348,0.0,0.0,0.0,0.0,0.0,0.0,0.0,0.0,0.0,0.0,0.0,0.0,1.0728,1.0912,0.9718,0.9449,1.013,1.0082,1.0189,1.0561,1.055,1.0754,1.1135,0.0,0.0,0.0,0.0,0.0,0.0,0.0,0.0,0.0,0.0,0.0,0.0,0.0,0.0,0.0,0.0,0.0,0.0,0.0,0.0,0.0,0.0,0.0,0.0,0.0,1.2892,0.0,0.0,0.0,0.0,0.0,0.0,0.0,0.0,0.0,0.0,0.0,0.9442,0.9728,1.008,1.0294,1.0394,1.0581,1.0668,0.0,0.0,0.0,0.0,0.0,0.0,0.0,0.0,0.0,0.0,0.0,0.0,0.0,0.0,0.4341,0.4033,0.4071,0.4293,0.4461,0.0,0.0,0.0,0.0,0.0,0.0,0.0,0.0,0.0,0.0,0.0,0.0,0.0,0.0,1.5002,0.0,1.492,0.0,0.0,0.0,0.0,0.0,0.0,0.0,0.0,1.3947,1.3782,1.3514,1.3399,1.3126,0.0,1.233,1.2354,0.0,0.0,0.0,0.0,0.0,0.0,0.0,0.0,1.0956,1.1042,1.0126,0.999,1.0705,1.0487,1.0563,1.1042,1.1113,1.1247,1.1388,1.1709,1.2378,0.0,0.0,0.0,0.0,0.0,0.0,0.0,0.0,0.0,0.0,0.0,0.0,0.0,0.0,0.0,0.0,0.0,0.0,0.0,0.0,0.0,0.0,0.0,1.2891,0.0,0.0,0.0,0.0,0.0,0.0,0.0,0.0,0.0,1.0354,0.9925,0.9918,1.0361,1.0323,1.0403,1.0843,0.0,0.0,0.0,0.0,0.0,0.0,0.0,0.6801,0.643,0.6569,0.6671,0.6404,0.5962,0.5534,0.5389,0.0,0.0,0.39,0.4204,0.4508,0.4617,0.5166,0.5652,0.5845,0.6128,0.6361,0.0,0.0,0.0,0.0,0.0,0.0,0.0,0.0,1.4747,1.5058,0.0,1.4626,0.0,0.0,0.0,0.0,0.0,1.4862,0.0,0.0,1.3913,1.376,1.3659,1.3659,1.3408,1.2945,1.284,1.2876,1.2934,1.2484,0.0,0.0,0.0,0.0,0.0,0.0,1.1367,1.1092,1.0784,1.0736,1.0971,1.0971,1.1132,1.1474,1.1697,1.1692,1.1457,1.206,1.2745,1.3505,1.3529,0.0,0.0,0.0,0.0,0.0,0.0,0.0,0.0,0.0,0.0,0.0,0.0,0.0,0.0,0.0,0.0,0.0,0.0,0.0,0.0,1.2676,0.0,0.0,0.0,0.0,0.0,0.0,0.0,0.0,0.0,0.0,1.0679,1.0858,1.107,1.0943,0.0,0.0,0.0,0.0,1.0611,1.0699,0.9325,0.8414,0.8847,0.7489,0.6547,0.6825,0.0,0.0,0.6948,0.6358,0.5847,0.5627,0.5225,0.4833,0.492,0.4854,0.4937,0.5411,0.5527,0.5724,0.6001,0.6215,0.6378,1.6227,0.0,0.0,0.0,0.0,1.6087,1.6283,1.6088,1.5774,1.5627,1.5685,1.5488,0.0,0.0,0.0,0.0,0.0,0.0,1.521,1.5039,1.5039,1.482,1.4475,1.4337,1.4074,1.3599,1.342,1.3459,1.373,1.3587,1.3332,1.3058,0.0,0.0,0.0,0.0,1.1826,1.1236,1.1116,1.1052,1.0981,1.0971,1.1142,1.1485,1.1866,1.2039,1.1893,1.2438,1.3138,1.3997,1.406,0.0,0.0,0.0,0.0,0.0,0.0,0.0,0.0,0.0,0.0,0.0,0.0,0.0,0.0,0.0,0.0,0.0,0.0,0.0,1.2627,1.2529,1.2529,0.0,0.0,0.0,0.0,0.0,0.0,0.0,0.0,0.0,1.2646,1.2032,1.1563,0.0,0.0,1.1129,1.0958,1.0797,1.0705,1.0782,0.9445,0.0,0.8834,0.761,0.6667,0.6945,0.7101,0.7241,0.7476,0.6768,0.6101,0.6054,0.5934,0.5717,0.5448,0.5261,0.5136,0.5018,0.546,0.5911,0.6036,0.616,0.6388,1.6797,1.6219,1.7115,1.6859,1.584,1.641,1.653,1.6239,1.6048,1.6042,1.6179,1.5979,1.5755,1.5575,1.5958,0.0,0.0,0.0,1.5633,1.54,1.5387,1.5184,1.4877,1.4787,1.4592,1.4209,1.4066,1.4066,1.4265,1.4197,1.397,1.3564,0.0,0.0,1.2882,1.2826,1.2511,1.1944,1.1923,1.1869,1.1744,1.1773,1.1823,1.2051,1.2352,1.2563,1.2697,1.3023,1.3586,1.4538,1.4574,1.4814,0.0,0.0,0.0,0.0,0.0,0.0,0.0,0.0,0.0,0.0,0.0,1.504,1.5152,0.0,0.0,0.0,1.2997,1.2666,1.2431,1.2372,0.0,0.0,0.0,0.0,0.0,0.0,0.0,1.3296,1.3644,1.3859,1.3676,1.322,1.2658,1.2004,1.1774,1.1561,1.129,0.0,1.0953,1.0992,0.9678,0.88,0.8969,0.7771,0.6864,0.7155,0.7253,0.7358,0.7617,0.7096,0.6707,0.6707,0.6707,0.6553,0.6167,0.6019,0.5831,0.5458,0.5754,0.6135,0.627,0.6437,0.6623,1.7389,1.7122,1.7222,1.6883,1.6281,1.6464,1.6138,1.5504,1.6035,1.6402,1.6624,1.6195,1.6302,1.6823,1.6744,0.0,1.644,1.6413,1.6061,1.5453,1.5364,1.5286,1.5182,1.5145,1.5003,1.4831,1.478,1.47,1.4609,1.4489,1.4376,1.4268,1.4312,1.4114,1.3696,1.3585,1.3347,1.3015,1.2964,1.2922,1.2889,1.2933,1.2933,1.2889,1.2933,1.3184,1.3593,1.3627,1.4075,1.4935,1.5049,1.5289,1.5756,0.0,0.0,0.0,0.0,0.0,0.0,0.0,0.0,0.0,0.0,0.0,0.0,0.0,0.0,0.0,1.2657,0.0,1.2283,1.2184,0.0,0.0,0.0,1.277,1.277,1.3121,1.3378,1.3341,0.0,0.0,1.3928,1.4268,1.4019,1.2789,1.2348,1.2115,1.2036,1.1741,1.1436,1.124,0.9933,0.909,0.9166,0.7968,0.7072,0.7379,0.7504,0.7435,0.7459,0.7443,0.7431,0.7439,0.7496,0.7326,0.7015,0.685,0.6791,0.6395,0.6328,0.645,0.6795,0.6907,0.7263,1.8081,1.7925,1.7982,1.7385,1.6448,1.6769,1.6751,1.6684,1.7277,1.7327,1.7011,1.7671,1.8299,1.8873,1.8685,1.8604,1.8535,1.8136,1.7818,1.7505,1.6712,1.6498,1.6791,1.6303,1.6006,1.5807,1.5538,1.5353,1.5353,1.5037,1.5095,1.5394,1.5405,1.4754,1.3484,1.3715,1.357,1.2942,1.3314,1.3324,1.2922,1.3314,1.3324,1.2911,1.3314,1.355,1.3627,1.4013,1.4437,1.4959,1.5384,1.566,1.5792,1.5836,0.0,0.0,0.0,0.0,0.0,0.0,0.0,0.0,0.0,1.4269,1.4201,0.0,1.3104,0.0,1.2569,1.2274,1.2184,1.2135,0.0,0.0,1.2892,1.3149,1.3149,1.3782,1.3987,1.345,1.3938,1.4241,1.3987,1.4264,1.4315,1.3755,1.3685,1.3364,1.265,1.2244,1.1992,1.1533,1.0587,0.9763,0.9383,0.817,0.7173,0.7186,0.7209,0.7255,0.7303,0.7385,0.7458,0.745,0.7496,0.7419,0.718,0.7103,0.7022,0.6791,0.6637,0.6802,0.761,0.7773,0.809,1.8824,1.8516,1.8516,1.8288,1.7926,1.7883,1.797,1.8229,1.86,1.8508,1.8143,1.8714,1.9327,1.9948,1.9838,1.9698,1.9614,1.9275,1.8943,1.8579,1.795,1.7524,1.7305,1.6871,1.6465,1.61,1.578,1.5591,1.557,1.5475,1.5508,1.5674,1.5864,1.5452,1.4467,1.4584,1.4584,1.4369,1.4321,1.4187,1.3925,1.3969,1.386,1.3598,1.3849,1.4083,1.4281,1.4534,1.4903,1.5317,1.5624,1.5792,1.5792,1.5881,1.569,0.0,0.0,0.0,0.0,0.0,0.0,0.0,0.0,0.0,0.0,0.0,1.2871,1.2627,1.2541,1.2443,1.2383,1.2507,1.27,1.2929,1.3314,1.3552,1.3561,1.4121,1.4364,1.397,1.4405,1.4638,1.4294,1.4541,1.4787,1.4781,1.4826,1.4317,1.3132,1.2789,1.2636,1.2011,1.1126,1.0183,0.9276,0.8012,0.7134,0.7058,0.7003,0.7036,0.7126,0.7289,0.7418,0.7344,0.7466,0.75,0.7277,0.7184,0.7257,0.7625,0.7625,0.7778,0.8228,0.8761,0.9281,1.9499,1.9107,1.9107,1.9466,1.9966,1.9533,1.9485,1.9823,1.9867,1.9851,1.9772,1.9705,2.0073,2.0783,2.0614,2.0499,2.0428,2.0198,1.9758,1.9186,1.8878,1.8265,1.738,1.7168,1.6715,1.6118,1.5825,1.5702,1.5601,1.5762,1.5751,1.5635,1.6009,1.6174,1.6088,1.5881,1.5836,1.6081,1.5477,1.5203,1.5192,1.4722,1.446,1.4518,1.4463,1.4605,1.5017,1.5062,1.5289,1.5748,1.5748,1.5792,1.5792,1.5856,1.5957,0.0,1.568,0.0,0.0,0.0,0.0,0.0,0.0,0.0,0.0,1.2958,1.2695,1.2398,1.2573,1.2733,1.2788,1.3075,1.3314,1.3378,1.3681,1.3919,1.4029,1.4332,1.4533,1.4519,1.4891,1.5017,1.4662,1.4891,1.5311,1.5661,1.5689,1.5042,1.3608,1.3472,1.3353,1.2445,1.1552,1.0404,0.8983,0.7859,0.7188,0.6968,0.6843,0.6824,0.6883,0.7119,0.7304,0.727,0.7473,0.7576,0.7281,0.7334,0.7706,0.8533,0.8903,0.919,0.916,0.9637,1.0329,1.9803,2.0047,2.014,2.0735,2.1653,2.156,2.1035,2.0302,2.0655,2.1186,2.1697,2.1297,2.1814,2.2891,2.2138,2.1957,2.2167,2.1398,2.072,2.008,1.9094,1.8519,1.8314,1.7618,1.7159,1.6823,1.6532,1.6287,1.6052,1.5892,1.5994,1.6293,1.6392,1.6798,1.7529,0.0,0.0,0.0,1.5542,1.5644,1.5633,1.5225,1.4974,1.4963,1.458,0.0,1.4743,1.48,1.5017,1.5513,1.5558,0.0,0.0,0.0,0.0,0.0,0.0,0.0,0.0,0.0,0.0,0.0,1.3491,1.3392,1.2852,1.2578,1.2463,1.2628,1.2669,1.2862,1.314,1.325,1.3424,1.3736,1.3846,1.4139,1.4763,1.4671,1.4565,1.4691,1.5099,1.525,1.5053,1.5293,1.5754,1.6263,1.6086,1.5455,1.4473,1.4324,1.381,1.2512,1.1484,1.0507,0.9296,0.8318,0.7374,0.6785,0.6589,0.6628,0.6715,0.6837,0.6955,0.7055,0.7227,0.7386,0.7415,0.8089,0.8694,0.8922,1.0185,1.1236,1.0828,1.0574,1.065,2.0615,0.0,2.123,2.189,0.0,2.2955,2.2936,2.2817,2.2164,2.2342,2.3041,2.2705,2.3172,2.4131,2.3251,2.3052,2.3378,2.2496,2.1738,2.1076,2.0186,1.9446,1.8734,1.8116,1.7565,1.7216,1.6982,1.6784,1.6658,1.6621,1.6714,1.695,1.7431,1.7868,1.8198,1.7977,1.7372,1.6417,1.6482,1.6384,1.5954,1.5315,1.4839,1.4564,1.441,0.0,0.0,0.0,0.0,0.0,0.0,0.0,0.0,1.5513,0.0,1.5635,1.4926,1.4433,1.434,1.3873,1.356,1.3432,1.3686,1.3679,1.325,1.3077,1.3006,1.3009,1.3149,1.3351,1.3561,1.3763,1.4079,1.4495,1.476,1.5181,1.5897,1.5821,1.5723,1.5966,1.6069,1.6008,1.5647,1.5745,1.6031,1.6299,1.6215,1.5751,1.5137,1.4773,1.4027,1.2512,1.1484,1.0582,0.99,0.8689,0.765,0.7125,0.6677,0.6479,0.6468,0.6642,0.686,0.6863,0.7062,0.7282,0.7423,0.8169,0.9074,0.9674,1.087,1.1745,1.1501,1.1389,1.1126,2.1855,2.2474,2.2446,2.3169,2.4334,2.4209,2.4611,2.5322,0.0,0.0,0.0,2.4081,2.4425,2.5179,2.4132,2.3867,2.4218,2.3314,2.2523,2.1807,2.1456,2.0539,1.9232,1.878,1.8307,1.77,1.7464,1.7326,1.7287,1.7531,1.7601,1.7588,1.84,1.8771,1.8563,1.8654,1.8394,1.7922,1.751,1.7045,1.6339,1.5453,1.4735,1.4275,1.4178,1.428,1.4523,1.4569,1.4789,1.5062,1.5334,1.5468,1.5558,1.5614,1.5736,1.578,1.4994,1.4485,1.449,1.3793,1.3502,1.3866,1.4062,1.4013,1.3765,1.3746,1.3631,1.3451,1.3746,1.3958,1.3983,1.4304,1.4762,1.5332,1.577,1.6326,1.7212,1.7226,1.7244,1.7553,1.7342,1.699,1.6592,1.6331,1.6243,1.6227,1.6179,1.5937,1.544,1.4808,1.389,1.2519,1.1552,1.0875,1.034,0.914,0.7936,0.7492,0.6802,0.6338,0.6355,0.652,0.6616,0.6599,0.6984,0.7219,0.7435,0.8318,0.9221,1.0265,1.1174,1.1717,1.1499,1.1455,1.0972,2.3543,2.4155,2.4155,2.4875,2.6016,2.5325,2.5227,2.554,2.5407,2.5817,2.6475,2.568,2.5935,2.692,2.4792,2.4251,2.4746,2.348,2.2523,2.1821,2.2136,2.1546,2.0231,2.0175,1.9744,1.8992,1.8548,1.8242,1.8051,1.833,1.8312,1.8089,1.8518,1.8823,1.9056,1.9473,1.9372,1.8753,1.792,1.7392,1.7307,1.5999,1.5265,1.5169,1.4424,1.4093,1.4233,1.4269,1.4501,1.5062,1.5153,1.5334,1.5691,1.5379,1.5198,1.521,1.459,1.4112,1.3805,1.3882,1.4194,1.4615,1.4668,1.4486,1.4028,1.3873,1.3808,1.3989,1.4044,1.4153,1.4368,1.4469,1.5034,1.6039,1.6267,1.6911,1.8426,1.8451,1.8552,1.8949,1.8383,1.7792,1.7719,1.692,1.6429,1.6321,1.6181,1.5776,1.5347,1.4371,1.3361,1.2519,1.1929,1.1329,1.0645,0.9448,0.8394,0.7557,0.6872,0.6335,0.6261,0.6366,0.6454,0.6567,0.6669,0.7126,0.7931,0.9064,0.9744,1.0415,1.1248,1.152,1.0496,0.9974,0.9347,2.4597,2.4917,2.5096,2.5747,2.6594,2.6768,2.7,2.727,2.7255,2.7056,2.6717,2.6614,2.692,2.7259,2.5588,2.4912,2.5167,2.3792,2.2768,2.2085,2.238,2.183,2.0727,2.0825,2.0573,1.9851,1.9462,1.9147,1.9081,1.9438,1.9587,1.9444,1.9837,2.0229,2.0607,2.0156,1.9566,1.8892,1.8222,1.7588,1.6927,1.6079,1.5374,1.4839,1.4447,1.4217,1.4104,1.4186,1.4408,1.488,1.5017,1.5244,1.5614,1.5525,1.5435,1.5222,1.4942,1.4524,1.4042,1.4373,1.4735,1.5044,1.5292,1.5296,1.4929,1.4685,1.4544,1.46,1.4571,1.4646,1.4775,1.5079,1.5704,1.6755,1.7441,1.8479,1.9756,1.9683,1.9543,1.9934,1.9171,1.8559,1.8757,1.7831,1.7246,1.7359,1.6743,1.5909,1.5608,1.4463,1.3479,1.2983,1.2298,1.1626,1.1099,1.0132,0.9155,0.8241,0.748,0.6795,0.6412,0.6335,0.6335,0.6412,0.6563,0.7169,0.8075,0.8765,0.9523,1.0415,1.0789,1.0726,0.9868,0.8665,0.7322,2.5756,2.5745,2.6066,2.6605,2.7182,2.8071,2.8542,2.8637,2.8606,2.8077,2.7219,2.751,2.7721,2.7719,2.6332,2.5712,2.5555,2.4193,2.324,2.2791,2.279,2.2351,2.1539,2.1684,2.1398,2.0769,2.0446,2.0226,2.0226,2.0594,2.0693,2.0644,2.0989,2.1307,2.1525,2.0515,1.9587,1.8754,1.8382,1.7627,1.655,1.6071,1.5425,1.4676,1.4518,1.4345,1.4153,1.4251,1.4466,1.4743,1.5062,1.5289,1.5558,1.5736,1.5748,1.5482,1.5518,1.5411,1.5005,1.4986,1.5169,1.5447,1.5703,1.5856,1.573,1.5508,1.5274,1.5098,1.5186,1.5245,1.5332,1.5926,1.6701,1.775,1.8762,1.9938,2.1211,2.0991,2.0796,2.1091,2.0176,1.9607,1.9599,1.8877,1.8235,1.7946,1.7027,1.6074,1.5566,1.4498,1.3696,1.3287,1.2384,1.17,1.1552,1.0663,0.969,0.9003,0.8322,0.7633,0.7092,0.6846,0.6659,0.6649,0.6725,0.7247,0.7862,0.8367,0.8959,0.9739,1.0074,0.9851,0.9099,0.7739,0.62,2.7527,2.7238,2.7425,2.7746,2.8275,2.9044,2.9075,2.8653,2.8889,2.8997,2.8777,2.8529,2.8576,2.8685,2.7096,2.6507,2.6635,2.4749,2.3999,2.4212,2.3991,2.3673,2.3362,2.3325,2.2763,2.186,2.1754,2.1466,2.1138,2.1442,2.142,2.1034,2.1334,2.126,2.0661,2.0445,1.9692,1.8286,1.812,1.7674,1.6964,1.6002,1.5464,1.5566,1.4738,1.4403,1.4605,1.4588,1.4708,1.5062,1.5334,1.5558,1.5748,1.5913,1.5944,1.5937,1.6409,1.6695,1.6534,1.578,1.5467,1.5803,1.5931,1.5972,1.5972,1.5914,1.5682,1.5439,1.572,1.5941,1.5904,1.6885,1.8057,1.9236,2.0061,2.1102,2.2177,2.2592,2.2652,2.2713,2.1547,2.1129,2.0866,1.9964,1.8923,1.7968,1.6896,1.5978,1.5424,1.4417,1.3555,1.3126,1.2243,1.1533,1.1329,1.0594,0.9992,0.969,0.9079,0.8537,0.8197,0.801,0.789,0.7013,0.7009,0.7228,0.7707,0.8089,0.8289,0.8739,0.89,0.8573,0.7744,0.714,0.6367,2.8746,2.8301,2.8463,2.8887,2.9437,2.9785,2.9738,2.9548,2.9706,2.9532,2.9153,2.9106,2.9106,2.9028,2.7876,2.7381,2.7242,2.5801,2.5003,2.4863,2.4646,2.4235,2.3754,2.3916,2.3349,2.233,2.2399,2.2219,2.1852,2.2385,2.2961,2.3237,2.2781,2.2344,2.1946,2.1032,1.996,1.8916,1.839,1.7735,1.7026,1.6222,1.5639,1.5308,1.4904,1.4629,1.4542,1.4576,1.4846,1.5289,1.5468,1.5647,1.5913,1.5988,1.5944,1.5828,1.6266,1.6871,1.7533,1.7126,1.695,1.7157,1.7224,1.7157,1.7101,1.7112,1.6933,1.6708,1.6549,1.6757,1.7367,1.8215,1.9218,2.0311,2.1045,2.1824,2.2652,2.2266,2.2027,2.2405,2.1642,2.1235,2.1448,2.0607,1.9378,1.8155,1.6893,1.586,1.5201,1.4163,1.3447,1.3127,1.2472,1.1893,1.1434,1.1031,1.0438,0.9986,0.9614,0.9291,0.8599,0.8384,0.7979,0.7223,0.6993,0.713,0.747,0.7231,0.72,0.7695,0.769,0.7377,0.7023,0.6736,0.5978,2.9635,2.9061,2.9326,2.9861,3.0511,3.0577,3.0498,3.0323,3.0228,2.9816,2.9245,2.9441,2.9441,2.9287,2.8674,2.8302,2.7966,2.6796,2.6086,2.5756,2.5277,2.4812,2.4357,2.4488,2.404,2.3181,2.3293,2.3076,2.2646,2.3437,2.4155,2.4396,2.3664,2.316,2.2786,2.1439,2.0325,1.9471,1.879,1.7983,1.7147,1.6598,1.6054,1.5475,1.5049,1.4845,1.4847,1.4807,1.4983,1.5501,1.5778,1.6041,1.6264,1.6308,1.6325,1.6351,1.6654,1.7289,1.8263,1.8093,1.7972,1.8093,1.8093,1.8038,1.7972,1.7972,1.8052,1.8189,1.7846,1.8036,1.8601,1.9571,2.0447,2.126,2.1834,2.2439,2.2797,2.2172,2.2031,2.2326,2.1976,2.1506,2.1844,2.0887,1.9445,1.8435,1.6833,1.5493,1.479,1.3819,1.3059,1.2929,1.2443,1.2046,1.1617,1.1458,1.1021,1.0341,0.9952,0.9733,0.8841,0.868,0.8161,0.7538,0.7115,0.6627,0.6384,0.6037,0.599,0.673,0.6838,0.646,0.6402,0.6192,0.5388,3.0177,2.931,3.005,3.0723,3.1263,3.1404,3.115,3.0542,3.0307,2.991,2.9473,2.9515,2.971,2.993,2.9403,2.9207,2.9082,2.7596,2.7122,2.7349,2.609,2.5554,2.5741,2.5578,2.4964,2.4116,2.445,2.4444,2.4014,2.4583,2.4399,2.3553,2.3567,2.3207,2.2494,2.1588,2.0665,1.9758,1.9124,1.8373,1.741,1.7095,1.6784,1.6423,1.5269,1.5038,1.5742,1.5483,1.5426,1.5614,1.6466,1.6916,1.6962,1.7099,1.7401,1.7937,1.8019,1.8259,1.8773,1.8471,1.8201,1.8147,1.8255,1.8147,1.8244,1.8255,1.8616,1.9562,1.9586,1.9547,1.9669,2.0819,2.1786,2.2009,2.2608,2.299,2.3065,2.2902,2.2977,2.299,2.284,2.2526,2.2311,2.0737,1.9422,1.8358,1.6563,1.4917,1.428,1.3416,1.2825,1.2395,1.2119,1.1769,1.1899,1.1748,1.1325,1.0773,1.0428,1.028,0.9857,0.9389,0.8524,0.7619,0.6812,0.6036,0.5218,0.4935,0.5102,0.5477,0.5841,0.5723,0.5477,0.5607,0.4785,3.0621,3.049,3.0368,3.0868,3.1651,3.1164,3.0766,3.0542,3.0433,3.005,2.964,2.9853,3.0113,3.0316,3.0368,3.0182,2.9837,2.8955,2.8622,2.8481,2.7265,2.6549,2.6229,2.5743,2.5025,2.4363,2.4716,2.5022,2.5039,2.5231,2.5078,2.4523,2.3884,2.328,2.2677,2.1714,2.0812,2.0134,1.9329,1.8659,1.8154,1.7235,1.6875,1.7085,1.6288,1.5975,1.6339,1.6499,1.6705,1.6987,1.7311,1.7562,1.7644,1.775,1.8094,1.862,1.871,1.8944,1.9401,1.9331,1.9214,1.9226,1.9214,1.9162,1.9162,1.9239,1.9499,2.0229,2.0742,2.0958,2.1284,2.1865,2.2343,2.268,2.2952,2.3065,2.3062,2.2849,2.2677,2.2857,2.2726,2.2347,2.1753,2.0568,1.9246,1.8093,1.6707,1.5334,1.4146,1.3451,1.3088,1.2783,1.2783,1.2742,1.2005,1.1733,1.1394,1.116,1.083,1.0296,0.9837,0.8725,0.7818,0.683,0.6132,0.5483,0.4677,0.4739,0.4697,0.4739,0.5033,0.4824,0.448,0.4298,0.3433,3.0908,3.1276,3.0876,3.1237,3.2052,3.1322,3.0874,3.0728,3.0557,3.0202,2.9907,3.014,3.0452,3.0675,3.0935,3.0895,3.0493,3.0021,2.9613,2.9271,2.813,2.7253,2.6573,2.5934,2.5218,2.4585,2.4801,2.5188,2.5439,2.5383,2.5244,2.5005,2.3989,2.328,2.2738,2.1639,2.0839,2.0311,1.9609,1.9009,1.8744,1.7719,1.726,1.7488,1.718,1.695,1.6903,1.7102,1.7424,1.787,1.8115,1.8262,1.8407,1.8667,1.8904,1.9106,1.9246,1.9485,1.9787,1.9798,1.9798,1.9811,1.9798,1.9798,1.9798,1.9798,2.0075,2.0668,2.1167,2.1681,2.2008,2.2347,2.2736,2.3002,2.3078,2.3017,2.2992,2.2645,2.2573,2.2579,2.2359,2.1913,2.1376,2.0322,1.9125,1.7862,1.6738,1.5264,1.4172,1.3623,1.3445,1.31,1.3512,1.3477,1.2994,1.2684,1.1485,1.103,1.0918,1.0369,0.9366,0.824,0.7112,0.6138,0.5385,0.4751,0.4436,0.4492,0.4556,0.4489,0.4215,0.4074,0.3489,0.2776,0.196,3.0948,3.1576,3.156,3.1858,3.2397,3.1906,3.1616,3.1104,3.0677,3.0393,3.0199,3.0351,3.0617,3.0975,3.1134,3.1213,3.1083,3.051,3.0117,2.9816,2.8623,2.759,2.6865,2.6215,2.5619,2.498,2.5048,2.5188,2.5494,2.5257,2.5018,2.465,2.3754,2.3088,2.2859,2.1514,2.0646,2.042,1.9868,1.949,1.9167,1.8443,1.7995,1.7926,1.7935,1.7852,1.7537,1.7299,1.7605,1.8234,1.8744,1.9069,1.9231,1.9673,1.9901,1.9506,1.9724,1.9952,1.9926,1.9862,1.9798,1.9747,1.9798,1.9798,1.9798,1.9811,2.0037,2.0614,2.1146,2.1481,2.1669,2.2397,2.2975,2.3053,2.2967,2.2909,2.2836,2.2787,2.2555,2.2247,2.1975,2.1577,2.0933,2.0074,1.9038,1.7829,1.6523,1.5221,1.4442,1.3992,1.3542,1.35,1.3845,1.4055,1.3936,1.3648,1.2079,1.0901,1.0816,1.0447,0.9163,0.7947,0.6794,0.5793,0.5048,0.4428,0.4361,0.442,0.4688,0.4553,0.4074,0.3135,0.2347,0.1617,0.0741,3.1281,3.2314,3.1298,3.1246,3.1808,3.109,3.0669,3.0549,3.0397,3.0336,3.0368,3.074,3.1015,3.1173,3.1368,3.1466,3.1504,3.124,3.0891,3.041,2.9565,2.8561,2.761,2.673,2.5934,2.5467,2.5508,2.5674,2.5688,2.5481,2.5257,2.4878,2.3989,2.328,2.2859,2.1651,2.0903,2.0571,2.0064,1.9792,1.9576,1.8803,1.838,1.8474,1.8205,1.8143,1.8618,1.8721,1.8943,1.9258,1.9573,1.9674,1.9687,1.9876,1.994,1.975,1.9864,1.9888,1.972,1.9668,1.9604,1.9565,1.9617,1.9656,1.9656,1.9759,2.0049,2.0618,2.0961,2.123,2.1686,2.228,2.2619,2.2409,2.2673,2.2848,2.2678,2.2408,2.2149,2.1963,2.1388,2.0744,2.0225,1.9684,1.907,1.772,1.6931,1.6271,1.5151,1.4533,1.4188,1.3969,1.4365,1.464,1.4305,1.4143,1.329,1.1903,1.139,1.0666,0.9292,0.7974,0.6708,0.5562,0.4767,0.4392,0.4331,0.4486,0.4755,0.401,0.3066,0.2134,0.1269,0.0201,-0.0873,3.1349,3.2307,3.1108,3.094,3.1477,3.0586,3.0274,3.0408,3.0639,3.0716,3.0783,3.1318,3.1467,3.1397,3.1521,3.1579,3.1617,3.1671,3.1466,3.0988,3.0227,2.931,2.8292,2.7063,2.6351,2.6056,2.5948,2.5948,2.6042,2.5702,2.5369,2.5048,2.3989,2.3207,2.2798,2.1827,2.1019,2.0775,2.0453,2.0324,2.0189,1.9364,1.8988,1.9152,1.87,1.8703,1.9251,1.9565,1.9823,1.9914,1.9978,1.9926,1.9811,1.9926,1.9978,1.9926,1.9875,1.9823,1.9617,1.9473,1.9408,1.942,1.9408,1.95,1.9617,1.9759,2.0064,2.0381,2.0803,2.1097,2.1453,2.2109,2.2317,2.1984,2.2358,2.2445,2.2173,2.1851,2.1448,2.1167,2.0648,2.0046,1.9563,1.9321,1.8871,1.7666,1.7229,1.6831,1.5581,1.505,1.4735,1.4629,1.4998,1.4951,1.4541,1.4393,1.4297,1.3224,1.2197,1.1032,0.9789,0.8513,0.7198,0.581,0.483,0.4571,0.4516,0.4772,0.4885,0.3535,0.212,0.0799,-0.0333,-0.1882,-0.2902,3.1316,3.1691,3.1058,3.1041,3.1361,3.0596,3.0467,3.0809,3.1288,3.1441,3.151,3.1968,3.2043,3.1649,3.1682,3.1617,3.1617,3.1709,3.1726,3.1372,3.0673,2.9783,2.8747,2.7419,2.6759,2.6707,2.6172,2.6026,2.6244,2.5631,2.5342,2.5048,2.3917,2.3088,2.2798,2.1839,2.1296,2.1285,2.1031,2.1019,2.1101,2.0217,1.983,1.9995,1.9562,1.9348,1.9648,1.9822,1.999,2.0131,1.9978,1.9823,1.9811,1.9875,1.9875,1.9875,1.9811,1.9656,1.95,1.9146,1.904,1.9263,1.9251,1.9344,1.9604,1.9875,2.0105,2.0194,2.0615,2.0987,2.1217,2.1779,2.1985,2.1727,2.1909,2.1839,2.1285,2.1221,2.0946,2.0268,1.9929,1.9594,1.8912,1.8807,1.8355,1.7706,1.7103,1.6406,1.5766,1.5453,1.5336,1.5441,1.5552,1.5604,1.5322,1.5192,1.5025,1.4501,1.3286,1.1888,1.0096,0.8652,0.7464,0.6022,0.481,0.4618,0.454,0.4669,0.42,0.2931,0.137,-0.0396,-0.1935,-0.3295,-0.425,3.1834,3.1951,3.1658,3.1266,3.0967,3.0618,3.0925,3.1491,3.1801,3.2169,3.2596,3.2547,3.2412,3.2269,3.1912,3.1746,3.1746,3.18,3.18,3.1671,3.124,3.0084,2.8871,2.7966,2.7312,2.6909,2.6358,2.6078,2.6226,2.5338,2.497,2.4991,2.4092,2.3458,2.3138,2.2347,2.1999,2.1862,2.1577,2.1439,2.1409,2.0932,2.0795,2.1031,2.036,2.0172,2.0376,2.0076,1.9862,1.9862,1.95,1.9356,1.946,1.9448,1.9448,1.9512,1.9448,1.9291,1.904,1.8721,1.8667,1.8946,1.9186,1.9408,1.9875,2.0118,2.0321,2.0385,2.0501,2.0577,2.0759,2.1219,2.1443,2.131,2.133,2.1285,2.1031,2.0828,2.0568,2.0328,1.9794,1.923,1.8796,1.8468,1.8154,1.7435,1.6988,1.6714,1.6068,1.5674,1.5557,1.5712,1.5865,1.61,1.6145,1.6002,1.5829,1.5549,1.4417,1.2907,1.0664,0.8333,0.7185,0.5996,0.461,0.4088,0.4027,0.4056,0.3103,0.212,0.0521,-0.1194,-0.2729,-0.4154,-0.4964,3.1486,3.1183,3.1079,3.0931,3.074,3.0392,3.0716,3.1433,3.1884,3.2403,3.2814,3.2706,3.2588,3.262,3.2015,3.1746,3.18,3.18,3.18,3.1726,3.1295,3.0385,2.93,2.8622,2.7913,2.7166,2.6652,2.6298,2.6037,2.5392,2.5094,2.4881,2.435,2.3839,2.345,2.2848,2.2494,2.2432,2.2273,2.2137,2.2051,2.1464,2.1448,2.1592,2.1076,2.0693,2.0709,2.0326,1.9905,1.9522,1.9093,1.8946,1.8934,1.8987,1.904,1.9158,1.9146,1.9105,1.8893,1.8614,1.8614,1.8987,1.9319,1.9722,2.0207,2.0673,2.1046,2.1215,2.1128,2.129,2.1517,2.1535,2.1211,2.0923,2.0711,2.0518,2.0377,2.0259,2.0095,1.9823,1.9356,1.8866,1.8458,1.8143,1.7625,1.7077,1.6833,1.656,1.6168,1.5944,1.5751,1.5871,1.585,1.584,1.5923,1.5785,1.5542,1.534,1.441,1.3103,1.1383,0.8672,0.7212,0.6047,0.4613,0.3537,0.336,0.3001,0.2123,0.0979,-0.0528,-0.1924,-0.34,-0.4411,-0.5282,3.0813,3.0061,3.0106,3.0387,3.062,3.0049,3.0262,3.0902,3.1707,3.2285,3.2625,3.2655,3.2827,3.2853,3.2235,3.1774,3.1763,3.1763,3.1726,3.1559,3.1196,3.0568,3.0108,2.9275,2.8415,2.7535,2.7108,2.652,2.6068,2.5851,2.5522,2.5104,2.458,2.4131,2.3734,2.321,2.303,2.2969,2.2957,2.2836,2.2724,2.2209,2.2133,2.2153,2.1559,2.0863,2.0614,2.0362,2.0084,1.9107,1.8905,1.8818,1.8608,1.8748,1.8905,1.8935,1.9071,1.9064,1.8987,1.8721,1.8827,1.9291,1.9748,2.0143,2.0597,2.1166,2.1572,2.169,2.1985,2.181,2.199,2.1716,2.0974,2.0291,1.9791,1.9605,1.9462,1.9528,1.95,1.9179,1.8706,1.8343,1.7926,1.7424,1.6965,1.6846,1.6571,1.6273,1.6002,1.5702,1.5684,1.5831,1.5671,1.5504,1.5511,1.5457,1.5179,1.4818,1.3786,1.2629,1.1843,0.9676,0.7751,0.6176,0.4639,0.3382,0.2527,0.1924,0.1229,0.0262,-0.0855,-0.2452,-0.3946,-0.448,-0.5219,3.1613,3.0965,3.1443,3.1026,3.0202,3.0436,3.0386,3.0174,3.1513,3.2386,3.3059,3.3325,3.3413,3.3436,3.2762,3.2235,3.1806,3.1734,3.1483,3.1372,3.1235,3.1066,3.0746,2.9942,2.8748,2.7775,2.7261,2.6707,2.6056,2.5812,2.5591,2.5412,2.4978,2.4536,2.4234,2.3734,2.345,2.3437,2.3424,2.3352,2.3365,2.3107,2.2866,2.2706,2.1971,2.0949,2.0204,2.0416,2.0254,1.9586,1.9434,1.9472,1.9229,1.9078,1.9116,1.9207,1.9054,1.8982,1.8934,1.8815,1.8857,1.954,2.0169,2.0508,2.0746,2.1264,2.1477,2.1286,2.0771,2.0668,2.0496,2.0322,1.9912,1.9299,1.9187,1.9054,1.8633,1.911,1.9295,1.902,1.8591,1.8272,1.7995,1.7288,1.6871,1.6658,1.6296,1.5972,1.5682,1.5449,1.537,1.5405,1.5324,1.5106,1.4995,1.4911,1.468,1.4294,1.3337,1.2618,1.1786,1.0277,0.8212,0.6335,0.4645,0.3493,0.2433,0.1564,0.1046,-0.0065,-0.105,-0.2123,-0.3143,-0.4013,-0.4587,3.1365,3.0734,3.1072,3.0667,2.9978,3.0191,2.9956,2.9727,3.0885,3.1847,3.2354,3.2542,3.2997,3.3716,3.3083,3.2603,3.2694,3.2547,3.2076,3.1686,3.1805,3.1934,3.1424,3.0862,2.9927,2.8404,2.7825,2.7089,2.63,2.5965,2.5906,2.5714,2.5398,2.5063,2.4667,2.4131,2.3806,2.3669,2.3476,2.3392,2.3551,2.3135,2.2801,2.2433,2.1792,2.099,2.0603,2.0742,2.0754,2.0485,2.0511,2.0259,1.9581,1.939,1.939,1.9268,1.9412,1.9281,1.9243,1.9226,1.9423,2.0093,2.0782,2.1259,2.1561,2.1921,2.2055,2.1839,2.129,2.052,1.9778,1.9748,1.9333,1.8787,1.8721,1.866,1.8278,1.8613,1.9017,1.8702,1.8235,1.7931,1.7562,1.7052,1.6654,1.6353,1.5826,1.5488,1.5069,1.4843,1.4666,1.4648,1.475,1.4656,1.4544,1.4389,1.4127,1.3721,1.3089,1.2662,1.2174,1.04,0.8439,0.68,0.5231,0.369,0.2622,0.18,0.0985,0.0132,-0.0666,-0.1403,-0.2132,-0.2907,-0.3344,3.0866,3.0146,3.017,3.0027,2.9736,2.9587,2.9202,2.8837,3.013,3.092,3.1223,3.1312,3.252,3.3271,3.2918,3.306,3.3351,3.3362,3.2542,3.2106,3.2754,3.2731,3.2216,3.1808,3.0956,2.9301,2.8557,2.7628,2.6636,2.641,2.6386,2.6068,2.5863,2.5536,2.505,2.4394,2.3962,2.369,2.345,2.3462,2.3573,2.3024,2.2525,2.1923,2.1699,2.1148,2.0999,2.12,2.1424,2.1425,2.174,2.111,2.0234,1.9584,1.9645,1.9432,1.9775,1.983,1.9783,1.985,2.0093,2.0746,2.1369,2.1799,2.2081,2.1955,2.1931,2.1812,2.125,2.035,1.9778,1.9394,1.8926,1.8422,1.8142,1.8048,1.7815,1.7914,1.7986,1.8281,1.792,1.7546,1.7191,1.6816,1.6425,1.5931,1.541,1.4942,1.4529,1.4231,1.4061,1.3881,1.3908,1.3752,1.3639,1.3219,1.3037,1.2859,1.2476,1.2172,1.1934,1.0471,0.8641,0.7507,0.5994,0.4394,0.3147,0.2427,0.1599,0.0604,0.0067,-0.0335,-0.0994,-0.1765,-0.214,3.098,3.017,3.0207,2.9719,2.8988,2.8921,2.8518,2.8079,2.9412,3.0111,3.0434,3.1669,3.2258,3.2696,3.2633,3.2576,3.2587,3.2689,3.2802,3.2771,3.3305,3.3194,3.3145,3.2259,3.1228,3.0207,2.9162,2.7852,2.678,2.6877,2.6741,2.6625,2.6261,2.5887,2.5301,2.4697,2.3791,2.348,2.3397,2.3568,2.3612,2.3362,2.2764,2.1957,2.1706,2.1271,2.0832,2.1674,2.2204,2.142,2.1933,2.2043,2.1656,2.0913,2.0598,2.0548,2.0212,2.0267,2.045,2.0321,2.0422,2.0723,2.1153,2.1237,2.1064,2.0581,2.0396,2.0075,1.9606,1.8808,1.772,1.7905,1.7434,1.6807,1.6587,1.6541,1.627,1.6277,1.6663,1.7022,1.7059,1.7068,1.6711,1.6304,1.5818,1.5284,1.4746,1.4154,1.3623,1.3442,1.3329,1.3199,1.3086,1.285,1.2605,1.2135,1.1729,1.1744,1.1389,1.1028,1.0633,0.9988,0.8809,0.7336,0.6085,0.4674,0.3675,0.3009,0.2611,0.194,0.1405,0.087,0.0199,-0.0525,-0.1161,3.1223,3.0734,3.0452,2.9726,2.8858,2.8774,2.8118,2.736,2.8622,2.9205,2.942,3.0224,3.1253,3.1701,3.1453,3.1443,3.1755,3.2269,3.2574,3.2947,3.332,3.3499,3.3533,3.2475,3.1085,2.9732,2.856,2.7417,2.6176,2.6358,2.6518,2.6208,2.5921,2.5595,2.5031,2.3973,2.3418,2.3076,2.2877,2.2913,2.3055,2.2856,2.2168,2.1721,2.1342,2.108,2.1355,2.1746,2.2578,2.2609,2.2849,2.3002,2.2755,2.2422,2.1857,2.175,2.1272,2.1043,2.118,2.0882,2.0523,2.0746,2.0832,2.0581,2.0053,1.938,1.8384,1.7544,1.7499,1.6894,1.6117,1.6606,1.648,1.5896,1.5583,1.5128,1.4795,1.4789,1.5102,1.5556,1.5841,1.6008,1.6151,1.5682,1.5177,1.4688,1.4094,1.3433,1.2834,1.2658,1.2597,1.2413,1.222,1.1973,1.1725,1.1358,1.0933,1.0814,1.0561,1.0129,0.958,0.9051,0.8009,0.6615,0.5488,0.4754,0.4045,0.3333,0.33,0.3197,0.2318,0.1519,0.1259,0.0724,0.0,3.1333,3.0857,3.0353,2.9578,2.8662,2.8407,2.7801,2.7212,2.8087,2.8397,2.8116,2.8847,3.0046,3.0908,3.0857,3.0677,3.1116,3.1777,3.2264,3.2672,3.3267,3.3524,3.3084,3.2045,3.0642,2.8886,2.7086,2.627,2.605,2.6128,2.5914,2.5731,2.5408,2.5133,2.4588,2.3447,2.2944,2.2512,2.214,2.1923,2.2044,2.1825,2.1303,2.1095,2.0669,2.0939,2.1542,2.2354,2.2981,2.3417,2.3735,2.378,2.369,2.3511,2.324,2.2942,2.2421,2.2075,2.1637,2.0897,2.0258,2.0219,1.9965,1.9469,1.8618,1.7443,1.6249,1.4799,1.4789,1.5138,1.4909,1.5282,1.5435,1.5158,1.4506,1.3929,1.341,1.322,1.3113,1.3708,1.4423,1.4928,1.5093,1.4942,1.4401,1.3846,1.3252,1.2704,1.2104,1.1926,1.1802,1.156,1.1373,1.1122,1.0926,1.0737,1.0434,1.0371,1.0034,0.9554,0.8899,0.8252,0.7092,0.6101,0.5748,0.5062,0.433,0.3806,0.3801,0.3495,0.2745,0.2358,0.232,0.1628,0.0758,3.0915,2.9553,2.945,2.8813,2.7853,2.7299,2.7265,2.7584,2.7788,2.7891,2.7791,2.8588,2.957,3.042,3.0906,3.0663,3.0646,3.1121,3.1897,3.2451,3.307,3.3245,3.2703,3.0888,2.9669,2.7984,2.5804,2.5239,2.5458,2.6009,2.5972,2.5342,2.5098,2.5095,2.3957,2.2791,2.2522,2.2354,2.242,2.2441,2.2325,2.2007,2.1414,2.1013,2.0914,2.1199,2.1626,2.2587,2.348,2.3589,2.4152,2.4323,2.4187,2.4019,2.3973,2.3541,2.2724,2.1599,2.1136,2.0373,1.9515,1.9101,1.8342,1.7508,1.6221,1.4887,1.3509,1.2401,1.2758,1.3325,1.3585,1.3623,1.3816,1.3691,1.3328,1.2623,1.2028,1.1946,1.1803,1.1796,1.2514,1.3479,1.4101,1.39,1.3623,1.3017,1.2466,1.1856,1.1428,1.1178,1.131,1.1247,1.1003,1.0751,1.0428,1.0174,0.9983,0.9926,0.9594,0.9058,0.828,0.7572,0.6658,0.5859,0.5529,0.5116,0.4347,0.4048,0.42,0.3878,0.3222,0.3313,0.3547,0.2598,0.126,3.0711,2.9915,2.9024,2.8321,2.7792,2.7029,2.6843,2.7097,2.7164,2.7182,2.7232,2.7503,2.8066,2.8819,2.9557,2.9696,2.9436,2.9985,3.1053,3.1929,3.2398,3.2599,3.2249,3.0543,2.8799,2.7248,2.5312,2.4114,2.4593,2.4611,2.4359,2.3937,2.3783,2.347,2.2882,2.1668,2.1326,2.1148,2.097,2.074,2.0608,2.029,1.9974,1.9798,1.9985,2.061,2.1635,2.2738,2.3632,2.3821,2.4355,2.4421,2.4187,2.3947,2.3811,2.3312,2.2128,2.1355,2.1029,1.9936,1.8898,1.7773,1.665,1.5042,1.3152,1.1789,1.0918,1.0221,1.1253,1.2033,1.262,1.298,1.3147,1.2999,1.2491,1.1619,1.1098,1.0796,1.0674,1.0638,1.0685,1.175,1.2585,1.2414,1.2266,1.2012,1.1337,1.0654,1.0408,1.0345,1.0667,1.1122,1.0877,1.0561,1.0238,0.9919,0.9588,0.9466,0.9344,0.8748,0.7772,0.6924,0.6272,0.5415,0.477,0.4406,0.4153,0.4134,0.4262,0.4022,0.3784,0.3609,0.3362,0.2542,0.1426,3.011,2.9902,2.8648,2.7981,2.7658,2.7012,2.6742,2.6708,2.6725,2.6725,2.6826,2.7145,2.7328,2.7394,2.8572,2.9094,2.8337,2.8767,2.9782,3.0733,3.1162,3.1192,3.0639,2.9228,2.7843,2.6901,2.4442,2.3312,2.2926,2.2743,2.2414,2.2339,2.2622,2.2275,2.1517,2.028,1.9376,1.8992,1.8467,1.8274,1.8297,1.803,1.8147,1.8286,1.8661,1.9408,2.0983,2.1725,2.2373,2.2664,2.3056,2.3022,2.2805,2.2412,2.2189,2.1462,2.0229,1.9048,1.8881,1.8367,1.7841,1.6514,1.4599,1.2398,1.024,0.8952,0.8854,0.9039,0.9927,1.0836,1.1587,1.245,1.2592,1.2521,1.2299,1.122,1.0369,1.0398,1.0101,0.9776,0.986,1.0122,1.0701,1.0721,1.0717,1.0773,1.0212,0.946,0.9494,0.9717,1.0095,1.0691,1.0622,1.0356,1.0151,0.98,0.9388,0.9075,0.8952,0.856,0.7712,0.6994,0.647,0.5481,0.4489,0.4538,0.4835,0.454,0.4186,0.3934,0.3624,0.3147,0.2764,0.2084,0.1452,2.8639,2.8702,2.8387,2.7758,2.7028,2.691,2.6792,2.6708,2.6708,2.6708,2.6876,2.7941,2.7979,2.7888,2.8451,2.8753,2.7936,2.8282,2.8808,2.9106,2.918,2.9386,2.8875,2.7931,2.643,2.505,2.3304,2.2289,2.1609,2.0726,2.1093,2.1776,2.1446,2.1495,2.0549,1.878,1.7202,1.6634,1.5938,1.6026,1.6175,1.6192,1.6367,1.6746,1.709,1.7665,1.8851,1.9506,1.9957,2.0254,2.0671,2.0857,2.0742,2.0193,1.9865,1.9194,1.7467,1.615,1.5558,1.6038,1.6203,1.4566,1.2377,1.0121,0.8592,0.7964,0.7972,0.8638,0.9393,1.0179,1.094,1.1505,1.2094,1.229,1.2273,1.16,1.085,1.0337,0.9976,0.9282,0.9136,0.9317,0.9077,0.9186,0.9703,0.9755,0.9296,0.8608,0.9196,0.9456,0.971,1.0094,1.0241,1.0157,1.0134,0.9784,0.9387,0.9012,0.8765,0.8371,0.7787,0.7195,0.6601,0.5943,0.5213,0.5335,0.5276,0.4686,0.4199,0.3861,0.3538,0.3272,0.295,0.2534,0.1759,2.8042,2.79,2.7791,2.7476,2.7006,2.6959,2.6842,2.6708,2.6708,2.6708,2.6725,2.7394,2.7764,2.7881,2.7764,2.822,2.8233,2.8323,2.8447,2.8708,2.8956,2.9019,2.8347,2.7148,2.5982,2.4414,2.263,2.1043,2.0253,1.9108,1.8505,1.8898,1.9564,1.9315,1.8356,1.7025,1.5563,1.4632,1.4123,1.42,1.4355,1.4246,1.444,1.5042,1.5576,1.6317,1.7409,1.8158,1.8386,1.8539,1.8733,1.8638,1.8374,1.7785,1.7347,1.6786,1.48,1.3464,1.2466,1.2955,1.2778,1.1645,0.9813,0.8458,0.7587,0.7224,0.74,0.8088,0.9051,1.0061,1.0434,1.1366,1.2151,1.2386,1.2274,1.1819,1.1262,1.0722,0.9904,0.9247,0.8659,0.8384,0.8016,0.7724,0.8322,0.8796,0.8275,0.7986,0.8633,0.9229,0.9465,0.9885,1.0143,1.0394,1.0453,0.9939,0.9389,0.9029,0.8715,0.8205,0.7797,0.7256,0.6662,0.6137,0.5613,0.5213,0.4843,0.4504,0.4157,0.3974,0.3742,0.3544,0.3203,0.2852,0.2215,2.745,2.7341,2.7215,2.7063,2.6808,2.6666,2.64,2.6098,2.5998,2.6234,2.6403,2.6805,2.7345,2.7683,2.7572,2.7656,2.8097,2.8083,2.8021,2.8096,2.822,2.8218,2.7401,2.6173,2.4548,2.3396,2.1612,1.9806,1.8746,1.7451,1.6917,1.6761,1.6693,1.6602,1.6458,1.4926,1.3527,1.2514,1.2142,1.2004,1.2043,1.2173,1.2474,1.3258,1.3872,1.4638,1.546,1.6011,1.6215,1.6248,1.6269,1.6235,1.5872,1.5376,1.4848,1.3857,1.261,1.1178,1.0378,1.0192,1.0032,0.9503,0.8773,0.7772,0.7204,0.7012,0.7361,0.7964,0.9064,0.9927,1.0189,1.1318,1.1865,1.2077,1.2493,1.2211,1.1607,1.1025,1.0102,0.9182,0.8609,0.8151,0.7568,0.7274,0.7532,0.8002,0.7837,0.7757,0.8272,0.8792,0.9257,0.9701,1.0265,1.0553,1.079,1.0321,0.9883,0.935,0.8939,0.8196,0.7713,0.7247,0.6981,0.6666,0.6009,0.4954,0.4442,0.4139,0.4125,0.4171,0.3851,0.3391,0.3151,0.2802,0.2723,2.6859,2.6973,2.6842,2.6531,2.6186,2.6007,2.5527,2.4963,2.4811,2.5133,2.589,2.6691,2.7341,2.757,2.7539,2.7666,2.7783,2.7471,2.7177,2.7212,2.7012,2.6077,2.511,2.4119,2.2991,2.0855,1.9356,1.8191,1.7283,1.604,1.5475,1.4868,1.4427,1.4232,1.4704,1.2989,1.1016,0.932,0.9238,0.9227,0.9482,1.0135,1.0923,1.1646,1.2455,1.3201,1.3866,1.401,1.4061,1.3808,1.3737,1.3442,1.278,1.2412,1.2003,1.161,0.9442,0.8084,0.7584,0.833,0.8385,0.8334,0.7832,0.7526,0.7269,0.7269,0.7466,0.8134,0.9139,0.9887,1.0561,1.1206,1.1519,1.1784,1.2182,1.2037,1.1471,1.109,1.0082,0.8934,0.8563,0.8269,0.7557,0.7095,0.7042,0.714,0.7222,0.753,0.8057,0.8491,0.8978,0.9611,1.0217,1.0694,1.0903,1.0755,1.032,0.9799,0.9201,0.8449,0.7845,0.7409,0.7214,0.7089,0.6001,0.4616,0.4156,0.383,0.3837,0.3767,0.3477,0.3162,0.2918,0.2818,0.2804,2.6757,2.707,2.6957,2.6482,2.5883,2.58,2.5439,2.4976,2.4734,2.4946,2.5588,2.609,2.692,2.7429,2.7375,2.7388,2.7683,2.722,2.6875,2.6454,2.6123,2.5521,2.4481,2.297,2.1653,2.0117,1.8393,1.6754,1.6074,1.4603,1.3674,1.3092,1.2602,1.1989,1.1897,1.092,0.9697,0.8952,0.8565,0.8301,0.8382,0.9142,0.9927,1.0507,1.1344,1.2116,1.2634,1.2586,1.2375,1.2172,1.2199,1.1667,1.1022,1.0718,1.0232,0.955,0.7752,0.6841,0.616,0.6171,0.6601,0.6977,0.7386,0.74,0.7596,0.7596,0.7852,0.8296,0.9192,0.9767,1.0028,1.0933,1.1331,1.1361,1.1502,1.1109,1.0616,1.0526,0.9885,0.8623,0.7879,0.7451,0.6814,0.67,0.6703,0.6854,0.6952,0.7549,0.8061,0.8387,0.8764,0.9491,1.0128,1.0717,1.0999,1.0963,1.077,1.0346,0.9504,0.8581,0.8122,0.7623,0.6958,0.6561,0.5404,0.4278,0.3692,0.3244,0.3376,0.3279,0.3111,0.3154,0.3246,0.3224,0.3218,2.6877,2.6808,2.6775,2.6371,2.5816,2.558,2.5295,2.4913,2.4871,2.52,2.5592,2.5862,2.6334,2.6961,2.7012,2.674,2.7182,2.6877,2.6435,2.5961,2.5491,2.4719,2.3569,2.2116,2.0594,1.9159,1.7135,1.5281,1.4682,1.294,1.2208,1.1926,1.1315,1.1219,1.0773,1.0085,0.9198,0.8635,0.8177,0.7857,0.8017,0.8493,0.9207,0.9898,1.0666,1.1438,1.181,1.1837,1.1593,1.149,1.1101,1.0528,0.9962,0.9379,0.8865,0.7902,0.692,0.6071,0.5449,0.5075,0.5807,0.6688,0.7007,0.7531,0.7992,0.8057,0.7987,0.8366,0.9256,0.9512,0.9709,1.0611,1.0961,1.1051,1.0757,1.0359,1.0067,0.9892,0.9257,0.8028,0.7216,0.6694,0.6321,0.631,0.6268,0.6548,0.6795,0.7492,0.8204,0.8512,0.903,0.9851,1.0541,1.1268,1.1507,1.1327,1.1129,1.0779,0.9848,0.8813,0.8264,0.7784,0.6871,0.5927,0.4919,0.3949,0.3019,0.2654,0.2812,0.2883,0.2861,0.3044,0.3493,0.3424,0.3224,2.7069,2.638,2.633,2.6189,2.5859,2.5527,2.4896,2.4263,2.5171,2.5588,2.5642,2.6268,2.637,2.5996,2.6387,2.6252,2.5782,2.5948,2.5615,2.5308,2.4594,2.3681,2.2416,2.0946,1.9573,1.7877,1.6049,1.4428,1.3391,1.2419,1.1702,1.1383,1.1294,1.0961,1.0445,0.9773,0.9005,0.8431,0.8052,0.7661,0.755,0.8048,0.8838,0.9522,1.0221,1.0853,1.1142,1.1168,1.0876,1.0527,0.9977,0.9282,0.8576,0.7912,0.7521,0.6933,0.6001,0.5613,0.5226,0.4979,0.5533,0.6589,0.7414,0.7997,0.8447,0.8511,0.8441,0.8565,0.9268,0.9332,0.9588,1.0104,1.0618,1.0425,1.0177,0.9874,0.9516,0.9059,0.8294,0.7465,0.6789,0.6306,0.6058,0.6022,0.6116,0.6605,0.7105,0.7946,0.8562,0.8987,0.961,1.074,1.1401,1.199,1.2045,1.1657,1.1396,1.1027,0.994,0.8942,0.8464,0.7879,0.7082,0.6067,0.469,0.3623,0.277,0.2339,0.2227,0.2291,0.2429,0.2562,0.2822,0.2956,0.2811,2.7262,2.652,2.6503,2.6417,2.6295,2.6079,2.538,2.4519,2.4808,2.5099,2.5545,2.573,2.5933,2.6031,2.5747,2.5361,2.4959,2.4454,2.3906,2.3607,2.348,2.2344,2.1151,1.983,1.8592,1.711,1.5444,1.4073,1.3576,1.2512,1.1703,1.1479,1.1376,1.0984,1.0378,0.9755,0.8988,0.8301,0.7922,0.7531,0.7442,0.7966,0.866,0.9275,0.9699,1.0288,1.0672,1.0165,0.9764,0.9504,0.9254,0.8722,0.7867,0.7772,0.7642,0.6539,0.5947,0.5557,0.516,0.5223,0.5729,0.6534,0.7423,0.8317,0.8829,0.8969,0.8835,0.9017,0.9315,0.9538,0.9562,0.9891,1.02,0.9999,0.9784,0.9561,0.9186,0.8462,0.7766,0.6978,0.6312,0.598,0.5818,0.5804,0.5938,0.6641,0.7366,0.8248,0.8984,0.9398,0.9992,1.1107,1.1543,1.1931,1.199,1.1696,1.151,1.1175,1.0053,0.9193,0.8706,0.8102,0.7281,0.616,0.48,0.3629,0.2591,0.2369,0.2284,0.1951,0.202,0.2087,0.2153,0.2354,0.2469,2.7402,2.6674,2.6606,2.6537,2.6434,2.6347,2.5848,2.5295,2.5275,2.5529,2.5782,2.5832,2.5729,2.5537,2.5365,2.5111,2.4606,2.4397,2.385,2.318,2.2541,2.1541,2.0312,1.912,1.8141,1.6678,1.5383,1.4216,1.3704,1.2726,1.1806,1.176,1.1579,1.0996,1.0438,0.9893,0.9099,0.8323,0.7722,0.7396,0.7583,0.7849,0.8271,0.8865,0.9164,0.9664,1.0074,0.923,0.892,0.8755,0.8641,0.8102,0.7391,0.7451,0.712,0.6148,0.5818,0.5266,0.4827,0.4775,0.5453,0.618,0.6869,0.7736,0.8592,0.9037,0.8992,0.9092,0.9509,0.9848,0.9807,0.9759,0.9729,0.964,0.9485,0.9328,0.87,0.7996,0.7297,0.6523,0.6021,0.5721,0.5579,0.5572,0.5894,0.6776,0.7561,0.8334,0.9182,0.9893,1.0377,1.1099,1.1351,1.1575,1.1584,1.1551,1.1233,1.0821,1.0146,0.9379,0.8937,0.8255,0.7372,0.6169,0.4874,0.3895,0.3001,0.2701,0.2554,0.2144,0.1738,0.1745,0.1813,0.195,0.1994,2.7487,2.6742,2.664,2.6454,2.6247,2.6162,2.6077,2.6177,2.5909,2.6175,2.6293,2.6289,2.5862,2.557,2.541,2.5115,2.4585,2.4216,2.3577,2.3139,2.2338,2.1255,1.9963,1.8858,1.8078,1.6925,1.5729,1.4562,1.3631,1.2802,1.2166,1.2184,1.1847,1.1287,1.0485,1.0066,0.9314,0.8313,0.7613,0.719,0.7321,0.733,0.7251,0.8042,0.8398,0.8733,0.8981,0.8759,0.842,0.8166,0.7847,0.7265,0.6868,0.6741,0.6284,0.5778,0.5319,0.4839,0.4285,0.4109,0.4661,0.5246,0.5842,0.6712,0.764,0.8848,0.8969,0.8875,0.9239,0.9359,0.9349,0.9479,0.9553,0.9507,0.9439,0.9366,0.8974,0.8178,0.7135,0.6411,0.5798,0.5545,0.5606,0.5659,0.5794,0.6788,0.7606,0.8287,0.8951,0.9798,1.0455,1.0945,1.1057,1.1133,1.1233,1.1141,1.0744,1.0336,0.9821,0.9465,0.8976,0.8193,0.7404,0.6233,0.5148,0.4384,0.3665,0.3166,0.2618,0.2102,0.1712,0.1467,0.1472,0.1401,0.1387,2.7606,2.6959,2.6842,2.642,2.5748,2.5343,2.517,2.5067,2.4782,2.5542,2.6685,2.67,2.6626,2.635,2.555,2.5163,2.4973,2.3887,2.2919,2.247,2.1916,2.0881,1.9734,1.8979,1.8188,1.7251,1.6161,1.4925,1.3879,1.3008,1.2494,1.2486,1.2068,1.1375,1.061,1.0241,0.9492,0.8452,0.7733,0.7538,0.7752,0.7642,0.7647,0.8037,0.8366,0.8236,0.8301,0.7912,0.7391,0.6937,0.6745,0.6214,0.5477,0.5818,0.5289,0.4434,0.4504,0.4153,0.3727,0.3493,0.3898,0.4372,0.4965,0.5662,0.6658,0.8053,0.8766,0.8711,0.8716,0.8838,0.8954,0.9168,0.9276,0.9372,0.9501,0.9377,0.9253,0.821,0.7129,0.6355,0.573,0.5606,0.5722,0.5822,0.5947,0.6515,0.727,0.7949,0.8303,0.9061,0.9926,1.0385,1.0538,1.0643,1.0744,1.0584,1.0182,0.9865,0.9399,0.9152,0.8857,0.8008,0.7117,0.6354,0.5429,0.4782,0.4041,0.321,0.2627,0.2226,0.1545,0.1235,0.0782,0.0585,0.0582,2.7577,2.7105,2.7055,2.6686,2.6083,2.5577,2.5116,2.4626,2.4138,2.463,2.5924,2.6366,2.6693,2.6749,2.5759,2.554,2.5364,2.383,2.3106,2.2461,2.1598,2.0433,1.9625,1.8947,1.8038,1.7149,1.6154,1.5062,1.4133,1.3494,1.3135,1.2764,1.222,1.1606,1.0942,1.0394,0.9754,0.8734,0.8054,0.8175,0.8493,0.8356,0.7832,0.8042,0.7982,0.7917,0.7787,0.7461,0.7073,0.6544,0.628,0.5683,0.5014,0.4815,0.4384,0.3823,0.3677,0.367,0.3166,0.2919,0.3169,0.3717,0.381,0.4472,0.5768,0.7082,0.7893,0.7952,0.8172,0.8289,0.8638,0.8887,0.8732,0.8769,0.9211,0.9405,0.9073,0.84,0.7306,0.6301,0.5963,0.5955,0.609,0.6284,0.6412,0.6609,0.7321,0.7683,0.803,0.8224,0.9099,0.9637,0.9758,0.991,1.0028,0.9814,0.9458,0.9197,0.8928,0.8402,0.7877,0.7456,0.683,0.605,0.5514,0.5301,0.451,0.3478,0.299,0.268,0.1821,0.0948,0.0443,-0.0063,-0.0376,2.7539,2.7261,2.7244,2.7049,2.667,2.6049,2.5335,2.4518,2.3648,2.3661,2.4498,2.5557,2.6056,2.6246,2.5942,2.6116,2.5676,2.4182,2.3381,2.2757,2.1917,2.0717,1.9577,1.8652,1.7909,1.7154,1.6281,1.5522,1.4766,1.4107,1.3505,1.3016,1.2459,1.1888,1.1406,1.0911,1.0279,0.9434,0.9065,0.9494,0.9463,0.9149,0.8393,0.7931,0.7777,0.7852,0.7661,0.74,0.7077,0.6609,0.6005,0.5077,0.4483,0.4023,0.3479,0.3111,0.3022,0.2959,0.2669,0.2248,0.2772,0.3198,0.3072,0.3648,0.4954,0.5877,0.6695,0.7276,0.7547,0.7856,0.8194,0.8263,0.8171,0.8285,0.8846,0.9193,0.8758,0.8281,0.7323,0.6308,0.6284,0.6288,0.642,0.6613,0.6811,0.6942,0.7154,0.7496,0.7746,0.7782,0.8238,0.8581,0.8661,0.8911,0.9127,0.8981,0.8666,0.8508,0.819,0.7492,0.6961,0.6858,0.6485,0.5677,0.5262,0.4993,0.4531,0.3584,0.3294,0.2788,0.1525,0.0429,0.0307,-0.0306,-0.121,2.763,2.7526,2.7509,2.7148,2.6359,2.515,2.4413,2.3907,2.2493,2.2447,2.3527,2.443,2.5466,2.6949,2.6123,2.6077,2.6321,2.4656,2.3731,2.3212,2.201,2.0906,1.9802,1.8715,1.8121,1.7366,1.6625,1.6151,1.513,1.4398,1.3836,1.3314,1.2706,1.228,1.2004,1.145,1.0911,1.0207,1.0796,1.1574,1.068,1.0156,0.9124,0.8817,0.8803,0.8011,0.7396,0.7073,0.6946,0.6609,0.5939,0.4746,0.4015,0.3558,0.3069,0.2507,0.2409,0.2397,0.2156,0.1802,0.2243,0.249,0.2509,0.3081,0.4122,0.4763,0.5613,0.6348,0.6756,0.7267,0.7543,0.7347,0.7322,0.7883,0.8459,0.8319,0.7977,0.7581,0.6987,0.6489,0.635,0.635,0.6416,0.6548,0.6679,0.6811,0.6876,0.7164,0.7053,0.7202,0.7363,0.7472,0.7613,0.7709,0.786,0.7978,0.7765,0.7658,0.7444,0.6799,0.648,0.6588,0.6105,0.5011,0.4567,0.4327,0.3812,0.3285,0.2758,0.209,0.0823,-0.0118,-0.0178,-0.0652,-0.1645]},{"header":{"parameterUnit":"m.s-1","parameterCategory":1,"la1":31.0,"la2":29.5877,"lo1":-88.7671,"lo2":-86.6584,"dy":0.0162,"dx":0.0185,"nx":115,"ny":88,"refTime":"2023-09-14T18:00:00:Z","depth":0,"parameterNumber":3,"parameterNumberName":"V-component_of_WINDS"},"data":[0.0,0.0,0.0,0.0,0.0,0.0,0.0,0.0,0.0,0.0,0.0,0.0,0.0,0.0,0.0,0.0,0.0,0.0,0.0,0.0,0.0,0.0,0.0,0.0,0.0,0.0,0.0,0.0,0.0,0.0,0.0,0.0,0.0,0.0,0.0,0.0,0.0,0.0,0.0,0.0,0.0,0.0,0.0,0.0,0.0,0.0,0.0,0.0,0.0,0.0,0.0,0.0,0.0,0.0,0.0,0.0,0.0,0.0,0.0,0.0,0.0,0.0,0.0,0.0,0.0,0.0,0.0,0.0,0.0,0.0,0.0,0.0,0.0,0.0,0.0,0.0,0.0,0.0,0.0,0.0,0.0,0.0,0.0,0.0,0.0,0.0,0.0,0.0,0.0,0.0,0.0,0.0,0.0,0.0,0.0,0.0,0.0,0.0,0.0,0.0,0.0,0.0,0.0,0.0,0.0,0.0,0.0,0.0,0.0,0.0,0.0,0.0,0.0,0.0,0.0,0.0,0.0,0.0,0.0,0.0,0.0,0.0,0.0,0.0,0.0,0.0,0.0,0.0,0.0,0.0,0.0,0.0,0.0,0.0,0.0,0.0,0.0,0.0,0.0,0.0,0.0,0.0,0.0,0.0,0.0,0.0,0.0,0.0,0.0,0.0,0.0,0.0,0.0,0.0,0.0,0.0,0.0,0.0,0.0,0.0,0.0,0.0,0.0,0.0,0.0,0.0,0.0,0.0,0.0,0.0,0.0,0.0,0.0,0.0,0.0,0.0,0.0,0.0,0.0,0.0,0.0,0.0,0.0,0.0,0.0,0.0,0.0,0.0,0.0,0.0,0.0,0.0,0.0,0.0,0.0,0.0,0.0,0.0,0.0,0.0,0.0,0.0,0.0,0.0,0.0,0.0,0.0,0.0,0.0,0.0,0.0,0.0,0.0,0.0,0.0,0.0,0.0,0.0,0.0,0.0,0.0,0.0,0.0,0.0,0.0,0.0,0.0,0.0,0.0,0.0,0.0,0.0,0.0,0.0,0.0,0.0,0.0,0.0,0.0,0.0,0.0,0.0,0.0,0.0,0.0,0.0,0.0,0.0,0.0,0.0,0.0,0.0,0.0,0.0,0.0,0.0,0.0,0.0,0.0,0.0,0.0,0.0,0.0,0.0,0.0,0.0,0.0,0.0,0.0,0.0,0.0,0.0,0.0,0.0,0.0,0.0,0.0,0.0,0.0,0.0,0.0,0.0,0.0,0.0,0.0,0.0,0.0,0.0,0.0,0.0,0.0,0.0,0.0,0.0,0.0,0.0,0.0,0.0,0.0,0.0,0.0,0.0,0.0,0.0,0.0,0.0,0.0,0.0,0.0,0.0,0.0,0.0,0.0,0.0,0.0,0.0,0.0,0.0,0.0,0.0,0.0,0.0,0.0,0.0,0.0,0.0,0.0,0.0,0.0,0.0,0.0,0.0,0.0,0.0,0.0,0.0,0.0,0.0,0.0,0.0,0.0,0.0,0.0,0.0,0.0,0.0,0.0,0.0,0.0,0.0,0.0,0.0,0.0,0.0,0.0,0.0,0.0,0.0,0.0,0.0,0.0,0.0,0.0,0.0,0.0,0.0,0.0,0.0,0.0,0.0,0.0,0.0,0.0,0.0,0.0,0.0,0.0,0.0,0.0,0.0,0.0,0.0,0.0,0.0,0.0,0.0,0.0,0.0,0.0,0.0,0.0,0.0,0.0,0.0,0.0,0.0,0.0,0.0,0.0,0.0,0.0,0.0,0.0,0.0,0.0,0.0,0.0,0.0,0.0,0.0,0.0,0.0,0.0,0.0,0.0,0.0,0.0,0.0,0.0,0.0,0.0,0.0,0.0,0.0,0.0,0.0,0.0,0.0,0.0,0.0,0.0,0.0,0.0,0.0,0.0,0.0,0.0,0.0,0.0,0.0,0.0,0.0,0.0,0.0,0.0,0.0,0.0,0.0,0.0,0.0,0.0,0.0,0.0,0.0,0.0,0.0,0.0,0.0,0.0,0.0,0.0,0.0,0.0,0.0,0.0,0.0,0.0,0.0,0.0,0.0,0.0,0.0,0.0,0.0,0.0,0.0,0.0,0.0,0.0,0.0,0.0,0.0,0.0,0.0,0.0,0.0,0.0,0.0,0.0,0.0,0.0,0.0,0.0,0.0,0.0,0.0,0.0,0.0,0.0,0.0,0.0,0.0,0.0,0.0,0.0,0.0,0.0,0.0,0.0,0.0,0.0,0.0,0.0,0.0,0.0,0.0,0.0,0.0,0.0,0.0,0.0,0.0,0.0,0.0,0.0,0.0,0.0,0.0,0.0,0.0,0.0,0.0,0.0,0.0,0.0,0.0,0.0,0.0,0.0,0.0,0.0,0.0,0.0,0.0,0.0,0.0,0.0,0.0,0.0,0.0,0.0,0.0,0.0,0.0,0.0,0.0,0.0,0.0,0.0,0.0,0.0,0.0,0.0,0.0,0.0,0.0,0.0,0.0,0.0,0.0,0.0,0.0,0.0,0.0,0.0,0.0,0.0,0.0,0.0,0.0,0.0,0.0,0.0,0.0,0.0,0.0,0.0,0.0,0.0,0.0,0.0,0.0,0.0,0.0,0.0,0.0,0.0,0.0,0.0,0.0,0.0,0.0,0.0,0.0,0.0,0.0,0.0,0.0,0.0,0.0,0.0,0.0,0.0,0.0,0.0,0.0,0.0,0.0,0.0,0.0,0.0,0.0,0.0,0.0,0.0,0.0,0.0,0.0,0.0,0.0,0.0,0.0,0.0,0.0,0.0,0.0,0.0,0.0,0.0,0.0,0.0,0.0,0.0,0.0,0.0,0.0,0.0,0.0,0.0,0.0,0.0,0.0,0.0,0.0,0.0,0.0,0.0,0.0,0.0,0.0,0.0,0.0,0.0,0.0,0.0,0.0,0.0,0.0,0.0,0.0,0.0,0.0,0.0,0.0,0.0,0.0,0.0,0.0,0.0,0.0,0.0,0.0,0.0,0.0,0.0,0.0,0.0,0.0,0.0,0.0,0.0,0.0,0.0,0.0,0.0,0.0,0.0,0.0,0.0,0.0,0.0,0.0,0.0,0.0,0.0,0.0,0.0,0.0,0.0,0.0,0.0,0.0,0.0,0.0,0.0,0.0,0.0,0.0,0.0,0.0,0.0,0.0,0.0,0.0,0.0,0.0,0.0,0.0,0.0,0.0,0.0,0.0,0.0,0.0,0.0,0.0,0.0,0.0,0.0,0.0,0.0,0.0,0.0,0.0,0.0,0.0,0.0,0.0,0.0,0.0,0.0,0.0,0.0,0.0,0.0,0.0,0.0,0.0,0.0,0.0,0.0,0.0,0.0,0.0,0.0,0.0,0.0,0.0,0.0,0.0,0.0,0.0,0.0,0.0,0.0,0.0,0.0,0.0,0.0,0.0,0.0,0.0,0.0,0.0,0.0,0.0,0.0,0.0,0.0,0.0,0.0,0.0,0.0,0.0,0.0,0.0,0.0,0.0,0.0,0.0,0.0,0.0,0.0,0.0,0.0,0.0,0.0,0.0,0.0,0.0,0.0,0.0,0.0,0.0,0.0,0.0,0.0,0.0,0.0,0.0,0.0,0.0,0.0,0.0,0.0,0.0,0.0,0.0,0.0,0.0,0.0,0.0,0.0,0.0,0.0,0.0,0.0,0.0,0.0,0.0,0.0,0.0,0.0,0.0,0.0,0.0,0.0,0.0,0.0,0.0,0.0,0.0,0.0,0.0,0.0,0.0,0.0,0.0,0.0,0.0,0.0,0.0,0.0,0.0,0.0,0.0,0.0,0.0,0.0,0.0,0.0,0.0,0.0,0.0,0.0,0.0,0.0,0.0,0.0,0.0,0.0,0.0,0.0,0.0,0.0,0.0,0.0,0.0,0.0,0.0,0.0,0.0,0.0,0.0,0.0,0.0,0.0,0.0,0.0,0.0,0.0,0.0,0.0,0.0,0.0,0.0,0.0,0.0,0.0,0.0,0.0,0.0,0.0,0.0,0.0,0.0,0.0,0.0,0.0,0.0,0.0,0.0,0.0,0.0,0.0,0.0,0.0,0.0,0.0,0.0,0.0,0.0,0.0,0.0,0.0,0.0,0.0,0.0,0.0,0.0,0.0,0.0,0.0,0.0,0.0,0.0,0.0,0.0,0.0,0.0,0.0,0.0,0.0,0.0,0.0,0.0,0.0,0.0,0.0,0.0,0.0,0.0,0.0,0.0,0.0,0.0,1.3293,0.0,0.0,0.0,0.0,0.0,0.0,0.0,0.0,0.0,0.0,0.0,0.0,0.0,0.0,0.0,0.0,0.0,0.0,0.0,0.0,0.0,0.0,0.0,0.0,0.0,0.0,0.0,0.0,0.0,0.0,0.0,0.0,0.0,0.0,0.0,0.0,0.0,0.0,0.0,0.0,0.0,0.0,0.0,0.0,0.0,0.0,0.0,0.0,0.0,0.0,0.0,0.0,0.0,0.0,0.0,0.0,0.0,0.0,0.0,0.0,0.0,0.0,0.0,0.0,0.0,0.0,0.0,0.0,0.0,0.0,0.0,0.0,0.0,0.0,0.0,0.0,0.0,0.0,0.0,0.0,0.0,0.0,0.0,0.0,0.0,0.0,0.0,0.0,0.0,0.0,0.0,0.0,0.0,0.0,0.0,0.0,0.0,0.0,0.0,0.0,0.0,0.0,0.0,0.0,0.0,0.0,0.0,0.0,0.0,0.0,1.3002,1.2722,1.3238,1.3472,1.3312,0.0,0.0,0.0,0.0,0.0,0.0,0.0,0.0,0.0,0.0,0.0,0.0,0.0,0.0,0.0,0.0,0.0,0.0,0.0,0.0,0.0,0.0,0.0,0.0,0.0,0.0,0.0,0.0,0.0,0.0,0.0,0.0,0.0,0.0,0.0,0.0,0.0,0.0,0.0,0.0,0.0,0.0,0.0,0.0,0.0,0.0,0.0,0.0,0.0,0.0,0.0,0.0,0.0,0.0,0.0,0.0,0.0,0.0,0.0,0.0,0.0,0.0,0.0,0.0,0.0,0.0,0.0,0.0,0.0,0.0,0.0,0.0,0.0,0.0,0.0,0.0,0.0,0.0,0.0,0.0,0.0,0.0,0.0,0.0,0.0,0.0,0.0,0.0,0.0,0.0,0.0,0.0,0.0,0.0,0.0,0.0,0.0,0.0,0.0,0.0,0.0,0.0,0.0,0.0,0.0,0.0,0.0,0.0,0.0,0.0,0.0,0.0,1.3005,1.32,1.3312,0.0,0.0,0.0,0.0,0.0,0.0,0.0,0.0,0.0,0.0,0.0,0.0,0.0,0.0,0.0,0.0,0.0,0.0,0.0,0.0,0.0,0.0,0.0,0.0,0.0,0.0,0.0,0.0,0.0,0.0,0.0,0.0,0.0,0.0,0.0,0.0,0.0,0.0,0.0,0.0,0.0,0.0,0.0,0.0,0.0,0.0,0.0,0.0,0.0,0.0,0.0,0.0,0.0,0.0,0.0,0.0,0.0,0.0,0.0,0.0,0.0,0.0,0.0,0.0,0.0,0.0,0.0,0.0,0.0,0.0,0.0,0.0,0.0,0.0,0.0,0.0,0.0,0.0,0.0,0.0,0.0,0.0,0.0,0.0,0.0,0.0,0.0,0.0,0.0,0.0,0.0,0.0,0.0,0.0,0.0,0.0,0.0,0.0,0.0,0.0,0.0,0.0,0.0,0.0,0.0,0.0,0.0,0.0,0.0,0.0,1.2747,1.3227,1.3658,0.0,1.358,0.0,0.0,0.0,0.0,0.0,0.0,0.0,0.0,0.0,0.0,0.0,0.0,0.0,0.0,0.0,0.0,0.0,0.0,0.0,0.0,0.0,0.0,0.0,0.0,0.0,0.0,0.0,0.0,0.0,0.0,0.0,0.0,0.0,0.0,0.0,0.0,0.0,0.0,0.0,0.0,0.0,0.0,0.0,0.0,0.0,0.0,0.0,0.0,0.0,0.0,0.0,0.0,0.0,0.0,0.0,0.0,0.0,0.0,0.0,0.0,0.0,0.0,0.0,0.0,0.0,0.0,0.0,0.0,0.0,0.0,0.0,0.0,0.0,0.0,0.0,0.0,0.0,0.0,0.0,0.0,0.0,0.0,0.0,0.0,0.0,0.0,0.0,0.0,0.0,0.0,0.0,0.0,0.0,0.0,0.0,0.0,0.0,0.0,0.0,0.0,0.0,0.0,0.0,0.0,0.0,0.0,0.0,0.0,0.0,0.0,1.2387,1.3158,1.361,1.3705,0.0,0.0,0.0,0.0,0.0,0.0,0.0,0.0,0.0,0.0,0.0,0.0,0.0,0.0,0.0,0.0,0.0,0.0,0.0,0.0,0.0,0.0,0.0,0.0,0.0,0.0,0.0,0.0,0.0,0.0,0.0,0.0,0.0,0.0,0.0,0.0,0.0,0.0,0.0,0.0,0.0,0.0,0.0,0.0,0.0,0.0,0.0,0.0,0.0,0.0,0.0,0.0,0.0,0.0,0.0,0.0,0.0,0.0,0.0,0.0,0.0,0.0,0.0,0.0,0.0,0.0,0.0,0.0,0.0,0.0,0.0,0.0,0.0,0.0,0.0,0.0,0.0,0.0,0.0,0.0,0.0,0.0,0.0,0.0,0.0,0.0,0.0,0.0,0.0,0.0,0.0,0.0,0.0,0.0,0.0,0.0,0.0,0.0,0.0,0.0,0.0,0.0,0.0,0.0,0.0,0.0,0.0,0.0,0.0,0.0,1.2303,1.2493,1.3389,1.3373,1.344,1.3547,0.0,0.0,0.0,0.0,0.0,0.0,0.0,0.0,0.0,0.0,0.0,0.0,0.0,0.0,0.0,0.0,0.0,0.0,0.0,0.0,0.0,0.0,0.0,0.0,0.0,0.0,0.0,0.0,0.0,0.0,0.0,0.0,0.0,0.0,0.0,0.0,0.0,0.0,0.0,0.0,0.0,0.0,0.0,0.0,0.0,0.0,0.0,0.0,0.0,0.0,0.0,0.0,0.0,0.0,0.0,0.0,0.0,0.0,0.0,0.0,0.0,0.0,0.0,0.0,0.0,0.0,0.0,0.0,0.0,0.0,0.0,0.0,0.0,0.0,0.0,0.0,0.0,0.0,0.0,0.0,0.0,0.0,0.0,0.0,0.0,0.0,0.0,0.0,0.0,0.0,0.0,0.0,0.0,0.0,0.0,0.0,0.0,0.0,0.0,0.0,0.0,0.0,0.0,0.0,0.0,0.0,0.0,0.0,1.3896,1.3298,1.3367,1.4225,1.3183,1.3086,0.0,0.0,0.0,0.0,0.0,0.0,0.0,0.0,0.0,0.0,0.0,0.0,0.0,0.0,0.0,0.0,0.0,0.0,0.0,0.0,0.0,0.0,0.0,0.0,0.0,0.0,0.0,0.0,0.0,0.0,0.0,0.0,0.0,0.0,0.0,0.0,0.0,0.0,0.0,0.0,0.0,0.0,0.0,0.0,0.0,0.0,0.0,0.0,0.0,0.0,0.0,0.0,0.0,0.0,0.0,0.0,0.0,0.0,0.0,0.0,0.0,0.0,0.0,0.0,0.0,0.0,0.0,0.0,0.0,0.0,0.0,0.0,0.0,0.0,0.0,0.0,0.0,0.0,0.0,0.0,0.0,0.0,0.0,0.0,0.0,0.0,0.0,0.0,0.0,0.0,0.0,0.0,0.0,0.0,0.0,0.0,0.0,0.0,0.0,0.0,0.0,0.0,0.0,0.0,0.0,0.0,0.0,0.0,0.0,1.2858,1.3249,1.3378,1.3256,1.334,1.3478,0.0,0.0,0.0,0.0,0.0,0.0,0.0,0.0,0.0,0.0,0.0,0.0,0.0,0.0,0.0,0.0,0.0,0.0,0.0,0.0,0.0,0.0,0.0,0.0,0.0,0.0,0.0,0.0,0.0,0.0,0.0,0.0,0.0,0.0,0.0,0.0,0.0,0.0,0.0,0.0,0.0,0.0,0.0,0.0,0.0,0.0,0.0,0.0,0.0,0.0,0.0,0.0,0.0,0.0,0.0,0.0,0.0,0.0,0.0,0.0,0.0,0.0,0.0,0.0,0.0,0.0,0.0,0.0,0.0,0.0,0.0,0.0,0.0,0.0,0.0,0.0,0.0,0.0,0.0,0.0,0.0,0.0,0.0,0.0,0.0,0.0,0.0,0.0,0.0,0.0,0.0,0.0,0.0,0.0,0.0,0.0,0.0,0.0,0.0,0.0,0.0,0.0,0.0,0.0,0.0,0.0,0.0,0.0,0.0,1.2567,0.0,1.348,1.2971,1.3243,1.3303,0.0,0.0,0.0,0.0,0.0,0.0,0.0,0.0,0.0,0.0,0.0,0.0,0.0,0.0,0.0,0.0,0.0,0.0,0.0,0.0,0.0,0.0,0.0,0.0,0.0,0.0,0.0,0.0,0.0,0.0,0.0,0.0,0.0,0.0,0.0,0.0,0.0,0.0,0.0,0.0,0.0,0.0,0.0,0.0,0.0,0.0,0.0,0.0,0.0,0.0,0.0,0.0,0.0,0.0,0.0,0.0,0.0,0.0,0.0,0.0,0.0,0.0,0.0,0.0,0.0,0.0,0.0,0.0,0.0,0.0,0.0,0.0,0.0,0.0,0.0,0.0,0.0,0.0,0.0,0.0,0.0,0.0,0.0,0.0,0.0,0.0,0.0,0.0,0.0,0.0,0.0,0.0,0.0,0.0,0.0,0.0,0.0,0.0,0.0,0.0,0.0,0.0,0.0,0.0,0.0,0.0,0.0,0.0,1.2125,1.3237,1.3657,1.3763,1.3584,1.2867,1.2562,0.0,0.0,0.0,0.0,0.0,0.0,0.0,0.0,0.0,0.0,0.0,0.0,0.0,0.0,0.0,0.0,0.0,0.0,0.0,0.0,0.0,0.0,0.0,0.0,0.0,0.0,0.0,0.0,0.0,0.0,0.0,0.0,0.0,0.0,0.0,0.0,0.0,0.0,0.0,0.0,0.0,0.0,0.0,0.0,0.0,0.0,0.0,0.0,0.0,0.0,0.0,0.0,0.0,0.0,0.0,0.0,0.0,0.0,0.0,0.0,0.0,0.0,0.0,0.0,0.0,0.0,0.0,0.0,0.0,0.0,0.0,0.0,0.0,0.0,0.0,0.0,0.0,0.0,0.0,0.0,0.0,0.0,0.0,0.0,0.0,0.0,0.0,0.0,0.0,0.0,0.0,0.0,0.0,0.0,0.0,0.0,0.0,0.0,0.0,0.0,0.0,0.0,0.0,0.0,0.0,0.0,0.0,0.0,0.0,1.2318,1.3041,1.338,1.331,1.3074,1.303,0.0,0.0,0.0,0.0,0.0,0.0,0.0,0.0,0.0,0.0,0.0,0.0,0.0,0.0,0.0,0.0,0.0,0.0,0.0,0.0,0.0,0.0,0.0,0.0,0.0,0.0,0.0,0.0,0.0,0.0,0.0,0.0,0.0,0.0,0.0,0.0,0.0,0.0,0.0,0.0,0.0,0.0,0.0,0.0,0.0,0.0,0.0,0.0,0.0,0.0,0.0,0.0,0.0,0.0,0.0,0.0,0.0,0.0,0.0,0.0,0.0,0.0,0.0,0.0,0.0,0.0,0.0,0.0,0.0,0.0,0.0,0.0,0.0,0.0,0.0,0.0,0.0,0.0,0.0,0.0,0.0,0.0,0.0,0.0,0.0,0.0,0.0,0.0,0.0,0.0,0.0,0.0,0.0,0.0,0.0,0.0,0.0,0.0,0.0,0.0,0.0,0.0,0.0,0.0,0.0,0.0,0.0,0.0,0.0,1.2009,1.2772,1.3224,1.3278,1.3173,1.3173,1.3244,0.0,0.0,0.0,0.0,0.0,0.0,0.0,0.0,0.0,0.0,0.0,0.0,0.0,0.0,0.0,0.0,0.0,0.0,0.0,0.0,0.0,0.0,0.0,0.0,0.0,0.0,0.0,0.0,0.0,0.0,0.0,0.0,0.0,0.0,0.0,0.0,0.0,0.0,0.0,0.0,0.0,0.0,0.0,0.0,0.0,0.0,0.0,0.0,0.0,0.0,0.0,0.0,0.0,0.0,0.0,0.0,0.0,0.0,0.0,0.0,0.0,0.0,0.0,0.0,0.0,0.0,0.0,0.0,0.0,0.0,0.0,0.0,0.0,0.0,0.0,0.0,0.0,0.0,0.0,0.0,0.0,0.0,0.0,0.0,0.0,0.0,0.0,0.0,0.0,0.0,0.0,0.0,0.0,0.0,0.0,0.0,0.0,0.0,0.0,0.0,0.0,0.0,0.0,0.0,0.0,0.0,0.0,0.0,1.219,1.2857,1.3259,1.3396,1.3156,1.3069,0.0,0.0,0.0,0.0,0.0,0.0,0.0,0.0,0.0,0.0,0.0,0.0,0.0,0.0,0.0,0.0,0.0,0.0,0.0,0.0,0.0,0.0,0.0,0.0,0.0,0.0,0.0,0.0,0.0,0.0,0.0,0.0,0.0,0.0,0.0,0.0,0.0,0.0,0.0,0.0,0.0,0.0,0.0,0.0,0.0,0.0,0.0,0.0,0.0,0.0,0.0,0.0,0.0,0.0,0.0,0.0,0.0,0.0,0.0,0.0,0.0,0.0,0.0,0.0,0.0,0.0,0.0,0.0,0.0,0.0,0.0,0.0,0.0,0.0,0.0,0.0,0.0,0.0,0.0,0.0,0.0,0.0,0.0,0.0,0.0,0.0,0.0,0.0,0.0,0.0,0.0,0.0,0.0,0.0,0.0,0.0,0.0,0.0,0.0,0.0,0.0,0.0,0.0,0.0,0.0,0.0,0.0,0.0,0.0,1.3059,1.3261,1.3363,1.3396,1.3329,1.3243,0.0,0.0,0.0,0.0,0.0,0.0,0.0,0.0,0.0,0.0,0.0,0.0,0.0,0.0,0.0,0.0,0.0,0.0,0.0,0.0,0.0,0.0,0.0,0.0,0.0,0.0,0.0,0.0,0.0,0.0,0.0,0.0,0.0,0.0,0.0,0.0,0.0,0.0,0.0,0.0,0.0,0.0,0.0,0.0,0.0,0.0,0.0,0.0,0.0,0.0,0.0,0.0,0.0,0.0,0.0,0.0,0.0,0.0,0.0,0.0,0.0,0.0,0.0,0.0,0.0,0.0,0.0,0.0,0.0,0.0,0.0,0.0,0.0,0.0,0.0,0.0,0.0,0.0,0.0,0.0,0.0,0.0,0.0,0.0,0.0,0.0,0.0,0.0,0.0,0.0,0.0,0.0,0.0,0.0,0.0,0.0,0.0,0.0,0.0,0.0,0.0,0.0,0.0,0.0,0.0,0.0,0.0,0.0,1.358,1.3413,1.4058,1.4245,1.3888,1.3532,1.3481,0.0,0.0,0.0,0.0,0.0,0.0,0.0,0.0,0.0,0.0,0.0,0.0,0.0,0.0,0.0,0.0,0.0,0.0,0.0,0.0,0.0,0.0,0.0,0.0,0.0,0.0,0.0,0.0,0.0,0.0,0.0,0.0,0.0,0.0,0.0,0.0,0.0,0.0,0.0,0.0,0.0,0.0,0.0,0.0,0.0,0.0,0.0,0.0,0.0,0.0,0.0,0.0,0.0,0.0,0.0,0.0,0.0,0.0,0.0,0.0,0.0,0.0,0.0,0.0,0.0,0.0,0.0,0.0,0.0,0.0,0.0,0.0,0.0,0.0,0.0,0.0,0.0,0.0,0.0,0.0,0.0,0.0,0.0,0.0,0.0,0.0,0.0,0.0,0.0,0.0,0.0,0.0,0.0,0.0,0.0,0.0,0.0,0.0,0.0,0.0,0.0,0.0,0.0,0.0,0.0,0.0,0.0,0.0,1.4293,1.3684,1.4982,1.5341,1.4687,1.3785,1.3667,0.0,0.0,0.0,0.0,0.0,0.0,0.0,0.0,0.0,0.0,0.0,0.0,0.0,0.0,0.0,0.0,0.0,0.0,0.0,0.0,0.0,0.0,0.0,0.0,0.0,0.0,0.0,0.0,0.0,0.0,0.0,0.0,0.0,0.0,0.0,0.0,0.0,0.0,0.0,0.0,0.0,0.0,0.0,0.0,0.0,0.0,0.0,0.0,0.0,0.0,0.0,0.0,0.0,0.0,0.0,0.0,0.0,0.0,0.0,0.0,0.0,0.0,0.0,0.0,0.0,0.0,0.0,0.0,0.0,0.0,0.0,0.0,0.0,0.0,0.0,0.0,0.0,0.0,0.0,0.0,0.0,0.0,0.0,0.0,0.0,0.0,0.0,0.0,0.0,0.0,0.0,0.0,0.0,0.0,0.0,0.0,0.0,0.0,0.0,0.0,0.0,0.0,0.0,0.0,0.0,0.0,0.0,0.0,1.5348,1.5273,1.5052,1.5156,1.5568,1.4161,1.3362,0.0,0.0,0.0,0.0,0.0,0.0,0.0,0.0,0.0,0.0,0.0,0.0,0.0,0.0,0.0,0.0,0.0,0.0,0.0,0.0,0.0,0.0,0.0,0.0,0.0,0.0,0.0,0.0,0.0,0.0,0.0,0.0,0.0,0.0,0.0,0.0,0.0,0.0,0.0,0.0,0.0,0.0,0.0,0.0,0.0,0.0,0.0,0.0,2.516,0.0,0.0,0.0,0.0,0.0,0.0,0.0,0.0,0.0,0.0,0.0,0.0,0.0,0.0,0.0,0.0,0.0,0.0,0.0,0.0,0.0,0.0,0.0,0.0,0.0,0.0,0.0,0.0,0.0,0.0,0.0,0.0,0.0,0.0,0.0,0.0,0.0,0.0,0.0,0.0,0.0,0.0,0.0,0.0,0.0,0.0,0.0,0.0,0.0,0.0,0.0,0.0,0.0,0.0,0.0,0.0,0.0,0.0,0.0,1.5807,1.5844,1.5466,1.5449,1.5755,1.4194,1.3446,0.0,0.0,0.0,0.0,0.0,0.0,0.0,0.0,0.0,0.0,0.0,0.0,0.0,0.0,0.0,0.0,0.0,0.0,0.0,0.0,0.0,0.0,0.0,0.0,0.0,0.0,0.0,0.0,0.0,0.0,0.0,0.0,0.0,0.0,0.0,0.0,0.0,0.0,0.0,0.0,0.0,0.0,0.0,0.0,0.0,0.0,0.0,0.0,0.0,0.0,0.0,0.0,0.0,0.0,0.0,0.0,0.0,0.0,0.0,0.0,0.0,0.0,0.0,0.0,0.0,0.0,0.0,0.0,0.0,0.0,0.0,0.0,0.0,0.0,0.0,0.0,0.0,0.0,0.0,0.0,0.0,0.0,0.0,0.0,0.0,0.0,0.0,0.0,0.0,0.0,0.0,0.0,0.0,0.0,0.0,0.0,0.0,0.0,0.0,0.0,0.0,0.0,0.0,0.0,0.0,0.0,0.0,1.5416,1.6128,1.6071,1.5968,1.5774,1.5543,1.4056,1.3616,1.4347,0.0,0.0,0.0,0.0,0.0,0.0,0.0,0.0,0.0,0.0,0.0,0.0,0.0,0.0,0.0,0.0,0.0,0.0,0.0,0.0,0.0,0.0,0.0,0.0,0.0,0.0,0.0,0.0,0.0,0.0,0.0,0.0,0.0,0.0,0.0,0.0,0.0,0.0,2.1716,2.2445,0.0,0.0,0.0,0.0,0.0,0.0,0.0,0.0,2.5137,0.0,0.0,0.0,0.0,0.0,0.0,0.0,0.0,0.0,0.0,0.0,0.0,0.0,0.0,0.0,0.0,0.0,0.0,0.0,0.0,0.0,0.0,0.0,0.0,0.0,0.0,0.0,0.0,0.0,0.0,0.0,0.0,0.0,0.0,0.0,0.0,0.0,0.0,0.0,0.0,0.0,0.0,0.0,0.0,0.0,0.0,0.0,0.0,0.0,0.0,0.0,0.0,0.0,0.0,0.0,0.0,1.7118,1.6898,1.6752,1.6812,1.6209,1.5589,1.4951,1.3922,1.343,1.3565,0.0,0.0,0.0,0.0,0.0,0.0,0.0,0.0,0.0,0.0,0.0,0.0,0.0,0.0,0.0,0.0,0.0,0.0,0.0,0.0,0.0,0.0,0.0,0.0,0.0,0.0,0.0,0.0,0.0,0.0,0.0,0.0,0.0,0.0,0.0,0.0,0.0,0.0,0.0,2.3324,2.3912,0.0,0.0,0.0,0.0,0.0,0.0,0.0,0.0,2.521,0.0,0.0,0.0,0.0,0.0,0.0,0.0,0.0,0.0,0.0,0.0,0.0,0.0,0.0,0.0,0.0,0.0,0.0,0.0,0.0,0.0,0.0,0.0,0.0,0.0,0.0,0.0,0.0,0.0,0.0,0.0,0.0,0.0,0.0,0.0,0.0,0.0,0.0,0.0,0.0,0.0,0.0,0.0,0.0,0.0,0.0,0.0,0.0,0.0,0.0,0.0,0.0,0.0,0.0,0.0,1.7211,1.6755,1.6851,1.7535,1.6484,1.5726,1.5348,1.3734,1.2989,0.0,0.0,0.0,0.0,0.0,0.0,0.0,0.0,0.0,0.0,0.0,0.0,0.0,0.0,0.0,0.0,0.0,0.0,0.0,0.0,0.0,0.0,0.0,0.0,0.0,0.0,0.0,0.0,0.0,0.0,0.0,0.0,0.0,0.0,0.0,0.0,0.0,0.0,0.0,0.0,2.38,2.4115,2.4461,0.0,0.0,0.0,0.0,0.0,0.0,2.5032,2.5344,0.0,0.0,0.0,0.0,0.0,0.0,0.0,0.0,0.0,0.0,0.0,0.0,0.0,0.0,0.0,0.0,0.0,0.0,0.0,0.0,0.0,0.0,0.0,0.0,0.0,0.0,0.0,0.0,0.0,0.0,0.0,0.0,0.0,0.0,0.0,0.0,0.0,0.0,0.0,0.0,0.0,0.0,0.0,0.0,0.0,0.0,0.0,0.0,0.0,0.0,0.0,0.0,0.0,0.0,0.0,1.6976,1.6523,1.6718,1.7601,1.648,1.5688,1.5344,1.3311,1.2504,0.0,0.0,0.0,0.0,0.0,0.0,0.0,0.0,0.0,0.0,0.0,0.0,0.0,0.0,0.0,0.0,0.0,0.0,0.0,0.0,0.0,0.0,0.0,0.0,0.0,0.0,0.0,0.0,0.0,0.0,0.0,0.0,0.0,0.0,0.0,0.0,0.0,0.0,0.0,0.0,0.0,2.4229,2.4445,2.4356,0.0,0.0,0.0,0.0,2.476,2.5006,0.0,0.0,0.0,0.0,0.0,0.0,0.0,0.0,0.0,0.0,0.0,0.0,0.0,0.0,0.0,0.0,0.0,0.0,0.0,0.0,0.0,0.0,0.0,0.0,0.0,0.0,0.0,0.0,0.0,0.0,0.0,0.0,0.0,0.0,0.0,0.0,0.0,0.0,0.0,0.0,0.0,0.0,0.0,0.0,0.0,0.0,0.0,0.0,0.0,0.0,0.0,0.0,0.0,0.0,0.0,0.0,1.7795,1.7161,1.6544,1.6023,1.5816,1.5027,1.3564,1.249,1.2289,0.0,0.0,0.0,0.0,0.0,0.0,0.0,0.0,0.0,0.0,0.0,0.0,0.0,0.0,0.0,0.0,0.0,0.0,0.0,0.0,0.0,0.0,0.0,0.0,0.0,0.0,0.0,0.0,0.0,0.0,0.0,0.0,0.0,0.0,0.0,0.0,0.0,0.0,0.0,0.0,0.0,2.4284,2.4321,2.4303,2.4321,0.0,0.0,2.4604,2.4623,2.4953,0.0,0.0,0.0,0.0,0.0,0.0,0.0,0.0,0.0,0.0,0.0,0.0,0.0,0.0,0.0,0.0,0.0,0.0,0.0,0.0,0.0,0.0,0.0,0.0,0.0,0.0,0.0,0.0,0.0,0.0,0.0,0.0,0.0,0.0,0.0,0.0,0.0,0.0,0.0,0.0,0.0,0.0,0.0,0.0,0.0,0.0,0.0,0.0,0.0,0.0,0.0,0.0,0.0,0.0,0.0,1.6669,1.7898,1.6887,1.6321,1.6308,1.5916,1.5092,1.3865,1.224,1.186,0.0,0.0,0.0,0.0,0.0,0.0,0.0,0.0,0.0,0.0,0.0,0.0,0.0,0.0,0.0,0.0,0.0,0.0,0.0,0.0,0.0,0.0,0.0,0.0,0.0,0.0,0.0,0.0,0.0,0.0,0.0,0.0,0.0,0.0,0.0,0.0,0.0,0.0,0.0,0.0,0.0,0.0,2.4339,2.4266,0.0,0.0,0.0,2.4998,2.4647,0.0,0.0,0.0,0.0,0.0,0.0,0.0,0.0,0.0,0.0,0.0,0.0,0.0,0.0,0.0,0.0,0.0,0.0,0.0,0.0,0.0,0.0,0.0,0.0,0.0,0.0,0.0,0.0,0.0,0.0,0.0,0.0,0.0,0.0,0.0,0.0,0.0,0.0,0.0,0.0,0.0,0.0,0.0,0.0,0.0,0.0,0.0,0.0,0.0,0.0,0.0,0.0,0.0,0.0,0.0,0.0,0.0,1.7936,1.6598,1.5978,1.6166,1.5824,1.5083,1.3922,1.2307,0.0,0.0,0.0,0.0,0.0,0.0,0.0,0.0,0.0,0.0,0.0,0.0,0.0,0.0,0.0,0.0,0.0,0.0,0.0,0.0,0.0,0.0,0.0,0.0,0.0,0.0,0.0,1.7441,0.0,0.0,0.0,0.0,0.0,0.0,0.0,0.0,0.0,0.0,0.0,0.0,0.0,0.0,2.48,2.4672,2.456,2.4504,0.0,0.0,2.53,2.4706,2.5458,2.6091,0.0,0.0,0.0,0.0,0.0,0.0,0.0,0.0,0.0,0.0,0.0,0.0,0.0,0.0,0.0,0.0,0.0,0.0,0.0,0.0,0.0,0.0,0.0,0.0,0.0,0.0,0.0,0.0,0.0,0.0,0.0,0.0,0.0,0.0,0.0,0.0,0.0,0.0,0.0,0.0,0.0,0.0,0.0,0.0,0.0,0.0,0.0,0.0,0.0,0.0,0.0,0.0,0.0,0.0,0.0,1.7919,1.6615,1.5461,1.4557,1.5104,1.4615,1.2962,1.2764,1.2644,0.0,0.0,0.0,0.0,0.0,0.0,0.0,0.0,0.0,0.0,0.0,0.0,0.0,0.0,0.0,0.0,0.0,0.0,0.0,0.0,0.0,0.0,0.0,0.0,0.0,0.0,0.0,0.0,0.0,0.0,0.0,0.0,0.0,0.0,0.0,0.0,0.0,0.0,0.0,0.0,0.0,2.6319,2.5461,2.5429,2.5449,0.0,0.0,2.5355,2.4703,2.5442,2.5906,2.5298,0.0,0.0,0.0,0.0,0.0,0.0,0.0,0.0,0.0,0.0,0.0,0.0,0.0,0.0,0.0,0.0,0.0,0.0,0.0,0.0,0.0,0.0,0.0,0.0,0.0,0.0,0.0,0.0,0.0,0.0,0.0,0.0,0.0,0.0,0.0,0.0,0.0,0.0,0.0,0.0,0.0,0.0,0.0,0.0,0.0,0.0,0.0,0.0,0.0,0.0,0.0,0.0,0.0,1.745,1.8637,1.6838,1.5835,1.5661,1.5503,1.4775,1.3511,1.3038,1.2716,0.0,0.0,0.0,0.0,0.0,0.0,0.0,0.0,0.0,0.0,0.0,0.0,0.0,0.0,0.0,0.0,0.0,0.0,0.0,0.0,0.0,0.0,0.0,0.0,0.0,0.0,0.0,0.0,1.9418,2.0144,2.1084,0.0,0.0,0.0,0.0,0.0,0.0,0.0,0.0,0.0,0.0,2.5998,2.6119,2.6197,0.0,0.0,2.6602,2.6577,2.5512,2.6134,2.6337,2.5279,2.5151,0.0,0.0,0.0,0.0,0.0,0.0,0.0,0.0,0.0,0.0,0.0,0.0,0.0,0.0,0.0,0.0,0.0,0.0,0.0,0.0,0.0,0.0,0.0,0.0,0.0,0.0,0.0,0.0,0.0,0.0,0.0,0.0,0.0,0.0,0.0,0.0,0.0,0.0,0.0,0.0,0.0,0.0,0.0,0.0,0.0,0.0,0.0,0.0,0.0,0.0,0.0,0.0,1.8051,1.9075,1.7199,1.6192,1.6156,1.5884,1.5238,1.4242,1.3682,1.3324,0.0,0.0,0.0,0.0,0.0,0.0,0.0,0.0,0.0,0.0,0.0,0.0,0.0,0.0,0.0,0.0,0.0,0.0,0.0,0.0,0.0,0.0,0.0,0.0,0.0,0.0,0.0,0.0,2.0306,2.1022,2.2118,0.0,0.0,0.0,0.0,0.0,0.0,0.0,0.0,0.0,0.0,2.6576,2.6924,2.6961,2.7053,2.7273,2.765,2.7576,2.669,2.7093,2.7056,2.5678,0.0,0.0,0.0,0.0,0.0,0.0,0.0,0.0,0.0,0.0,0.0,0.0,0.0,0.0,0.0,0.0,0.0,0.0,0.0,0.0,0.0,0.0,0.0,0.0,0.0,0.0,0.0,0.0,0.0,0.0,1.4422,0.0,0.0,0.0,0.0,0.0,0.0,0.0,0.0,0.0,0.0,0.0,0.0,0.0,0.0,0.0,0.0,0.0,0.0,0.0,0.0,0.0,0.0,1.9058,1.9086,1.7714,1.6482,1.5516,1.6118,1.5945,1.4929,1.4859,1.4748,1.4537,0.0,0.0,0.0,0.0,0.0,0.0,0.0,0.0,0.0,0.0,0.0,0.0,0.0,0.0,0.0,0.0,0.0,0.0,0.0,0.0,0.0,0.0,0.0,0.0,0.0,0.0,2.0077,2.0934,2.1982,0.0,0.0,0.0,0.0,0.0,0.0,0.0,0.0,0.0,0.0,2.7438,2.865,2.7879,2.7787,2.8081,2.8815,2.8479,2.8145,2.8185,2.8397,2.8048,0.0,0.0,0.0,0.0,0.0,0.0,0.0,0.0,0.0,0.0,0.0,0.0,0.0,0.0,0.0,0.0,0.0,0.0,0.0,0.0,0.0,0.0,0.0,0.0,0.0,0.0,0.0,1.4536,1.5029,0.0,0.0,0.0,0.0,0.0,0.0,0.0,0.0,0.0,0.0,0.0,1.5403,1.5507,0.0,0.0,0.0,0.0,0.0,0.0,0.0,0.0,0.0,0.0,0.0,0.0,1.9354,1.9788,1.7992,1.6959,1.6859,1.6614,1.6227,1.5658,1.5642,1.5502,1.5255,0.0,0.0,0.0,0.0,0.0,0.0,0.0,0.0,0.0,0.0,0.0,0.0,0.0,0.0,0.0,0.0,0.0,0.0,0.0,0.0,0.0,0.0,0.0,0.0,0.0,2.167,0.0,0.0,0.0,0.0,0.0,0.0,0.0,0.0,0.0,0.0,0.0,2.6119,2.6909,2.7695,2.8282,2.8558,2.9072,2.931,0.0,0.0,0.0,0.0,0.0,0.0,0.0,0.0,0.0,0.0,0.0,0.0,0.0,0.0,2.9487,2.7815,2.7237,2.7103,2.7393,0.0,0.0,0.0,0.0,0.0,0.0,0.0,0.0,0.0,0.0,0.0,0.0,0.0,0.0,1.5133,0.0,1.4662,0.0,0.0,0.0,0.0,0.0,0.0,0.0,0.0,1.5088,1.5239,1.5477,1.5551,1.5782,0.0,1.6436,1.6394,0.0,0.0,0.0,0.0,0.0,0.0,0.0,0.0,1.9563,1.9716,1.808,1.7304,1.7469,1.703,1.666,1.637,1.6322,1.6063,1.5602,1.5681,1.6204,0.0,0.0,0.0,0.0,0.0,0.0,0.0,0.0,0.0,0.0,0.0,0.0,0.0,0.0,0.0,0.0,0.0,0.0,0.0,0.0,0.0,0.0,0.0,2.2327,0.0,0.0,0.0,0.0,0.0,0.0,0.0,0.0,0.0,2.5308,2.5856,2.6527,2.7529,2.7981,2.8388,2.8808,0.0,0.0,0.0,0.0,0.0,0.0,0.0,2.9459,2.9003,2.9632,3.009,2.9808,3.1034,3.1788,3.096,0.0,0.0,2.9627,2.8994,2.8869,2.9148,3.0067,3.0873,3.1156,3.2275,3.3503,0.0,0.0,0.0,0.0,0.0,0.0,0.0,0.0,1.5677,1.5868,0.0,1.5145,0.0,0.0,0.0,0.0,0.0,1.6078,0.0,0.0,1.5384,1.5417,1.5506,1.5506,1.5698,1.6057,1.6215,1.6187,1.6116,1.6418,0.0,0.0,0.0,0.0,0.0,0.0,1.9688,1.8831,1.8037,1.7519,1.7304,1.7304,1.7224,1.7092,1.694,1.6467,1.5697,1.615,1.6685,1.7208,1.7239,0.0,0.0,0.0,0.0,0.0,0.0,0.0,0.0,0.0,0.0,0.0,0.0,0.0,0.0,0.0,0.0,0.0,0.0,0.0,0.0,2.2405,0.0,0.0,0.0,0.0,0.0,0.0,0.0,0.0,0.0,0.0,2.6103,2.6874,2.7399,2.7429,0.0,0.0,0.0,0.0,2.9352,3.0212,3.0031,3.0339,3.1901,3.1806,3.1475,3.1435,0.0,0.0,3.1669,3.233,3.2744,3.191,3.2532,3.283,3.1967,3.1088,3.0739,3.1492,3.1749,3.2051,3.2775,3.353,3.4414,1.71,0.0,0.0,0.0,0.0,1.771,1.7769,1.8025,1.699,1.6539,1.6457,1.6321,0.0,0.0,0.0,0.0,0.0,0.0,1.6818,1.663,1.663,1.6825,1.7098,1.7163,1.7379,1.7803,1.7889,1.786,1.7652,1.7787,1.81,1.8562,0.0,0.0,0.0,0.0,2.0077,1.8792,1.8499,1.8035,1.732,1.7304,1.724,1.7108,1.751,1.7273,1.637,1.6964,1.7514,1.7915,1.7915,0.0,0.0,0.0,0.0,0.0,0.0,0.0,0.0,0.0,0.0,0.0,0.0,0.0,0.0,0.0,0.0,0.0,0.0,0.0,2.2432,2.2487,2.2487,0.0,0.0,0.0,0.0,0.0,0.0,0.0,0.0,0.0,2.7118,2.7183,2.7407,0.0,0.0,2.8992,2.9703,2.9866,3.0231,3.1094,3.1383,0.0,3.2128,3.2319,3.2407,3.2329,3.3054,3.3704,3.4072,3.4419,3.4603,3.4334,3.4533,3.4629,3.4395,3.3219,3.2428,3.2604,3.3068,3.3526,3.3801,3.4493,3.5325,1.8012,1.8013,1.8596,1.8724,1.8629,1.8548,1.852,1.8517,1.7745,1.7354,1.7199,1.6986,1.6821,1.6775,1.7112,0.0,0.0,0.0,1.7515,1.733,1.7315,1.7467,1.773,1.7779,1.794,1.8269,1.8331,1.8331,1.8176,1.8254,1.8624,1.9281,0.0,0.0,2.0716,2.0727,2.0119,1.893,1.8897,1.863,1.8084,1.8042,1.8032,1.7951,1.8313,1.8194,1.7476,1.7843,1.8277,1.8607,1.8654,1.8961,0.0,0.0,0.0,0.0,0.0,0.0,0.0,0.0,0.0,0.0,0.0,2.0795,2.0665,0.0,0.0,0.0,2.2175,2.2388,2.2542,2.2552,0.0,0.0,0.0,0.0,0.0,0.0,0.0,2.5005,2.5661,2.6342,2.6986,2.7104,2.7457,2.828,2.8778,2.9348,2.9996,0.0,3.093,3.1476,3.1904,3.2279,3.2617,3.3004,3.3364,3.3662,3.412,3.4617,3.5081,3.527,3.5326,3.5326,3.5326,3.5355,3.5424,3.4578,3.3936,3.3978,3.4385,3.4795,3.5109,3.5595,3.6176,1.906,1.9353,1.9211,1.8833,1.8402,1.9277,1.8812,1.7524,1.8045,1.8136,1.7827,1.7291,1.7406,1.7961,1.8035,0.0,1.8339,1.8389,1.8153,1.7699,1.7674,1.7741,1.7855,1.7811,1.7879,1.8072,1.8089,1.8154,1.8202,1.8298,1.8905,2.0003,1.9972,2.0064,2.021,2.0332,1.9975,1.9115,1.922,1.9248,1.92,1.9264,1.9264,1.92,1.9264,1.9094,1.8708,1.8756,1.8935,1.9288,1.9348,1.9657,2.0258,0.0,0.0,0.0,0.0,0.0,0.0,0.0,0.0,0.0,0.0,0.0,0.0,0.0,0.0,0.0,2.2371,0.0,2.2623,2.2676,0.0,0.0,0.0,2.3891,2.3891,2.4678,2.516,2.5092,0.0,0.0,2.6195,2.6833,2.7513,2.8063,2.9089,2.9799,2.9979,3.0786,3.1421,3.174,3.1989,3.2503,3.3333,3.384,3.4378,3.5092,3.5305,3.5359,3.5474,3.5398,3.534,3.5379,3.5267,3.5223,3.5266,3.5239,3.535,3.5364,3.5435,3.5671,3.6223,3.6381,3.6511,1.9645,1.9734,1.971,1.9564,1.9343,1.9376,1.9185,1.8775,1.8446,1.8021,1.7539,1.7518,1.7826,1.8385,1.8604,1.8685,1.8698,1.9112,1.9276,1.9272,1.9141,1.9403,1.9922,1.9516,1.9331,1.952,1.971,1.9829,1.9829,2.0045,2.0586,2.1383,2.1399,2.1071,2.0469,2.1019,2.06,1.9188,1.9738,1.9754,1.9248,1.9738,1.9754,1.9232,1.9738,1.9624,1.8756,1.9199,1.9421,1.9319,1.978,2.0135,2.0304,2.027,0.0,0.0,0.0,0.0,0.0,0.0,0.0,0.0,0.0,2.1355,2.1354,0.0,2.2135,0.0,2.2443,2.2605,2.2676,2.2703,0.0,0.0,2.4247,2.4729,2.4729,2.5919,2.6584,2.6115,2.6632,2.7068,2.7157,2.7255,2.7646,2.8516,2.8853,2.9668,3.131,3.1283,3.1652,3.3025,3.3073,3.3224,3.4124,3.4696,3.5254,3.6128,3.6243,3.6473,3.714,3.6706,3.6252,3.6214,3.5646,3.5283,3.5293,3.5308,3.5304,3.535,3.5379,3.5407,3.5422,3.5427,3.5396,2.0633,2.0385,2.0385,2.0222,1.9997,2.0036,1.9957,1.9721,1.9345,1.8752,1.7985,1.8072,1.8421,1.893,1.9157,1.9273,1.9275,1.9614,1.9962,2.0275,2.0289,2.0427,2.0715,2.0466,2.0243,2.0061,2.0289,2.041,2.0475,2.1009,2.1542,2.1975,2.2343,2.2274,2.1857,2.1826,2.152,2.1005,2.1132,2.1034,2.0645,2.071,2.0548,2.0159,2.0532,2.0395,1.9657,2.0004,2.0048,1.9783,2.0088,2.0304,2.0304,2.0235,1.9813,0.0,0.0,0.0,0.0,0.0,0.0,0.0,0.0,0.0,0.0,0.0,2.2293,2.2432,2.286,2.3158,2.3168,2.3522,2.3884,2.4315,2.504,2.5488,2.5505,2.6557,2.7158,2.6835,2.7379,2.7676,2.7459,2.7639,2.8105,2.901,2.9097,2.9849,3.1704,3.2055,3.2493,3.3684,3.374,3.3833,3.4619,3.5053,3.5461,3.5895,3.6025,3.6197,3.6658,3.6645,3.646,3.6096,3.5892,3.5665,3.5372,3.5312,3.5277,3.5119,3.5119,3.5086,3.4943,3.4813,3.4637,2.1656,2.1035,2.1035,2.0784,2.0496,2.0855,2.0713,2.0172,2.0128,1.9508,1.8518,1.8618,1.8883,1.9296,1.9562,1.971,1.9727,1.9935,2.0371,2.0937,2.1058,2.1104,2.1084,2.1106,2.092,2.0446,2.0624,2.0743,2.0892,2.1695,2.2184,2.2433,2.3077,2.3533,2.3851,2.2999,2.2721,2.3074,2.2731,2.2539,2.2523,2.1827,2.1438,2.1423,2.1342,2.1151,2.086,2.0827,2.0662,2.0339,2.0339,2.0304,2.0304,2.0204,2.015,0.0,2.0342,0.0,0.0,0.0,0.0,0.0,0.0,0.0,0.0,2.222,2.2439,2.2716,2.3399,2.3822,2.3926,2.4591,2.504,2.516,2.573,2.6178,2.6385,2.6954,2.7333,2.7451,2.8006,2.8094,2.7575,2.8006,2.8645,2.9455,2.9506,3.0169,3.1864,3.2726,3.3259,3.3734,3.403,3.4297,3.4736,3.5088,3.5331,3.5435,3.5618,3.5522,3.5829,3.6201,3.6304,3.5733,3.593,3.6028,3.5392,3.5261,3.5122,3.487,3.4737,3.4601,3.4488,3.4459,3.4319,2.1802,2.131,2.1223,2.1192,2.1185,2.128,2.0671,1.9605,1.9261,1.8498,1.7649,1.819,1.8304,1.8127,1.9159,1.9426,1.9185,1.9954,2.0629,2.1253,2.1206,2.1683,2.2515,2.2248,2.2062,2.2123,2.2342,2.2521,2.2713,2.3015,2.349,2.4042,2.4188,2.4903,2.5988,0.0,0.0,0.0,2.3041,2.3302,2.3286,2.2572,2.2199,2.2183,2.1616,0.0,2.1055,2.1038,2.086,2.0494,2.046,0.0,0.0,0.0,0.0,0.0,0.0,0.0,0.0,0.0,0.0,0.0,2.2677,2.2849,2.2372,2.246,2.2836,2.3502,2.3702,2.4063,2.4712,2.4919,2.5247,2.5833,2.604,2.6592,2.7764,2.7592,2.7538,2.8221,2.8249,2.8234,2.8163,2.8167,2.8716,2.9952,2.9781,3.0332,3.2317,3.2746,3.3136,3.3689,3.4074,3.4367,3.4694,3.4982,3.5452,3.6166,3.644,3.6652,3.7132,3.6891,3.6631,3.6293,3.5921,3.5509,3.5264,3.5035,3.487,3.4812,3.4383,3.3827,3.3324,3.3794,3.4037,2.201,0.0,2.1416,2.1418,0.0,2.1406,2.1109,2.0544,2.0044,1.9251,1.841,1.8141,1.8432,1.9109,1.951,1.9863,2.0144,2.0434,2.0901,2.1541,2.1742,2.2173,2.2828,2.2775,2.2686,2.2437,2.2639,2.2786,2.2927,2.341,2.3871,2.4207,2.4894,2.5637,2.6478,2.6652,2.6,2.4571,2.4551,2.4405,2.4104,2.3029,2.2313,2.2003,2.1566,0.0,0.0,0.0,0.0,0.0,0.0,0.0,0.0,2.0494,0.0,2.0376,2.0829,2.1197,2.126,2.1568,2.2019,2.2689,2.3469,2.3812,2.3539,2.3591,2.383,2.4339,2.4729,2.5109,2.5505,2.5885,2.6203,2.6422,2.6766,2.7247,2.7673,2.7964,2.822,2.8509,2.8989,2.9178,2.8819,2.8699,2.892,2.9709,2.9555,2.9937,3.1557,3.2417,3.3045,3.3689,3.4074,3.4344,3.4526,3.4851,3.5234,3.5822,3.6027,3.6281,3.668,3.6728,3.6569,3.6151,3.5914,3.579,3.5302,3.5037,3.4773,3.4591,3.4213,3.3633,3.2932,3.3075,3.3493,2.2337,2.1798,2.1771,2.1605,2.1247,2.1419,2.1583,2.1627,0.0,0.0,0.0,1.873,1.9083,2.0208,2.016,2.0474,2.1053,2.0809,2.1095,2.1807,2.2315,2.2611,2.2718,2.3295,2.3222,2.2655,2.2863,2.2992,2.3045,2.3692,2.4004,2.4207,2.521,2.5955,2.651,2.7656,2.7923,2.7206,2.633,2.5631,2.516,2.3569,2.2475,2.1982,2.1626,2.1371,2.123,2.1199,2.1023,2.0827,2.0628,2.0527,2.046,2.0441,2.0323,2.0289,2.1021,2.1374,2.1182,2.1966,2.2807,2.3658,2.4357,2.4768,2.4705,2.4671,2.4846,2.5166,2.5717,2.6113,2.6299,2.6902,2.7188,2.6961,2.7453,2.7717,2.7545,2.811,2.8557,2.8643,2.9295,2.9726,2.903,2.8864,2.9004,2.9124,2.9039,2.9506,3.08,3.2122,3.3124,3.3707,3.403,3.4232,3.4357,3.4715,3.507,3.5248,3.5407,3.5493,3.5589,3.6056,3.6138,3.5605,3.5929,3.5883,3.5359,3.4982,3.4714,3.4379,3.4136,3.3788,3.316,3.2803,3.303,2.3135,2.2525,2.2525,2.1815,2.0694,2.1534,2.1737,2.143,2.1224,2.0536,1.968,2.0519,2.0354,1.9469,2.0711,2.0896,2.0399,2.0592,2.1095,2.1821,2.2526,2.2904,2.3069,2.4044,2.4273,2.3876,2.4172,2.4429,2.4619,2.4436,2.4523,2.4784,2.4686,2.5554,2.7214,2.8871,2.9407,2.8739,2.7463,2.6782,2.6651,2.4636,2.3506,2.3358,2.2212,2.1495,2.1402,2.1355,2.1198,2.0827,2.0761,2.0628,2.0357,2.0595,2.0728,2.0744,2.1939,2.2365,2.1774,2.3217,2.4461,2.5188,2.5406,2.5217,2.4669,2.4645,2.5039,2.5764,2.6,2.6341,2.7023,2.7213,2.7262,2.7365,2.7479,2.7868,2.8509,2.8143,2.803,2.8493,2.8444,2.8472,2.8357,2.8159,2.8313,2.8847,2.8747,2.8905,3.0781,3.2277,3.3277,3.3707,3.3921,3.4105,3.4284,3.4653,3.4963,3.5174,3.5354,3.5474,3.5507,3.5647,3.5691,3.5432,3.5552,3.5423,3.5051,3.4735,3.4551,3.4334,3.4111,3.3938,3.4064,3.3671,3.3141,2.3138,2.2239,2.2008,2.17,2.144,2.1968,2.1962,2.1595,2.1583,2.0949,2.0041,2.0146,2.0194,2.0263,2.0353,2.0628,2.0932,2.0501,2.0772,2.1609,2.2477,2.2904,2.302,2.4491,2.4957,2.4513,2.4798,2.5066,2.5093,2.4768,2.4625,2.4887,2.562,2.6723,2.7976,2.9327,2.9701,2.9091,2.8059,2.7213,2.657,2.5118,2.4016,2.3292,2.2569,2.1997,2.1511,2.1433,2.1261,2.0958,2.086,2.0695,2.0441,2.0509,2.0577,2.076,2.1843,2.2473,2.2363,2.4039,2.5141,2.5412,2.5832,2.5967,2.5728,2.5824,2.6104,2.6475,2.6559,2.6696,2.707,2.6925,2.6927,2.7208,2.7377,2.7656,2.8083,2.811,2.8041,2.8076,2.7895,2.7908,2.8339,2.8124,2.8281,2.9034,2.8854,2.9454,3.1305,3.2107,3.2744,3.3385,3.3788,3.4005,3.416,3.448,3.4772,3.5,3.519,3.5369,3.546,3.5474,3.5474,3.546,3.5412,3.5235,3.4978,3.4832,3.4632,3.4334,3.4218,3.4279,3.4414,3.381,3.3026,2.3293,2.2184,2.1775,2.1737,2.211,2.203,2.1901,2.1776,2.1753,2.1254,2.0511,1.9987,2.0326,2.0983,2.0481,2.0729,2.1443,2.0754,2.0833,2.1722,2.2592,2.2944,2.3098,2.4835,2.5388,2.4972,2.5137,2.5314,2.5314,2.4762,2.4552,2.4822,2.6505,2.7767,2.8436,2.9435,2.9593,2.8878,2.8305,2.7536,2.6485,2.5471,2.4447,2.3487,2.301,2.2518,2.1899,2.1531,2.1246,2.1055,2.0827,2.0662,2.046,2.0323,2.0339,2.0639,2.1655,2.2634,2.3441,2.4696,2.5497,2.5581,2.6133,2.652,2.6572,2.6725,2.6859,2.6959,2.6842,2.6808,2.6826,2.6637,2.6598,2.6945,2.7299,2.7569,2.7643,2.7982,2.8104,2.7736,2.7517,2.7615,2.8121,2.8118,2.8214,2.886,2.9343,3.0231,3.1392,3.1813,3.2463,3.2886,3.357,3.3979,3.403,3.434,3.4647,3.4812,3.5001,3.5157,3.5251,3.522,3.5076,3.5019,3.5004,3.484,3.4746,3.485,3.4641,3.4247,3.4008,3.4073,3.3958,3.3192,3.2659,2.4034,2.3263,2.2708,2.2469,2.1992,2.1198,2.1221,2.1788,2.1474,2.1262,2.11,2.1498,2.1436,2.1323,2.1844,2.1948,2.1762,2.1514,2.1799,2.2578,2.3067,2.3365,2.3566,2.4904,2.5392,2.5147,2.5136,2.5357,2.5529,2.4449,2.3999,2.4519,2.6228,2.7458,2.8178,2.9198,2.9194,2.8158,2.8171,2.7877,2.7147,2.5859,2.5112,2.4911,2.3586,2.2828,2.249,2.1729,2.1103,2.0827,2.0628,2.046,2.0339,2.0185,2.0135,2.0216,2.1677,2.3406,2.5219,2.5376,2.5614,2.6301,2.6383,2.645,2.645,2.6485,2.6623,2.6742,2.6555,2.64,2.6468,2.6504,2.6645,2.6968,2.7359,2.7751,2.788,2.7898,2.7849,2.7799,2.7333,2.7288,2.744,2.7478,2.7662,2.8616,2.9712,3.037,3.0436,3.1635,3.2523,3.2488,3.3185,3.3975,3.4105,3.4381,3.4561,3.4647,3.4792,3.4889,3.481,3.4352,3.3838,3.4091,3.4072,3.4006,3.4061,3.4353,3.4527,3.3791,3.3506,3.345,3.2889,3.2206,3.201,2.3591,2.2211,2.1939,2.1867,2.1882,2.1541,2.1606,2.1864,2.1682,2.1456,2.1181,2.1146,2.1146,2.1187,2.1293,2.1296,2.1284,2.1269,2.1639,2.2387,2.3286,2.3712,2.3754,2.5313,2.5705,2.5019,2.5429,2.556,2.5361,2.497,2.4948,2.5358,2.6674,2.747,2.7839,2.8948,2.9178,2.8444,2.8183,2.7838,2.7247,2.6343,2.5395,2.4497,2.3851,2.2963,2.1971,2.1407,2.1006,2.0662,2.0527,2.0392,2.0185,2.01,2.0135,2.035,2.1882,2.3544,2.5157,2.5153,2.5248,2.5556,2.5535,2.5556,2.5594,2.561,2.5705,2.5852,2.5977,2.6052,2.6238,2.6134,2.633,2.7076,2.7303,2.7437,2.7849,2.7131,2.672,2.6939,2.6253,2.6106,2.6963,2.7976,2.8864,2.9626,3.0475,3.063,3.0657,3.1258,3.1678,3.2087,3.2703,3.3353,3.3926,3.4203,3.4409,3.4542,3.4668,3.4675,3.4169,3.3941,3.3557,3.3268,3.3257,3.3188,3.3013,3.3306,3.3513,3.3001,3.2982,3.2934,3.2691,3.2034,3.1866,2.2946,2.1406,2.1209,2.13,2.1464,2.181,2.1854,2.1729,2.1861,2.1564,2.1053,2.0711,2.0711,2.0794,2.0643,2.0657,2.0883,2.1124,2.1599,2.2291,2.3468,2.396,2.4145,2.5469,2.5893,2.5409,2.5756,2.5741,2.5261,2.5466,2.5678,2.5934,2.6865,2.7479,2.7765,2.8842,2.9163,2.8731,2.8388,2.7958,2.7309,2.6823,2.5942,2.4646,2.3968,2.3079,2.1908,2.1344,2.0909,2.0478,2.0562,2.0531,2.0355,2.032,2.0431,2.0834,2.2202,2.3579,2.4681,2.4902,2.4965,2.4902,2.4902,2.4942,2.4965,2.4965,2.5076,2.5267,2.5486,2.5758,2.5957,2.5971,2.6408,2.7211,2.7204,2.7342,2.7655,2.6778,2.6489,2.6726,2.6306,2.5858,2.7096,2.8618,2.9943,3.053,3.0842,3.0904,3.1009,3.0856,3.0952,3.1408,3.1792,3.2653,3.3739,3.3753,3.3918,3.4091,3.4145,3.3944,3.3582,3.3564,3.3352,3.2978,3.2772,3.2575,3.2464,3.257,3.2718,3.2354,3.2172,3.211,3.1823,3.1487,3.1357,2.2228,2.1197,2.1237,2.0918,2.0497,2.1583,2.1812,2.1386,2.1718,2.1433,2.0733,2.0571,2.0324,1.9998,2.0493,2.0737,2.0744,2.1464,2.2061,2.2645,2.3389,2.4144,2.4966,2.5355,2.5851,2.6088,2.5991,2.5646,2.5085,2.5568,2.5824,2.5704,2.6638,2.7414,2.8027,2.8779,2.8971,2.8748,2.8893,2.8427,2.7328,2.7226,2.673,2.5779,2.3967,2.3047,2.2905,2.1607,2.0657,2.0441,2.0793,2.0983,2.0946,2.0835,2.1016,2.1663,2.2653,2.3582,2.4246,2.4623,2.4823,2.4863,2.4784,2.4863,2.4768,2.4784,2.493,2.5265,2.5296,2.5474,2.5749,2.629,2.6665,2.6937,2.7304,2.752,2.761,2.7415,2.7505,2.752,2.734,2.7448,2.8048,2.9207,3.0051,3.0553,3.0988,3.11,3.0623,3.0671,3.0584,3.0297,3.0765,3.1902,3.3372,3.3176,3.289,3.3157,3.3328,3.3109,3.3278,3.3291,3.2959,3.2678,3.2397,3.2173,3.2039,3.2064,3.2216,3.1877,3.1136,3.088,3.1064,3.0624,3.0644,2.1341,2.0566,2.0291,2.0528,2.1149,2.1518,2.1543,2.1386,2.1508,2.1237,2.0562,2.0042,1.9649,1.9407,1.9253,1.9507,2.0031,2.0653,2.1179,2.1756,2.2777,2.3696,2.4567,2.5188,2.5465,2.5562,2.5819,2.5686,2.5369,2.5563,2.5631,2.5841,2.6643,2.7378,2.7879,2.8685,2.9178,2.9295,2.9202,2.887,2.8359,2.7184,2.6488,2.6562,2.4844,2.3573,2.3012,2.2196,2.1672,2.1452,2.1569,2.1591,2.1499,2.1437,2.1659,2.2289,2.2697,2.3186,2.3746,2.3979,2.4048,2.4063,2.4048,2.409,2.409,2.4078,2.4295,2.4759,2.5274,2.5652,2.6167,2.6525,2.6864,2.727,2.7475,2.761,2.7485,2.723,2.7145,2.7605,2.794,2.822,2.8606,2.9374,3.021,3.087,3.142,3.1266,3.0685,3.057,3.0281,2.9753,2.9753,3.0386,3.1897,3.2019,3.1955,3.241,3.2604,3.2408,3.2427,3.2279,3.1948,3.2134,3.1916,3.1499,3.1293,3.1244,3.1428,3.1244,3.0486,3.046,3.0434,3.0578,3.0727,2.0361,2.0117,1.9765,2.0286,2.1215,2.1426,2.1319,2.1118,2.1297,2.0952,2.0172,1.9573,1.9121,1.8798,1.8405,1.8472,1.9054,1.9683,2.0257,2.0782,2.2176,2.3276,2.4137,2.4935,2.5329,2.5348,2.5683,2.5743,2.555,2.5605,2.5688,2.5893,2.6759,2.7378,2.783,2.8716,2.935,2.9553,2.9485,2.9411,2.9001,2.7547,2.6705,2.6673,2.547,2.4207,2.3159,2.2696,2.2301,2.197,2.2073,2.2154,2.2034,2.2148,2.233,2.2569,2.2835,2.3118,2.3477,2.3595,2.3595,2.361,2.3595,2.3595,2.3595,2.3595,2.3924,2.4522,2.5226,2.5839,2.6228,2.6632,2.7096,2.7535,2.7625,2.7675,2.7645,2.7349,2.7384,2.7883,2.8235,2.8558,2.8889,2.9569,3.0311,3.1094,3.1315,3.0953,3.0566,2.9894,2.9503,2.908,2.8977,2.9402,3.0427,3.0812,3.1132,3.1586,3.2162,3.1912,3.1875,3.1579,3.1432,3.1577,3.1338,3.0867,3.0598,3.0511,3.0482,3.0492,3.0472,3.0432,3.0622,3.095,3.0934,1.9432,1.9827,1.9817,2.0004,2.054,2.1118,2.1025,2.049,2.0985,2.05,1.9518,1.9243,1.8854,1.8337,1.8066,1.793,1.8037,1.888,1.9465,1.9922,2.1569,2.2845,2.3664,2.4553,2.5286,2.5755,2.5825,2.5743,2.5494,2.5702,2.5907,2.6204,2.6967,2.7515,2.773,2.8811,2.9486,2.9572,2.9876,2.9727,2.8958,2.8265,2.7578,2.6828,2.5614,2.4571,2.3809,2.3061,2.2432,2.1924,2.2338,2.2626,2.2617,2.2933,2.2994,2.2638,2.3094,2.3465,2.3538,2.3566,2.3595,2.3638,2.3595,2.3595,2.3595,2.361,2.3879,2.4567,2.509,2.56,2.5824,2.6692,2.738,2.7595,2.7615,2.779,2.7825,2.789,2.8103,2.8348,2.851,2.8764,2.9212,2.9761,3.0319,3.0572,3.0432,3.0035,2.9941,2.9009,2.8076,2.7988,2.8386,2.8978,2.9382,2.9775,3.0277,3.0783,3.1413,3.1681,3.1954,3.1876,3.1622,3.1642,3.0998,3.054,3.055,3.0482,3.0462,3.0462,3.0432,3.0464,3.0672,3.0856,3.087,1.9452,1.9899,1.9462,1.9619,1.9972,2.019,2.0012,1.9839,1.9929,1.9701,1.9253,1.8654,1.8269,1.7998,1.7657,1.7442,1.7373,1.7765,1.8287,1.9003,2.0224,2.1522,2.276,2.3962,2.4935,2.5467,2.5397,2.523,2.5244,2.5481,2.5702,2.5988,2.6759,2.7378,2.773,2.8732,2.9305,2.9515,2.9886,2.9903,2.9577,2.8543,2.7769,2.726,2.5879,2.4745,2.4045,2.3641,2.3288,2.2951,2.3121,2.324,2.3255,2.3375,2.3347,2.3227,2.336,2.3596,2.3711,2.3754,2.3782,2.3839,2.3797,2.3739,2.3739,2.3653,2.3894,2.4462,2.476,2.4967,2.5503,2.6202,2.6837,2.7063,2.7504,2.784,2.8005,2.8171,2.835,2.8494,2.8904,2.9082,2.9018,2.9459,2.979,2.9638,2.9624,2.9658,2.8951,2.8523,2.7997,2.7714,2.8192,2.8578,2.9008,2.9651,3.0384,3.0808,3.1292,3.1876,3.2141,3.1688,3.156,3.1148,3.0528,3.0289,3.0337,3.0472,3.0451,3.046,3.0451,3.0511,3.0599,3.0702,3.0788,1.9305,1.9798,1.925,1.9334,1.9765,1.9674,1.9473,1.9372,1.9519,1.9287,1.8771,1.8448,1.8076,1.7764,1.7382,1.7235,1.7166,1.7107,1.7442,1.8162,1.9257,2.0523,2.1906,2.3526,2.4465,2.4835,2.4948,2.4948,2.4821,2.5257,2.5592,2.5825,2.6759,2.7414,2.778,2.8574,2.9198,2.9396,2.9621,2.971,2.9376,2.8307,2.7499,2.7099,2.562,2.4595,2.4094,2.3839,2.3625,2.3523,2.3494,2.3538,2.361,2.3538,2.3494,2.3538,2.3581,2.3625,2.3797,2.394,2.3967,2.3982,2.3967,2.3867,2.3797,2.3653,2.3805,2.4075,2.4357,2.4593,2.5008,2.5886,2.6479,2.6907,2.761,2.8091,2.8381,2.8605,2.8592,2.8606,2.8815,2.8762,2.8597,2.8644,2.9059,2.8688,2.8816,2.9006,2.8254,2.801,2.7713,2.7659,2.806,2.8416,2.8694,2.9509,3.0486,3.0966,3.1364,3.204,3.2524,3.1224,3.057,2.989,2.9252,2.9274,2.9342,3.0132,3.0411,3.044,3.0317,3.0497,3.0565,3.0763,3.084,1.8909,1.942,1.9032,1.9209,1.9692,1.9586,1.9316,1.9065,1.9551,1.9267,1.8468,1.8457,1.8129,1.7634,1.7292,1.7166,1.7166,1.7038,1.7047,1.7569,1.8613,1.9901,2.1272,2.311,2.3989,2.4047,2.4513,2.4697,2.458,2.5078,2.5564,2.5825,2.6797,2.7515,2.778,2.859,2.9045,2.9029,2.9213,2.9198,2.9042,2.7826,2.7044,2.6898,2.5265,2.4216,2.4048,2.3728,2.3509,2.3363,2.3494,2.3625,2.361,2.3581,2.3581,2.3581,2.361,2.3739,2.3867,2.4177,2.4261,2.4109,2.4094,2.3994,2.3782,2.3581,2.3437,2.354,2.3925,2.425,2.4515,2.55,2.6552,2.7315,2.8042,2.859,2.9029,2.9075,2.8962,2.8678,2.8462,2.8244,2.7906,2.7883,2.7996,2.7927,2.7773,2.7851,2.7725,2.7453,2.7385,2.7572,2.7913,2.8442,2.8816,2.9655,3.0635,3.1274,3.1492,3.1796,3.202,3.0678,2.9661,2.8951,2.8364,2.8357,2.8666,2.9476,2.9882,2.9758,2.989,3.0271,3.0544,3.0703,3.0723,1.9033,1.9103,1.9211,1.9254,1.9069,1.9039,1.9137,1.9298,1.9202,1.9234,1.901,1.8508,1.8151,1.7887,1.7237,1.6968,1.6968,1.6908,1.6908,1.7107,1.7765,1.9444,2.1169,2.2445,2.3327,2.3702,2.3733,2.3896,2.4456,2.4791,2.5189,2.5879,2.664,2.7225,2.7575,2.822,2.8541,2.8621,2.8764,2.8842,2.867,2.7904,2.7347,2.6919,2.5482,2.4579,2.4283,2.382,2.3566,2.3566,2.3867,2.4009,2.3925,2.3909,2.3909,2.3882,2.3909,2.4036,2.4261,2.4508,2.4549,2.4359,2.412,2.3967,2.3581,2.3348,2.3172,2.3142,2.3377,2.3881,2.4522,2.5513,2.6717,2.828,2.8826,2.9029,2.9213,2.9335,2.9374,2.9303,2.8936,2.8375,2.7867,2.764,2.7427,2.6847,2.6924,2.7141,2.7007,2.7012,2.6945,2.7351,2.7759,2.8456,2.9125,2.9937,3.0734,3.1531,3.1635,3.1353,3.0969,2.9794,2.9087,2.8517,2.7923,2.7767,2.821,2.8857,2.8916,2.9396,2.9839,3.0387,3.0425,3.0519,3.0477,1.8547,1.8368,1.8582,1.8677,1.8654,1.8624,1.8731,1.898,1.9063,1.8992,1.8945,1.8504,1.8157,1.7896,1.7292,1.6968,1.6908,1.6908,1.6908,1.7047,1.7706,1.9079,2.0707,2.1667,2.2604,2.3408,2.3373,2.3887,2.46,2.4736,2.5204,2.5877,2.6457,2.6945,2.7335,2.784,2.8152,2.8201,2.8253,2.8334,2.8352,2.7349,2.6963,2.6546,2.5454,2.4552,2.4462,2.4223,2.404,2.4,2.4219,2.4359,2.4343,2.4302,2.4261,2.4193,2.4177,2.4234,2.44,2.4589,2.4589,2.4302,2.3964,2.3608,2.3246,2.2859,2.2569,2.3051,2.3158,2.3853,2.5082,2.624,2.7643,2.893,2.9441,2.9576,2.9649,2.9754,2.9653,2.9389,2.8832,2.8102,2.7365,2.7153,2.6629,2.6171,2.6422,2.6501,2.6514,2.6535,2.6741,2.7214,2.7452,2.7998,2.8287,2.8922,2.954,3.0434,3.108,3.0869,3.065,2.9514,2.8657,2.8147,2.7566,2.7331,2.7865,2.8554,2.9435,2.9906,3.023,3.0369,3.0436,3.0424,3.0344,1.788,1.7619,1.7734,1.7989,1.8398,1.8324,1.8273,1.8385,1.8864,1.8923,1.8647,1.8475,1.829,1.7837,1.7502,1.7162,1.6978,1.6978,1.7047,1.7314,1.792,1.9008,2.0118,2.0978,2.2002,2.3002,2.3564,2.4195,2.4738,2.4964,2.53,2.577,2.6244,2.6683,2.7063,2.7539,2.769,2.774,2.7725,2.7825,2.7689,2.6823,2.6378,2.6284,2.5354,2.4536,2.4567,2.4701,2.4802,2.4456,2.4637,2.4973,2.5033,2.4879,2.4637,2.4565,2.441,2.4291,2.4302,2.4508,2.4426,2.4036,2.3535,2.3172,2.2875,2.2402,2.2339,2.2956,2.3268,2.4436,2.609,2.7796,2.8869,2.9661,3.0044,3.0189,3.0258,3.0215,2.9884,2.9114,2.8396,2.7582,2.6828,2.62,2.5754,2.6065,2.6264,2.6426,2.65,2.6657,2.6894,2.7282,2.7419,2.7403,2.7555,2.7742,2.825,2.8925,2.9733,3.0116,3.0852,3.0002,2.8678,2.7859,2.772,2.7547,2.7501,2.8411,2.9623,3.0038,3.0125,3.0311,3.0488,3.0434,3.0375,1.8252,1.7968,1.8429,1.8367,1.8147,1.8288,1.8258,1.8041,1.8655,1.8982,1.899,1.8759,1.8521,1.8439,1.7881,1.7502,1.7269,1.732,1.7451,1.7569,1.7852,1.8944,1.9967,2.0675,2.1663,2.2896,2.3386,2.4047,2.4835,2.5145,2.5258,2.5412,2.5865,2.6312,2.6563,2.7063,2.7335,2.7321,2.7306,2.7342,2.7357,2.6935,2.6421,2.612,2.5387,2.4745,2.4401,2.5212,2.5691,2.5641,2.6025,2.6435,2.6346,2.59,2.5483,2.5144,2.472,2.4405,2.4343,2.441,2.4354,2.3809,2.3201,2.2876,2.274,2.231,2.224,2.2826,2.3894,2.5409,2.7572,2.9022,2.98,3.0293,3.041,3.0493,3.0707,3.0435,2.9854,2.9148,2.8355,2.7606,2.6805,2.6243,2.5979,2.6023,2.6206,2.645,2.6623,2.6759,2.7029,2.7368,2.7503,2.7535,2.7617,2.7751,2.8051,2.8359,2.8929,2.9547,3.0308,3.0276,2.8875,2.8284,2.8135,2.7947,2.7804,2.8649,2.9943,2.998,3.0079,3.0355,3.0542,3.0479,3.024,1.8018,1.7744,1.7939,1.7974,1.7835,1.8051,1.7911,1.7686,1.8375,1.8666,1.8492,1.8318,1.8385,1.8497,1.815,1.7887,1.7844,1.7948,1.7872,1.7927,1.827,1.9093,1.9923,2.0817,2.1943,2.3729,2.387,2.4498,2.5287,2.5184,2.4908,2.505,2.5398,2.5728,2.6108,2.6683,2.7026,2.699,2.677,2.6791,2.7093,2.6497,2.6115,2.558,2.518,2.4685,2.4882,2.55,2.6092,2.6576,2.7219,2.7504,2.72,2.6688,2.6204,2.5686,2.5184,2.4568,2.43,2.4063,2.3879,2.3319,2.268,2.2207,2.1941,2.1636,2.1863,2.2516,2.3749,2.5454,2.8115,2.9416,3.0201,3.0658,3.0699,3.0599,3.0419,3.0078,2.9708,2.9075,2.8214,2.748,2.6787,2.6258,2.6142,2.617,2.6469,2.6691,2.6908,2.7055,2.7152,2.7405,2.7594,2.771,2.7791,2.7938,2.8181,2.8446,2.8721,2.9295,2.9944,2.9572,2.8951,2.8878,2.8925,2.8512,2.8532,2.9437,3.0081,3.0312,3.05,3.0612,3.0492,3.0192,2.9931,1.7552,1.7317,1.7156,1.7249,1.7516,1.769,1.746,1.7156,1.7925,1.8123,1.7755,1.7716,1.8119,1.8253,1.8247,1.8231,1.8392,1.8493,1.8318,1.8257,1.8815,1.9473,2.0131,2.1053,2.2388,2.4696,2.4606,2.5096,2.5387,2.5172,2.4713,2.4738,2.4867,2.5204,2.5714,2.639,2.673,2.6659,2.6506,2.6287,2.6528,2.5683,2.5238,2.478,2.4743,2.4652,2.5137,2.5832,2.6456,2.7056,2.7951,2.8015,2.7595,2.7078,2.6671,2.5904,2.5198,2.4379,2.3786,2.3551,2.3319,2.274,2.2128,2.1704,2.1417,2.1575,2.1931,2.2785,2.4019,2.5814,2.8115,2.958,3.0435,3.0811,3.0954,3.0488,2.9945,2.9521,2.9065,2.8695,2.7859,2.7148,2.6726,2.627,2.6286,2.6383,2.6691,2.6956,2.7181,2.7338,2.7448,2.7539,2.7744,2.7887,2.7964,2.8187,2.8443,2.8546,2.8694,2.9206,2.9725,2.9775,2.9645,2.9832,2.9794,2.94,2.9324,3.0,3.0505,3.0756,3.0762,3.0701,3.0355,2.9928,2.9669,1.735,1.7156,1.7091,1.7158,1.7246,1.7206,1.6967,1.6788,1.7412,1.7649,1.7482,1.7918,1.8066,1.8124,1.8276,1.8337,1.8437,1.8495,1.8653,1.8825,1.9228,1.965,2.0411,2.115,2.2378,2.3706,2.4254,2.4641,2.4864,2.4845,2.4184,2.4079,2.4275,2.4673,2.5301,2.6026,2.6307,2.6192,2.6214,2.606,2.5543,2.5163,2.4626,2.4173,2.432,2.4469,2.4716,2.6176,2.7055,2.6334,2.745,2.7962,2.7719,2.701,2.6364,2.5832,2.4849,2.394,2.3319,2.3172,2.3083,2.2814,2.2388,2.2282,2.2392,2.2757,2.3054,2.3924,2.5551,2.7623,2.9638,3.0549,3.1291,3.161,3.1196,3.0623,3.0281,2.9365,2.8289,2.8052,2.7433,2.692,2.6614,2.6476,2.6588,2.6741,2.7019,2.7334,2.7624,2.7713,2.7789,2.7829,2.7904,2.8035,2.8146,2.8416,2.867,2.8706,2.8912,2.9302,2.9821,3.029,3.0471,3.0557,3.0592,3.0365,3.0482,3.0555,3.0611,3.0622,3.0651,3.0671,3.039,3.0054,2.9547,1.7396,1.7389,1.7054,1.699,1.7083,1.7034,1.6646,1.6277,1.6944,1.7032,1.6815,1.71,1.7503,1.7662,1.7705,1.788,1.8241,1.8443,1.8618,1.8831,1.9044,1.9438,2.0149,2.0889,2.1564,2.2303,2.2922,2.3624,2.3673,2.3116,2.3052,2.2783,2.2933,2.3556,2.4491,2.5152,2.5669,2.5741,2.5631,2.5336,2.4941,2.4726,2.4192,2.4123,2.4017,2.4143,2.4784,2.5349,2.6436,2.6589,2.723,2.7535,2.736,2.6722,2.6048,2.5807,2.4906,2.389,2.3216,2.3091,2.2994,2.274,2.2634,2.2757,2.3069,2.351,2.4396,2.5766,2.6946,2.8969,3.0473,3.1231,3.1826,3.2057,3.1427,3.0845,3.0334,2.9181,2.8403,2.7777,2.7299,2.6907,2.6616,2.6623,2.6825,2.7051,2.7365,2.7695,2.8,2.8101,2.8128,2.821,2.8273,2.8378,2.8482,2.8651,2.8858,2.8923,2.9017,2.9418,2.9704,3.0074,3.0691,3.1121,3.1121,3.0886,3.0219,2.9834,3.0132,3.0418,3.0302,3.0255,3.0345,3.0167,2.9512,1.7279,1.7369,1.6911,1.6735,1.6799,1.6733,1.6376,1.6029,1.6545,1.6478,1.5988,1.6321,1.674,1.6957,1.6929,1.7092,1.7784,1.8162,1.8254,1.8485,1.8822,1.9161,1.9683,2.0219,2.0863,2.1083,2.1545,2.2141,2.2845,2.2217,2.1744,2.2171,2.2185,2.2729,2.4162,2.4708,2.5149,2.5223,2.5135,2.478,2.4699,2.4239,2.3868,2.3948,2.3568,2.3981,2.4673,2.5155,2.5748,2.6353,2.6828,2.6997,2.6894,2.6112,2.5698,2.5704,2.5121,2.4197,2.3406,2.3209,2.3201,2.3157,2.3274,2.3513,2.4045,2.491,2.6005,2.7833,2.9181,3.0033,3.1082,3.1683,3.1999,3.1958,3.1466,3.0742,3.0118,2.9347,2.8774,2.8105,2.7414,2.7209,2.7229,2.6956,2.7227,2.747,2.7783,2.8037,2.8344,2.844,2.8492,2.8612,2.8687,2.8785,2.8839,2.891,2.9062,2.9085,2.9141,2.9405,2.9569,2.9756,3.0415,3.1027,3.1015,3.0659,2.9863,2.9403,2.9876,3.0091,2.9874,2.9966,3.0321,2.9819,2.8955,1.6698,1.6381,1.6324,1.6302,1.6325,1.5841,1.59,1.6167,1.6205,1.6184,1.6045,1.6422,1.6391,1.6175,1.5663,1.6218,1.6987,1.7339,1.759,1.8081,1.8615,1.9097,1.9747,1.9963,2.0106,2.0331,2.0802,2.1843,2.2424,2.2116,2.228,2.2818,2.2797,2.3607,2.4379,2.444,2.4794,2.5155,2.5565,2.5365,2.4577,2.3703,2.3267,2.3235,2.3535,2.3961,2.4443,2.4867,2.54,2.5856,2.6242,2.6428,2.6395,2.5645,2.5152,2.4807,2.4262,2.3468,2.2965,2.3231,2.3779,2.4013,2.4451,2.4888,2.5584,2.6719,2.8006,2.9215,3.0612,3.1391,3.1619,3.19,3.1966,3.1488,3.0837,3.0287,2.9771,2.9383,2.8851,2.8833,2.8272,2.8259,2.8281,2.7879,2.7624,2.7915,2.8165,2.8448,2.8644,2.8743,2.8712,2.8737,2.8852,2.8947,2.9044,2.9134,2.92,2.924,2.931,2.9398,2.9606,2.9815,3.0032,3.0497,3.0578,3.0571,2.9979,2.9745,2.9882,2.9965,3.0023,3.0249,3.0537,2.9691,2.8859,1.6501,1.6412,1.6005,1.5942,1.5965,1.5605,1.5576,1.5723,1.5762,1.5693,1.5723,1.5879,1.5798,1.5566,1.5551,1.579,1.6066,1.6365,1.6773,1.7246,1.7774,1.8256,1.8713,1.9085,1.9334,1.9616,2.0134,2.1054,2.1663,2.1583,2.1456,2.2127,2.2178,2.2566,2.4113,2.4065,2.4317,2.4652,2.4881,2.4717,2.4343,2.4074,2.3804,2.3595,2.3923,2.4238,2.467,2.449,2.5232,2.5882,2.6347,2.6418,2.6395,2.5792,2.4982,2.4459,2.4149,2.3717,2.3458,2.3759,2.4297,2.4916,2.5517,2.6317,2.7267,2.8286,2.9593,3.0995,3.1342,3.1762,3.2038,3.2125,3.174,3.1189,3.0342,3.0268,2.9881,2.9263,2.8934,2.903,2.9159,2.9083,2.8945,2.8551,2.821,2.8298,2.8597,2.8879,2.8989,2.9012,2.8915,2.8785,2.89,2.9017,2.9112,2.9222,2.9291,2.9351,2.9411,2.9532,2.9784,2.9992,3.0155,3.0321,3.0548,3.0385,3.0027,2.9891,2.9853,3.0044,3.0272,3.049,3.0695,3.0598,2.9692,1.601,1.6067,1.5717,1.559,1.5648,1.5439,1.5362,1.542,1.543,1.543,1.5332,1.5124,1.4915,1.4874,1.5032,1.4744,1.4595,1.5457,1.5835,1.6084,1.6569,1.729,1.7868,1.8352,1.8692,1.8924,1.997,2.0899,2.1379,2.1488,2.1551,2.1572,2.2038,2.2471,2.3277,2.3955,2.4468,2.555,2.5186,2.5037,2.5068,2.5045,2.4863,2.4712,2.4651,2.4841,2.5455,2.5213,2.5737,2.713,2.7235,2.7315,2.742,2.6475,2.5638,2.5129,2.4759,2.4601,2.4606,2.4822,2.5012,2.5675,2.661,2.7683,2.8717,2.9512,3.0132,3.1523,3.1725,3.1922,3.2052,3.181,3.1166,3.0604,3.0062,3.021,3.0327,2.9986,2.9758,2.9866,2.9901,2.9606,2.9402,2.9062,2.8855,2.8814,2.9038,2.9332,2.9219,2.9042,2.8706,2.8406,2.8036,2.826,2.8666,2.887,2.9109,2.9454,2.9512,2.9608,2.982,2.9996,3.0114,3.0309,3.0492,3.0366,3.0102,2.9931,2.9785,2.9879,3.0056,3.0581,3.0814,3.0769,3.0219,1.4988,1.4782,1.5173,1.5308,1.5214,1.5225,1.5313,1.542,1.542,1.542,1.5283,1.4468,1.4179,1.4057,1.38,1.3484,1.3475,1.4488,1.4917,1.5233,1.5761,1.6796,1.7435,1.788,1.8507,1.9837,2.0437,2.1059,2.1894,2.252,2.2818,2.325,2.2998,2.3457,2.406,2.4585,2.5503,2.6363,2.6265,2.628,2.6395,2.6293,2.5815,2.5664,2.5577,2.5944,2.7048,2.6725,2.7217,2.8926,2.8582,2.8446,2.8288,2.7165,2.6361,2.6178,2.5653,2.5721,2.6151,2.6044,2.6057,2.6828,2.7799,2.878,2.9476,3.0521,3.1104,3.1149,3.146,3.1563,3.1328,3.0771,3.0313,2.9854,2.9629,3.0024,3.0428,3.1121,3.0931,3.084,3.0599,3.0238,2.9923,2.9583,2.9212,2.9153,2.9262,2.9533,2.8945,2.8676,2.8199,2.7732,2.7031,2.7167,2.7842,2.8215,2.8678,2.9248,2.9589,2.9682,2.9841,2.9969,3.0085,3.0222,3.0337,3.0256,3.0306,3.0442,3.0355,2.9829,2.9889,3.0489,3.0639,3.05,2.9831,1.4989,1.4292,1.4544,1.4763,1.4893,1.5098,1.5264,1.542,1.542,1.542,1.5352,1.4874,1.4763,1.4669,1.43,1.3917,1.4153,1.4665,1.4808,1.5024,1.564,1.6335,1.6948,1.7546,1.8193,1.916,2.0109,2.1135,2.1813,2.3077,2.4008,2.4297,2.4268,2.4392,2.4806,2.548,2.6421,2.6948,2.713,2.7134,2.7141,2.722,2.6874,2.6587,2.6979,2.7291,2.786,2.7961,2.886,2.9525,2.9264,2.9255,2.9121,2.7783,2.7229,2.7258,2.67,2.7005,2.7673,2.7469,2.7402,2.8113,2.8907,2.9495,2.9872,3.0383,3.0823,3.0993,3.1052,3.0965,3.0738,3.0198,2.97,2.9179,2.9269,2.9813,3.0528,3.1362,3.1896,3.1727,3.1224,3.0753,3.0447,3.0139,2.9757,2.9457,2.9587,2.9545,2.8914,2.8196,2.7684,2.6976,2.6253,2.6386,2.7055,2.7684,2.8266,2.8855,2.942,2.9586,2.9616,2.9934,3.0052,3.0163,3.0285,3.0337,3.0576,3.1062,3.1051,3.0701,3.0474,3.0517,3.0477,3.0315,2.9801,1.5138,1.4309,1.4547,1.4542,1.448,1.4781,1.4936,1.4992,1.501,1.507,1.5167,1.5012,1.4924,1.4874,1.4583,1.4168,1.4162,1.4619,1.4821,1.5096,1.5482,1.6046,1.6627,1.7323,1.8082,1.8527,2.0154,2.1614,2.254,2.38,2.4846,2.5444,2.5582,2.5688,2.5711,2.6517,2.728,2.778,2.7924,2.7941,2.803,2.7995,2.8183,2.7953,2.8285,2.8885,2.9384,2.9799,3.0177,3.0558,3.0437,2.99,2.9386,2.8766,2.8073,2.7944,2.7994,2.8197,2.8709,2.8983,2.8728,2.9031,2.9382,2.9784,3.0007,3.0072,3.0371,3.0521,3.0355,3.0105,3.0017,2.9484,2.9184,2.8801,2.9791,3.0414,3.1045,3.1795,3.2284,3.2558,3.2128,3.1804,3.1225,3.0893,3.0208,2.9864,2.9767,2.9465,2.8613,2.7885,2.7075,2.6295,2.5407,2.5796,2.6374,2.654,2.679,2.7744,2.8351,2.9062,2.9295,2.9614,2.9939,3.0071,3.0209,3.0419,3.0637,3.0916,3.1331,3.168,3.1366,3.0967,3.062,3.0496,3.0366,1.5196,1.4951,1.5186,1.4782,1.407,1.4194,1.4296,1.434,1.4253,1.4437,1.4648,1.4492,1.4309,1.4123,1.4183,1.402,1.4004,1.4607,1.4987,1.5084,1.5674,1.6058,1.6699,1.7443,1.8534,1.9533,2.094,2.2364,2.368,2.4818,2.5883,2.6684,2.6992,2.7051,2.6664,2.754,2.8512,2.9336,2.9301,2.9263,2.9182,2.9023,2.9216,2.9377,2.9701,3.036,3.0962,3.1283,3.1581,3.1757,3.1404,3.0915,3.0476,2.9782,2.9339,2.9286,2.9277,2.9397,2.959,3.0038,2.9982,2.955,2.9748,2.9907,2.9991,2.9991,2.9943,3.0092,2.9659,2.9336,2.9017,2.8816,2.8692,2.8985,2.9962,3.0755,3.1304,3.2207,3.272,3.2769,3.311,3.3164,3.2412,3.1676,3.0807,3.0323,3.0083,2.9382,2.833,2.7345,2.6447,2.5536,2.4667,2.489,2.5225,2.5033,2.5384,2.6384,2.73,2.8072,2.8774,2.9172,2.9482,2.9813,3.0171,3.0433,3.0539,3.064,3.125,3.1829,3.1744,3.1404,3.1015,3.0671,3.0516,1.5216,1.4775,1.502,1.483,1.4421,1.4449,1.4687,1.4859,1.4424,1.433,1.4625,1.4611,1.4845,1.4893,1.4786,1.4639,1.4874,1.4703,1.5128,1.5738,1.6244,1.6892,1.7543,1.8435,1.9326,2.0293,2.1535,2.2954,2.4517,2.5421,2.6549,2.7448,2.7976,2.8244,2.8198,2.8633,2.9193,2.9512,2.9626,2.9681,2.9719,2.9903,3.0105,3.03,3.0956,3.1563,3.2074,3.2156,3.2238,3.2127,3.1573,3.0794,3.0491,2.9853,2.9507,2.9611,2.9708,2.9931,3.0278,3.0674,3.0725,3.0221,2.9902,2.9959,2.991,2.991,2.9823,2.9662,2.9377,2.9191,2.9123,2.8858,2.8767,2.9028,2.9769,3.0522,3.1275,3.2395,3.3106,3.2751,3.2817,3.2597,3.2057,3.1862,3.1202,2.9988,2.9525,2.8671,2.7658,2.66,2.5633,2.4725,2.4006,2.407,2.4135,2.4195,2.4622,2.5606,2.6471,2.7214,2.7864,2.8449,2.8981,2.9294,2.9886,3.0443,3.0618,3.0865,3.146,3.1863,3.1585,3.1326,3.0884,3.0671,3.0613,1.5596,1.5245,1.5303,1.5379,1.5282,1.5068,1.5049,1.5117,1.4577,1.4476,1.4775,1.4932,1.5051,1.5254,1.5361,1.5206,1.5457,1.5596,1.5884,1.6539,1.7113,1.7713,1.8497,1.9481,2.0061,2.0909,2.1932,2.3308,2.4195,2.5125,2.6331,2.7592,2.8542,2.8664,2.8814,2.9082,2.9395,2.9626,2.9736,2.9842,2.9921,3.0114,3.0353,3.0689,3.1196,3.1857,3.2012,3.2085,3.207,3.1568,3.0919,3.0148,2.999,2.9748,2.9456,2.975,2.9973,3.0177,3.0513,3.0736,3.0586,3.0166,3.0053,2.9926,2.9827,2.9809,2.9808,2.9663,2.9357,2.9275,2.923,2.8957,2.8931,2.9168,2.9756,3.0516,3.0984,3.2104,3.2821,3.25,3.2549,3.2182,3.178,3.1722,3.1511,3.0157,2.8859,2.7959,2.7045,2.6005,2.498,2.4078,2.3399,2.3362,2.3463,2.3615,2.414,2.4938,2.5655,2.6338,2.6822,2.7372,2.8078,2.8811,2.9396,2.9995,3.0652,3.1117,3.1358,3.1372,3.1138,3.0905,3.0661,3.0649,3.0671,1.6345,1.6087,1.6056,1.6285,1.6553,1.5797,1.5257,1.4795,1.4606,1.4625,1.4805,1.5166,1.5225,1.4934,1.5234,1.531,1.5186,1.5746,1.6318,1.7071,1.7787,1.8418,1.9315,2.0316,2.0898,2.1306,2.209,2.3089,2.3549,2.4908,2.6282,2.7313,2.813,2.8554,2.8893,2.9209,2.9455,2.9645,2.979,2.9893,3.0002,3.0034,3.032,3.0665,3.0995,3.1297,3.1464,3.1538,3.1144,3.0789,3.0479,3.0126,2.9908,2.9787,2.9888,3.003,3.0171,3.0285,3.0414,3.0574,3.0597,3.0348,3.0016,2.9846,2.9701,2.9683,2.9682,2.9626,2.9394,2.9373,2.9291,2.9138,2.8975,2.9439,2.998,3.0389,3.0646,3.1334,3.207,3.2333,3.2641,3.244,3.191,3.1718,3.1462,3.0104,2.8764,2.7711,2.6749,2.5556,2.4553,2.3567,2.2993,2.2669,2.2773,2.3127,2.3365,2.4058,2.4759,2.5427,2.5857,2.6388,2.7138,2.7943,2.88,2.9505,3.0146,3.0575,3.0877,3.0833,3.0862,3.0831,3.071,3.0698,3.0594,1.6059,1.5856,1.5846,1.5951,1.6114,1.5981,1.5325,1.4443,1.4179,1.4418,1.4972,1.5081,1.5352,1.5796,1.5624,1.5694,1.5748,1.5956,1.6354,1.7151,1.8262,1.9338,2.0159,2.0897,2.1673,2.2198,2.2683,2.3079,2.4117,2.5232,2.6132,2.7209,2.7464,2.8064,2.8709,2.9153,2.9399,2.9681,2.9825,2.9926,3.013,3.0258,3.0453,3.0577,3.0998,3.1199,3.1214,3.1054,3.0732,3.0609,3.0032,2.9683,2.988,2.9784,2.9817,3.0118,3.0241,3.0355,3.0425,3.0394,3.0541,3.0739,3.0335,2.9738,2.9569,2.9568,2.9588,2.9492,2.9543,2.9574,2.9649,2.9561,2.9414,2.9669,3.0111,3.0325,3.0523,3.0772,3.1438,3.1802,3.21,3.2263,3.1776,3.17,3.1277,2.9956,2.8739,2.7623,2.6466,2.5303,2.4274,2.3287,2.29,2.2678,2.2669,2.2954,2.296,2.3168,2.3974,2.4588,2.493,2.5502,2.6255,2.7222,2.8307,2.9032,2.9613,3.0102,3.0735,3.0798,3.0813,3.0808,3.0784,3.0769,3.0525,1.582,1.5634,1.5672,1.5788,1.5961,1.6066,1.5608,1.4974,1.4814,1.5038,1.5415,1.5522,1.5767,1.6113,1.6237,1.6307,1.6364,1.6846,1.7249,1.7627,1.8499,1.9481,2.0401,2.105,2.162,2.2233,2.2488,2.2531,2.3617,2.4576,2.5463,2.5806,2.6315,2.7387,2.8105,2.8529,2.9078,2.9513,2.9857,2.994,3.0135,3.0349,3.0338,3.0414,3.0937,3.0886,3.0776,3.0428,3.0357,3.0283,2.9645,2.9716,2.9921,2.9886,2.9946,3.0221,3.0286,3.0645,3.0914,3.1021,3.1326,3.1429,3.0986,3.0459,2.9964,2.9792,2.9643,2.951,2.9706,2.9864,2.9959,3.0036,2.9943,2.989,3.0083,3.0275,3.034,3.0371,3.0687,3.1021,3.1341,3.1635,3.1641,3.1602,3.1047,2.9646,2.8466,2.7475,2.6294,2.5114,2.4154,2.327,2.3017,2.284,2.2857,2.2917,2.3032,2.3206,2.3616,2.4119,2.4224,2.4671,2.5499,2.6719,2.7997,2.8623,2.9162,3.0113,3.0734,3.0667,3.0615,3.0732,3.0747,3.0778,3.0423,1.5631,1.5362,1.5614,1.5738,1.6005,1.6032,1.6058,1.612,1.6033,1.6197,1.6192,1.6347,1.6476,1.6925,1.7059,1.7181,1.7295,1.7675,1.7847,1.816,1.8744,1.9562,2.0226,2.0761,2.0981,2.1277,2.155,2.1794,2.2136,2.3095,2.4007,2.4042,2.512,2.6272,2.7314,2.7846,2.8456,2.9231,2.9704,2.995,2.9918,2.9956,2.9915,2.9753,2.9776,2.972,2.9605,2.957,2.9607,2.9698,2.9805,2.9972,3.0045,3.0094,3.0213,3.0433,3.0556,3.0992,3.1487,3.1747,3.2144,3.2212,3.1911,3.124,3.0644,2.9869,2.9568,2.9963,3.0221,3.0613,3.082,3.1005,3.1003,3.0854,3.0874,3.0876,3.0789,3.0788,3.0906,3.1164,3.1284,3.1448,3.1001,3.0912,3.0887,2.9402,2.8636,2.7754,2.6559,2.536,2.4334,2.3472,2.3182,2.308,2.3032,2.3098,2.3307,2.3491,2.371,2.3876,2.4168,2.4486,2.4797,2.5961,2.7113,2.8078,2.8811,2.9499,2.9925,3.0063,3.0147,3.0531,3.0648,3.0554,3.0261,1.546,1.5098,1.5264,1.5254,1.5243,1.5759,1.6035,1.6124,1.6559,1.6826,1.7,1.7339,1.7875,1.8451,1.7891,1.8032,1.8818,1.8246,1.8312,1.8523,1.8968,1.9218,1.982,1.9739,2.0023,2.0378,2.0685,2.1118,2.168,2.2417,2.3131,2.3732,2.4471,2.5251,2.6426,2.7031,2.7964,2.8764,2.937,2.9683,2.9708,2.9817,2.9836,2.9734,2.9663,2.9699,2.9681,2.9787,2.9921,3.0049,3.0113,3.0207,3.029,3.0286,3.0383,3.0579,3.1062,3.1544,3.2089,3.2547,3.2934,3.2658,3.2257,3.1705,3.0992,3.0053,2.9832,3.0377,3.0904,3.1336,3.175,3.1973,3.2084,3.1894,3.157,3.1403,3.1236,3.1183,3.1188,3.1235,3.1296,3.1001,3.0503,3.0305,3.0241,3.0004,2.9709,2.8907,2.7586,2.6316,2.5038,2.4172,2.3529,2.3353,2.3307,2.3359,2.3558,2.3671,2.386,2.3998,2.417,2.4465,2.482,2.5248,2.6101,2.7121,2.7873,2.8177,2.859,2.9095,2.9471,2.9779,2.9873,2.9799,2.9662,1.474,1.4793,1.4843,1.4945,1.5135,1.5827,1.6155,1.6299,1.698,1.7568,1.7901,1.8121,1.8778,1.9703,1.8973,1.9072,1.9817,1.8955,1.8795,1.8931,1.8858,1.8724,1.8787,1.8783,1.9259,1.9641,2.0218,2.0731,2.1352,2.1807,2.2411,2.3027,2.3475,2.4196,2.5315,2.6386,2.7356,2.8128,2.8797,2.8986,2.9139,2.9382,2.9748,2.9753,2.9789,2.9806,2.9841,2.9924,3.0038,3.0138,3.0194,3.0292,3.037,3.0402,3.0704,3.1133,3.1662,3.2213,3.2875,3.3369,3.3679,3.3269,3.2807,3.2329,3.1507,3.0677,3.0519,3.1028,3.1597,3.2051,3.2808,3.3166,3.3167,3.3015,3.2123,3.1497,3.1127,3.0809,3.0725,3.0628,3.0676,3.0637,3.0272,3.0213,3.0166,3.0123,2.9918,2.9444,2.8236,2.7324,2.6055,2.4941,2.4306,2.3779,2.3624,2.3692,2.3858,2.3959,2.404,2.4229,2.4425,2.4578,2.484,2.5202,2.5664,2.6347,2.6949,2.7338,2.7867,2.8487,2.8751,2.8949,2.8981,2.8965,2.8728,1.3881,1.4419,1.441,1.461,1.5013,1.5729,1.614,1.646,1.726,1.8156,1.8798,1.8654,1.9457,2.0049,1.9996,2.0313,2.0241,1.967,1.9445,1.9095,1.8637,1.841,1.8097,1.7855,1.8545,1.922,1.9839,2.0413,2.0991,2.1415,2.1823,2.2096,2.2593,2.3206,2.4184,2.5243,2.6263,2.7013,2.7489,2.7571,2.8077,2.8796,2.927,2.96,2.9803,2.9823,2.9893,2.9959,3.0057,3.0123,3.019,3.034,3.0453,3.0557,3.1134,3.1585,3.2124,3.2992,3.3918,3.4301,3.4263,3.399,3.3433,3.2648,3.1725,3.1328,3.1164,3.1515,3.2053,3.2722,3.3485,3.3769,3.3711,3.3543,3.2448,3.1539,3.1054,3.0639,3.05,3.0327,3.0213,3.0232,3.0204,3.0142,3.0098,3.0068,2.9798,2.925,2.8659,2.8062,2.7157,2.6024,2.5152,2.465,2.4091,2.402,2.4136,2.4192,2.4301,2.4505,2.4682,2.4731,2.4851,2.5088,2.5578,2.599,2.6371,2.6773,2.7322,2.7692,2.7927,2.8063,2.8104,2.8026,2.7708,1.37,1.395,1.3941,1.3832,1.3868,1.4447,1.5478,1.6662,1.672,1.7775,1.9052,1.9172,1.9718,2.1245,2.0966,2.1023,2.1125,2.0416,2.0001,1.9737,1.8798,1.8254,1.7908,1.776,1.8201,1.8869,1.9551,1.9945,2.073,2.1245,2.1615,2.194,2.2343,2.2735,2.3059,2.4141,2.5094,2.5746,2.5589,2.5397,2.5469,2.6457,2.8292,2.8838,2.9251,2.9639,2.994,3.0038,3.0087,3.0123,3.0203,3.0393,3.0498,3.0634,3.1158,3.1855,3.2411,3.3234,3.4033,3.4386,3.4223,3.3501,3.2795,3.2,3.1312,3.0944,3.1039,3.1555,3.2129,3.2778,3.3337,3.3141,3.3026,3.2836,3.2128,3.1599,3.1123,3.098,3.0879,3.0529,3.0199,3.0199,3.0185,3.0157,3.0128,3.0098,3.0083,2.9554,2.9099,2.8619,2.8215,2.7175,2.612,2.5215,2.4554,2.4372,2.4441,2.4474,2.454,2.4727,2.4832,2.4804,2.4947,2.519,2.5254,2.5515,2.5893,2.628,2.6242,2.6558,2.694,2.7148,2.7206,2.716,2.6903]}]]